<?xml version="1.0" encoding="UTF-8" standalone="no" ?>
<gpx xmlns="http://www.topografix.com/GPX/1/1" xmlns:xsi="http://www.w3.org/2001/XMLSchema-instance" xsi:schemaLocation="http://www.topografix.com/GPX/1/1 http://www.topografix.com/GPX/1/1/gpx.xsd" version="1.1" creator="VisuGPX - https://www.visugpx.com">
  <metadata>
    <name>Circuit des Demoiselles</name>
  </metadata>
  <trk>
    <name><![CDATA[Santenoge]]></name>
    <trkseg>
      <trkpt lat="47.73964" lon="4.9924">
        <ele>363.98</ele>
        <time>2021-12-13T08:04:57Z</time>
      </trkpt>
      <trkpt lat="47.73967" lon="4.99246">
        <ele>364.52</ele>
        <time>2021-12-13T08:05:05Z</time>
      </trkpt>
      <trkpt lat="47.7397" lon="4.9925">
        <ele>364.92</ele>
        <time>2021-12-13T08:05:06Z</time>
      </trkpt>
      <trkpt lat="47.73972" lon="4.99255">
        <ele>365.17</ele>
        <time>2021-12-13T08:05:08Z</time>
      </trkpt>
      <trkpt lat="47.7397" lon="4.9925">
        <ele>364.92</ele>
        <time>2021-12-13T08:05:12Z</time>
      </trkpt>
      <trkpt lat="47.73968" lon="4.99244">
        <ele>364.42</ele>
        <time>2021-12-13T08:05:14Z</time>
      </trkpt>
      <trkpt lat="47.73966" lon="4.99241">
        <ele>364.13</ele>
        <time>2021-12-13T08:05:17Z</time>
      </trkpt>
      <trkpt lat="47.73964" lon="4.99237">
        <ele>363.77</ele>
        <time>2021-12-13T08:05:19Z</time>
      </trkpt>
      <trkpt lat="47.73962" lon="4.99235">
        <ele>363.55</ele>
        <time>2021-12-13T08:05:29Z</time>
      </trkpt>
      <trkpt lat="47.73963" lon="4.99232">
        <ele>363.37</ele>
        <time>2021-12-13T08:06:53Z</time>
      </trkpt>
      <trkpt lat="47.7396" lon="4.99232">
        <ele>363.26</ele>
        <time>2021-12-13T08:07:19Z</time>
      </trkpt>
      <trkpt lat="47.73961" lon="4.99237">
        <ele>363.66</ele>
        <time>2021-12-13T08:08:23Z</time>
      </trkpt>
      <trkpt lat="47.73961" lon="4.99232">
        <ele>363.3</ele>
        <time>2021-12-13T08:09:07Z</time>
      </trkpt>
      <trkpt lat="47.73962" lon="4.99228">
        <ele>363.05</ele>
        <time>2021-12-13T08:09:36Z</time>
      </trkpt>
      <trkpt lat="47.73961" lon="4.99231">
        <ele>363.23</ele>
        <time>2021-12-13T08:09:57Z</time>
      </trkpt>
      <trkpt lat="47.7396" lon="4.99235">
        <ele>363.48</ele>
        <time>2021-12-13T08:10:08Z</time>
      </trkpt>
      <trkpt lat="47.7396" lon="4.99231">
        <ele>363.19</ele>
        <time>2021-12-13T08:11:12Z</time>
      </trkpt>
      <trkpt lat="47.7396" lon="4.99236">
        <ele>363.55</ele>
        <time>2021-12-13T08:11:35Z</time>
      </trkpt>
      <trkpt lat="47.73959" lon="4.99241">
        <ele>363.88</ele>
        <time>2021-12-13T08:11:40Z</time>
      </trkpt>
      <trkpt lat="47.73959" lon="4.99245">
        <ele>364.16</ele>
        <time>2021-12-13T08:11:44Z</time>
      </trkpt>
      <trkpt lat="47.73959" lon="4.99249">
        <ele>364.45</ele>
        <time>2021-12-13T08:11:47Z</time>
      </trkpt>
      <trkpt lat="47.7396" lon="4.99254">
        <ele>364.64</ele>
        <time>2021-12-13T08:11:50Z</time>
      </trkpt>
      <trkpt lat="47.73961" lon="4.99258">
        <ele>364.77</ele>
        <time>2021-12-13T08:11:53Z</time>
      </trkpt>
      <trkpt lat="47.73961" lon="4.99263">
        <ele>364.87</ele>
        <time>2021-12-13T08:11:56Z</time>
      </trkpt>
      <trkpt lat="47.7396" lon="4.99267">
        <ele>364.9</ele>
        <time>2021-12-13T08:12:00Z</time>
      </trkpt>
      <trkpt lat="47.73958" lon="4.99272">
        <ele>364.87</ele>
        <time>2021-12-13T08:12:04Z</time>
      </trkpt>
      <trkpt lat="47.73958" lon="4.99276">
        <ele>364.94</ele>
        <time>2021-12-13T08:12:07Z</time>
      </trkpt>
      <trkpt lat="47.73957" lon="4.99281">
        <ele>364.92</ele>
        <time>2021-12-13T08:12:10Z</time>
      </trkpt>
      <trkpt lat="47.73956" lon="4.99285">
        <ele>364.88</ele>
        <time>2021-12-13T08:12:13Z</time>
      </trkpt>
      <trkpt lat="47.73955" lon="4.9929">
        <ele>364.87</ele>
        <time>2021-12-13T08:12:16Z</time>
      </trkpt>
      <trkpt lat="47.73954" lon="4.99294">
        <ele>364.87</ele>
        <time>2021-12-13T08:12:19Z</time>
      </trkpt>
      <trkpt lat="47.73953" lon="4.99298">
        <ele>364.9</ele>
        <time>2021-12-13T08:12:22Z</time>
      </trkpt>
      <trkpt lat="47.73952" lon="4.99303">
        <ele>364.96</ele>
        <time>2021-12-13T08:12:25Z</time>
      </trkpt>
      <trkpt lat="47.7395" lon="4.99308">
        <ele>364.91</ele>
        <time>2021-12-13T08:12:28Z</time>
      </trkpt>
      <trkpt lat="47.73949" lon="4.99313">
        <ele>364.73</ele>
        <time>2021-12-13T08:12:31Z</time>
      </trkpt>
      <trkpt lat="47.73948" lon="4.99318">
        <ele>364.55</ele>
        <time>2021-12-13T08:12:34Z</time>
      </trkpt>
      <trkpt lat="47.73946" lon="4.99321">
        <ele>364.44</ele>
        <time>2021-12-13T08:12:37Z</time>
      </trkpt>
      <trkpt lat="47.73945" lon="4.99326">
        <ele>364.26</ele>
        <time>2021-12-13T08:12:40Z</time>
      </trkpt>
      <trkpt lat="47.73944" lon="4.99332">
        <ele>364.1</ele>
        <time>2021-12-13T08:12:43Z</time>
      </trkpt>
      <trkpt lat="47.73944" lon="4.99336">
        <ele>363.95</ele>
        <time>2021-12-13T08:12:45Z</time>
      </trkpt>
      <trkpt lat="47.73942" lon="4.9934">
        <ele>364.02</ele>
        <time>2021-12-13T08:12:48Z</time>
      </trkpt>
      <trkpt lat="47.73941" lon="4.99344">
        <ele>363.99</ele>
        <time>2021-12-13T08:12:51Z</time>
      </trkpt>
      <trkpt lat="47.7394" lon="4.99348">
        <ele>363.95</ele>
        <time>2021-12-13T08:12:55Z</time>
      </trkpt>
      <trkpt lat="47.73938" lon="4.99353">
        <ele>363.99</ele>
        <time>2021-12-13T08:12:59Z</time>
      </trkpt>
      <trkpt lat="47.73935" lon="4.99357">
        <ele>364.17</ele>
        <time>2021-12-13T08:13:02Z</time>
      </trkpt>
      <trkpt lat="47.73932" lon="4.99361">
        <ele>364.35</ele>
        <time>2021-12-13T08:13:04Z</time>
      </trkpt>
      <trkpt lat="47.7393" lon="4.99363">
        <ele>364.7</ele>
        <time>2021-12-13T08:13:06Z</time>
      </trkpt>
      <trkpt lat="47.73928" lon="4.99365">
        <ele>365.06</ele>
        <time>2021-12-13T08:13:08Z</time>
      </trkpt>
      <trkpt lat="47.73925" lon="4.99368">
        <ele>365.6</ele>
        <time>2021-12-13T08:13:10Z</time>
      </trkpt>
      <trkpt lat="47.73922" lon="4.99372">
        <ele>366.21</ele>
        <time>2021-12-13T08:13:12Z</time>
      </trkpt>
      <trkpt lat="47.73918" lon="4.99376">
        <ele>366.93</ele>
        <time>2021-12-13T08:13:14Z</time>
      </trkpt>
      <trkpt lat="47.73916" lon="4.99379">
        <ele>367.31</ele>
        <time>2021-12-13T08:13:16Z</time>
      </trkpt>
      <trkpt lat="47.73914" lon="4.99383">
        <ele>367.67</ele>
        <time>2021-12-13T08:13:19Z</time>
      </trkpt>
      <trkpt lat="47.73912" lon="4.99387">
        <ele>368.03</ele>
        <time>2021-12-13T08:13:22Z</time>
      </trkpt>
      <trkpt lat="47.7391" lon="4.99391">
        <ele>368.3</ele>
        <time>2021-12-13T08:13:25Z</time>
      </trkpt>
      <trkpt lat="47.73908" lon="4.99396">
        <ele>368.49</ele>
        <time>2021-12-13T08:13:28Z</time>
      </trkpt>
      <trkpt lat="47.73906" lon="4.99401">
        <ele>368.65</ele>
        <time>2021-12-13T08:13:31Z</time>
      </trkpt>
      <trkpt lat="47.73904" lon="4.99405">
        <ele>368.77</ele>
        <time>2021-12-13T08:13:34Z</time>
      </trkpt>
      <trkpt lat="47.73903" lon="4.99409">
        <ele>368.86</ele>
        <time>2021-12-13T08:13:37Z</time>
      </trkpt>
      <trkpt lat="47.739" lon="4.99414">
        <ele>368.96</ele>
        <time>2021-12-13T08:13:40Z</time>
      </trkpt>
      <trkpt lat="47.73898" lon="4.99418">
        <ele>368.94</ele>
        <time>2021-12-13T08:13:43Z</time>
      </trkpt>
      <trkpt lat="47.73896" lon="4.99424">
        <ele>368.67</ele>
        <time>2021-12-13T08:13:46Z</time>
      </trkpt>
      <trkpt lat="47.73895" lon="4.99428">
        <ele>368.5</ele>
        <time>2021-12-13T08:13:48Z</time>
      </trkpt>
      <trkpt lat="47.73893" lon="4.99433">
        <ele>368.32</ele>
        <time>2021-12-13T08:13:50Z</time>
      </trkpt>
      <trkpt lat="47.73892" lon="4.99438">
        <ele>368.15</ele>
        <time>2021-12-13T08:13:52Z</time>
      </trkpt>
      <trkpt lat="47.73891" lon="4.99442">
        <ele>368.02</ele>
        <time>2021-12-13T08:13:54Z</time>
      </trkpt>
      <trkpt lat="47.73891" lon="4.99446">
        <ele>367.92</ele>
        <time>2021-12-13T08:13:56Z</time>
      </trkpt>
      <trkpt lat="47.7389" lon="4.99451">
        <ele>367.95</ele>
        <time>2021-12-13T08:13:59Z</time>
      </trkpt>
      <trkpt lat="47.73888" lon="4.99457">
        <ele>368.08</ele>
        <time>2021-12-13T08:14:02Z</time>
      </trkpt>
      <trkpt lat="47.73886" lon="4.99461">
        <ele>368.23</ele>
        <time>2021-12-13T08:14:05Z</time>
      </trkpt>
      <trkpt lat="47.73885" lon="4.99466">
        <ele>368.23</ele>
        <time>2021-12-13T08:14:08Z</time>
      </trkpt>
      <trkpt lat="47.73884" lon="4.99472">
        <ele>368.18</ele>
        <time>2021-12-13T08:14:11Z</time>
      </trkpt>
      <trkpt lat="47.73883" lon="4.99477">
        <ele>367.73</ele>
        <time>2021-12-13T08:14:13Z</time>
      </trkpt>
      <trkpt lat="47.73882" lon="4.99481">
        <ele>367.38</ele>
        <time>2021-12-13T08:14:15Z</time>
      </trkpt>
      <trkpt lat="47.73882" lon="4.99485">
        <ele>366.98</ele>
        <time>2021-12-13T08:14:17Z</time>
      </trkpt>
      <trkpt lat="47.73881" lon="4.99491">
        <ele>366.45</ele>
        <time>2021-12-13T08:14:20Z</time>
      </trkpt>
      <trkpt lat="47.73881" lon="4.99496">
        <ele>365.96</ele>
        <time>2021-12-13T08:14:23Z</time>
      </trkpt>
      <trkpt lat="47.7388" lon="4.99501">
        <ele>365.59</ele>
        <time>2021-12-13T08:14:25Z</time>
      </trkpt>
      <trkpt lat="47.73879" lon="4.99504">
        <ele>365.51</ele>
        <time>2021-12-13T08:14:27Z</time>
      </trkpt>
      <trkpt lat="47.73878" lon="4.9951">
        <ele>365.22</ele>
        <time>2021-12-13T08:14:30Z</time>
      </trkpt>
      <trkpt lat="47.73877" lon="4.99515">
        <ele>364.93</ele>
        <time>2021-12-13T08:14:33Z</time>
      </trkpt>
      <trkpt lat="47.73876" lon="4.9952">
        <ele>364.59</ele>
        <time>2021-12-13T08:14:36Z</time>
      </trkpt>
      <trkpt lat="47.73876" lon="4.99525">
        <ele>364.26</ele>
        <time>2021-12-13T08:14:39Z</time>
      </trkpt>
      <trkpt lat="47.73875" lon="4.99531">
        <ele>364.06</ele>
        <time>2021-12-13T08:14:42Z</time>
      </trkpt>
      <trkpt lat="47.73876" lon="4.99537">
        <ele>364.2</ele>
        <time>2021-12-13T08:14:45Z</time>
      </trkpt>
      <trkpt lat="47.73876" lon="4.99542">
        <ele>364.27</ele>
        <time>2021-12-13T08:14:48Z</time>
      </trkpt>
      <trkpt lat="47.73876" lon="4.99546">
        <ele>364.33</ele>
        <time>2021-12-13T08:14:50Z</time>
      </trkpt>
      <trkpt lat="47.73876" lon="4.99552">
        <ele>364.41</ele>
        <time>2021-12-13T08:14:52Z</time>
      </trkpt>
      <trkpt lat="47.73876" lon="4.99556">
        <ele>364.53</ele>
        <time>2021-12-13T08:14:54Z</time>
      </trkpt>
      <trkpt lat="47.73875" lon="4.9956">
        <ele>365.14</ele>
        <time>2021-12-13T08:14:56Z</time>
      </trkpt>
      <trkpt lat="47.73875" lon="4.99564">
        <ele>365.72</ele>
        <time>2021-12-13T08:14:58Z</time>
      </trkpt>
      <trkpt lat="47.73874" lon="4.9957">
        <ele>366.62</ele>
        <time>2021-12-13T08:15:01Z</time>
      </trkpt>
      <trkpt lat="47.73874" lon="4.99576">
        <ele>367.48</ele>
        <time>2021-12-13T08:15:04Z</time>
      </trkpt>
      <trkpt lat="47.73874" lon="4.9958">
        <ele>368.06</ele>
        <time>2021-12-13T08:15:06Z</time>
      </trkpt>
      <trkpt lat="47.73874" lon="4.99585">
        <ele>368.6</ele>
        <time>2021-12-13T08:15:08Z</time>
      </trkpt>
      <trkpt lat="47.73875" lon="4.99591">
        <ele>368.78</ele>
        <time>2021-12-13T08:15:10Z</time>
      </trkpt>
      <trkpt lat="47.73875" lon="4.99595">
        <ele>368.92</ele>
        <time>2021-12-13T08:15:12Z</time>
      </trkpt>
      <trkpt lat="47.73875" lon="4.996">
        <ele>369.1</ele>
        <time>2021-12-13T08:15:14Z</time>
      </trkpt>
      <trkpt lat="47.73875" lon="4.99606">
        <ele>369.32</ele>
        <time>2021-12-13T08:15:17Z</time>
      </trkpt>
      <trkpt lat="47.73874" lon="4.99611">
        <ele>369.53</ele>
        <time>2021-12-13T08:15:20Z</time>
      </trkpt>
      <trkpt lat="47.73874" lon="4.99616">
        <ele>369.36</ele>
        <time>2021-12-13T08:15:22Z</time>
      </trkpt>
      <trkpt lat="47.73874" lon="4.9962">
        <ele>369.22</ele>
        <time>2021-12-13T08:15:24Z</time>
      </trkpt>
      <trkpt lat="47.73874" lon="4.99625">
        <ele>369.04</ele>
        <time>2021-12-13T08:15:27Z</time>
      </trkpt>
      <trkpt lat="47.73874" lon="4.9963">
        <ele>368.86</ele>
        <time>2021-12-13T08:15:30Z</time>
      </trkpt>
      <trkpt lat="47.73874" lon="4.99635">
        <ele>368.68</ele>
        <time>2021-12-13T08:15:33Z</time>
      </trkpt>
      <trkpt lat="47.73874" lon="4.99641">
        <ele>368.57</ele>
        <time>2021-12-13T08:15:36Z</time>
      </trkpt>
      <trkpt lat="47.73873" lon="4.99646">
        <ele>368.68</ele>
        <time>2021-12-13T08:15:38Z</time>
      </trkpt>
      <trkpt lat="47.73873" lon="4.9965">
        <ele>368.74</ele>
        <time>2021-12-13T08:15:40Z</time>
      </trkpt>
      <trkpt lat="47.73872" lon="4.99655">
        <ele>368.84</ele>
        <time>2021-12-13T08:15:42Z</time>
      </trkpt>
      <trkpt lat="47.73872" lon="4.9966">
        <ele>368.91</ele>
        <time>2021-12-13T08:15:44Z</time>
      </trkpt>
      <trkpt lat="47.73872" lon="4.99665">
        <ele>368.98</ele>
        <time>2021-12-13T08:15:47Z</time>
      </trkpt>
      <trkpt lat="47.73872" lon="4.9967">
        <ele>368.95</ele>
        <time>2021-12-13T08:15:50Z</time>
      </trkpt>
      <trkpt lat="47.73872" lon="4.99674">
        <ele>368.9</ele>
        <time>2021-12-13T08:15:52Z</time>
      </trkpt>
      <trkpt lat="47.73872" lon="4.99679">
        <ele>368.83</ele>
        <time>2021-12-13T08:15:54Z</time>
      </trkpt>
      <trkpt lat="47.73872" lon="4.99683">
        <ele>368.77</ele>
        <time>2021-12-13T08:15:56Z</time>
      </trkpt>
      <trkpt lat="47.73872" lon="4.99689">
        <ele>368.68</ele>
        <time>2021-12-13T08:15:59Z</time>
      </trkpt>
      <trkpt lat="47.73872" lon="4.99693">
        <ele>368.63</ele>
        <time>2021-12-13T08:16:01Z</time>
      </trkpt>
      <trkpt lat="47.73871" lon="4.99698">
        <ele>368.52</ele>
        <time>2021-12-13T08:16:03Z</time>
      </trkpt>
      <trkpt lat="47.73871" lon="4.99702">
        <ele>368.37</ele>
        <time>2021-12-13T08:16:05Z</time>
      </trkpt>
      <trkpt lat="47.73871" lon="4.99707">
        <ele>368.19</ele>
        <time>2021-12-13T08:16:08Z</time>
      </trkpt>
      <trkpt lat="47.73871" lon="4.99712">
        <ele>368.01</ele>
        <time>2021-12-13T08:16:11Z</time>
      </trkpt>
      <trkpt lat="47.73871" lon="4.99717">
        <ele>367.83</ele>
        <time>2021-12-13T08:16:14Z</time>
      </trkpt>
      <trkpt lat="47.73871" lon="4.99722">
        <ele>367.65</ele>
        <time>2021-12-13T08:16:17Z</time>
      </trkpt>
      <trkpt lat="47.7387" lon="4.99727">
        <ele>367.68</ele>
        <time>2021-12-13T08:16:20Z</time>
      </trkpt>
      <trkpt lat="47.7387" lon="4.99731">
        <ele>367.68</ele>
        <time>2021-12-13T08:16:22Z</time>
      </trkpt>
      <trkpt lat="47.7387" lon="4.99735">
        <ele>367.68</ele>
        <time>2021-12-13T08:16:24Z</time>
      </trkpt>
      <trkpt lat="47.7387" lon="4.9974">
        <ele>367.68</ele>
        <time>2021-12-13T08:16:26Z</time>
      </trkpt>
      <trkpt lat="47.7387" lon="4.99744">
        <ele>367.68</ele>
        <time>2021-12-13T08:16:28Z</time>
      </trkpt>
      <trkpt lat="47.7387" lon="4.9975">
        <ele>367.68</ele>
        <time>2021-12-13T08:16:31Z</time>
      </trkpt>
      <trkpt lat="47.7387" lon="4.99756">
        <ele>367.61</ele>
        <time>2021-12-13T08:16:34Z</time>
      </trkpt>
      <trkpt lat="47.7387" lon="4.99761">
        <ele>367.55</ele>
        <time>2021-12-13T08:16:37Z</time>
      </trkpt>
      <trkpt lat="47.7387" lon="4.99767">
        <ele>367.48</ele>
        <time>2021-12-13T08:16:40Z</time>
      </trkpt>
      <trkpt lat="47.7387" lon="4.99771">
        <ele>367.44</ele>
        <time>2021-12-13T08:16:42Z</time>
      </trkpt>
      <trkpt lat="47.7387" lon="4.99777">
        <ele>367.37</ele>
        <time>2021-12-13T08:16:45Z</time>
      </trkpt>
      <trkpt lat="47.7387" lon="4.99782">
        <ele>367.51</ele>
        <time>2021-12-13T08:16:48Z</time>
      </trkpt>
      <trkpt lat="47.73869" lon="4.99788">
        <ele>367.8</ele>
        <time>2021-12-13T08:16:51Z</time>
      </trkpt>
      <trkpt lat="47.7387" lon="4.99793">
        <ele>367.91</ele>
        <time>2021-12-13T08:16:54Z</time>
      </trkpt>
      <trkpt lat="47.7387" lon="4.99799">
        <ele>368.12</ele>
        <time>2021-12-13T08:16:57Z</time>
      </trkpt>
      <trkpt lat="47.7387" lon="4.99804">
        <ele>368.3</ele>
        <time>2021-12-13T08:17:00Z</time>
      </trkpt>
      <trkpt lat="47.7387" lon="4.9981">
        <ele>368.26</ele>
        <time>2021-12-13T08:17:03Z</time>
      </trkpt>
      <trkpt lat="47.7387" lon="4.99815">
        <ele>368.14</ele>
        <time>2021-12-13T08:17:06Z</time>
      </trkpt>
      <trkpt lat="47.7387" lon="4.9982">
        <ele>368.03</ele>
        <time>2021-12-13T08:17:09Z</time>
      </trkpt>
      <trkpt lat="47.7387" lon="4.99825">
        <ele>367.91</ele>
        <time>2021-12-13T08:17:11Z</time>
      </trkpt>
      <trkpt lat="47.7387" lon="4.99829">
        <ele>367.82</ele>
        <time>2021-12-13T08:17:13Z</time>
      </trkpt>
      <trkpt lat="47.73871" lon="4.99835">
        <ele>367.56</ele>
        <time>2021-12-13T08:17:16Z</time>
      </trkpt>
      <trkpt lat="47.73871" lon="4.99841">
        <ele>367.5</ele>
        <time>2021-12-13T08:17:19Z</time>
      </trkpt>
      <trkpt lat="47.73871" lon="4.99846">
        <ele>367.44</ele>
        <time>2021-12-13T08:17:22Z</time>
      </trkpt>
      <trkpt lat="47.73872" lon="4.99851">
        <ele>367.29</ele>
        <time>2021-12-13T08:17:25Z</time>
      </trkpt>
      <trkpt lat="47.73872" lon="4.99856">
        <ele>367.26</ele>
        <time>2021-12-13T08:17:28Z</time>
      </trkpt>
      <trkpt lat="47.73872" lon="4.99861">
        <ele>367.22</ele>
        <time>2021-12-13T08:17:30Z</time>
      </trkpt>
      <trkpt lat="47.73873" lon="4.99865">
        <ele>367.2</ele>
        <time>2021-12-13T08:17:32Z</time>
      </trkpt>
      <trkpt lat="47.73873" lon="4.99869">
        <ele>367.27</ele>
        <time>2021-12-13T08:17:34Z</time>
      </trkpt>
      <trkpt lat="47.73873" lon="4.99873">
        <ele>367.33</ele>
        <time>2021-12-13T08:17:36Z</time>
      </trkpt>
      <trkpt lat="47.73873" lon="4.99877">
        <ele>367.39</ele>
        <time>2021-12-13T08:17:38Z</time>
      </trkpt>
      <trkpt lat="47.73873" lon="4.99882">
        <ele>367.47</ele>
        <time>2021-12-13T08:17:41Z</time>
      </trkpt>
      <trkpt lat="47.73873" lon="4.99887">
        <ele>367.54</ele>
        <time>2021-12-13T08:17:44Z</time>
      </trkpt>
      <trkpt lat="47.73873" lon="4.99893">
        <ele>367.57</ele>
        <time>2021-12-13T08:17:47Z</time>
      </trkpt>
      <trkpt lat="47.73873" lon="4.99898">
        <ele>367.57</ele>
        <time>2021-12-13T08:17:50Z</time>
      </trkpt>
      <trkpt lat="47.73873" lon="4.99902">
        <ele>367.57</ele>
        <time>2021-12-13T08:17:52Z</time>
      </trkpt>
      <trkpt lat="47.73874" lon="4.99907">
        <ele>367.54</ele>
        <time>2021-12-13T08:17:55Z</time>
      </trkpt>
      <trkpt lat="47.73874" lon="4.99912">
        <ele>367.54</ele>
        <time>2021-12-13T08:17:58Z</time>
      </trkpt>
      <trkpt lat="47.73875" lon="4.99917">
        <ele>367.49</ele>
        <time>2021-12-13T08:18:01Z</time>
      </trkpt>
      <trkpt lat="47.73876" lon="4.99923">
        <ele>367.24</ele>
        <time>2021-12-13T08:18:04Z</time>
      </trkpt>
      <trkpt lat="47.73876" lon="4.99928">
        <ele>367.06</ele>
        <time>2021-12-13T08:18:06Z</time>
      </trkpt>
      <trkpt lat="47.73877" lon="4.99932">
        <ele>366.88</ele>
        <time>2021-12-13T08:18:09Z</time>
      </trkpt>
      <trkpt lat="47.73877" lon="4.99936">
        <ele>366.73</ele>
        <time>2021-12-13T08:18:12Z</time>
      </trkpt>
      <trkpt lat="47.73878" lon="4.99942">
        <ele>366.48</ele>
        <time>2021-12-13T08:18:15Z</time>
      </trkpt>
      <trkpt lat="47.73878" lon="4.99947">
        <ele>366.36</ele>
        <time>2021-12-13T08:18:18Z</time>
      </trkpt>
      <trkpt lat="47.73879" lon="4.99952">
        <ele>366.26</ele>
        <time>2021-12-13T08:18:20Z</time>
      </trkpt>
      <trkpt lat="47.73879" lon="4.99956">
        <ele>366.21</ele>
        <time>2021-12-13T08:18:22Z</time>
      </trkpt>
      <trkpt lat="47.73879" lon="4.9996">
        <ele>366.16</ele>
        <time>2021-12-13T08:18:24Z</time>
      </trkpt>
      <trkpt lat="47.73879" lon="4.99965">
        <ele>366.09</ele>
        <time>2021-12-13T08:18:26Z</time>
      </trkpt>
      <trkpt lat="47.7388" lon="4.9997">
        <ele>366.03</ele>
        <time>2021-12-13T08:18:28Z</time>
      </trkpt>
      <trkpt lat="47.7388" lon="4.99974">
        <ele>366.04</ele>
        <time>2021-12-13T08:18:30Z</time>
      </trkpt>
      <trkpt lat="47.73881" lon="4.9998">
        <ele>366.2</ele>
        <time>2021-12-13T08:18:33Z</time>
      </trkpt>
      <trkpt lat="47.73881" lon="4.99985">
        <ele>366.33</ele>
        <time>2021-12-13T08:18:36Z</time>
      </trkpt>
      <trkpt lat="47.73882" lon="4.9999">
        <ele>366.48</ele>
        <time>2021-12-13T08:18:39Z</time>
      </trkpt>
      <trkpt lat="47.73883" lon="4.99995">
        <ele>366.65</ele>
        <time>2021-12-13T08:18:42Z</time>
      </trkpt>
      <trkpt lat="47.73884" lon="5.00001">
        <ele>366.87</ele>
        <time>2021-12-13T08:18:45Z</time>
      </trkpt>
      <trkpt lat="47.73885" lon="5.00006">
        <ele>367.17</ele>
        <time>2021-12-13T08:18:48Z</time>
      </trkpt>
      <trkpt lat="47.73887" lon="5.00011">
        <ele>367.62</ele>
        <time>2021-12-13T08:18:51Z</time>
      </trkpt>
      <trkpt lat="47.73888" lon="5.00016">
        <ele>368.05</ele>
        <time>2021-12-13T08:18:54Z</time>
      </trkpt>
      <trkpt lat="47.73888" lon="5.0002">
        <ele>368.32</ele>
        <time>2021-12-13T08:18:57Z</time>
      </trkpt>
      <trkpt lat="47.73888" lon="5.00026">
        <ele>368.72</ele>
        <time>2021-12-13T08:19:00Z</time>
      </trkpt>
      <trkpt lat="47.73887" lon="5.00031">
        <ele>368.88</ele>
        <time>2021-12-13T08:19:03Z</time>
      </trkpt>
      <trkpt lat="47.73886" lon="5.00036">
        <ele>369.01</ele>
        <time>2021-12-13T08:19:06Z</time>
      </trkpt>
      <trkpt lat="47.73884" lon="5.00041">
        <ele>368.9</ele>
        <time>2021-12-13T08:19:09Z</time>
      </trkpt>
      <trkpt lat="47.73883" lon="5.00045">
        <ele>368.92</ele>
        <time>2021-12-13T08:19:11Z</time>
      </trkpt>
      <trkpt lat="47.73881" lon="5.0005">
        <ele>368.73</ele>
        <time>2021-12-13T08:19:14Z</time>
      </trkpt>
      <trkpt lat="47.73879" lon="5.00054">
        <ele>368.44</ele>
        <time>2021-12-13T08:19:17Z</time>
      </trkpt>
      <trkpt lat="47.73877" lon="5.00059">
        <ele>368.06</ele>
        <time>2021-12-13T08:19:20Z</time>
      </trkpt>
      <trkpt lat="47.73875" lon="5.00064">
        <ele>367.65</ele>
        <time>2021-12-13T08:19:23Z</time>
      </trkpt>
      <trkpt lat="47.73873" lon="5.00067">
        <ele>367.23</ele>
        <time>2021-12-13T08:19:26Z</time>
      </trkpt>
      <trkpt lat="47.73871" lon="5.0007">
        <ele>366.83</ele>
        <time>2021-12-13T08:19:28Z</time>
      </trkpt>
      <trkpt lat="47.73869" lon="5.00073">
        <ele>366.44</ele>
        <time>2021-12-13T08:19:30Z</time>
      </trkpt>
      <trkpt lat="47.73867" lon="5.00076">
        <ele>366.06</ele>
        <time>2021-12-13T08:19:32Z</time>
      </trkpt>
      <trkpt lat="47.73864" lon="5.0008">
        <ele>365.52</ele>
        <time>2021-12-13T08:19:34Z</time>
      </trkpt>
      <trkpt lat="47.73862" lon="5.00083">
        <ele>365.18</ele>
        <time>2021-12-13T08:19:36Z</time>
      </trkpt>
      <trkpt lat="47.73859" lon="5.00086">
        <ele>364.55</ele>
        <time>2021-12-13T08:19:39Z</time>
      </trkpt>
      <trkpt lat="47.73857" lon="5.00089">
        <ele>364.06</ele>
        <time>2021-12-13T08:19:42Z</time>
      </trkpt>
      <trkpt lat="47.73854" lon="5.00091">
        <ele>363.59</ele>
        <time>2021-12-13T08:19:46Z</time>
      </trkpt>
      <trkpt lat="47.73851" lon="5.00094">
        <ele>362.98</ele>
        <time>2021-12-13T08:19:49Z</time>
      </trkpt>
      <trkpt lat="47.73849" lon="5.00096">
        <ele>362.56</ele>
        <time>2021-12-13T08:19:51Z</time>
      </trkpt>
      <trkpt lat="47.73846" lon="5.00099">
        <ele>361.91</ele>
        <time>2021-12-13T08:19:53Z</time>
      </trkpt>
      <trkpt lat="47.73844" lon="5.00102">
        <ele>361.34</ele>
        <time>2021-12-13T08:19:55Z</time>
      </trkpt>
      <trkpt lat="47.73841" lon="5.00105">
        <ele>360.65</ele>
        <time>2021-12-13T08:19:58Z</time>
      </trkpt>
      <trkpt lat="47.73838" lon="5.00106">
        <ele>360.21</ele>
        <time>2021-12-13T08:20:01Z</time>
      </trkpt>
      <trkpt lat="47.73835" lon="5.00108">
        <ele>359.62</ele>
        <time>2021-12-13T08:20:04Z</time>
      </trkpt>
      <trkpt lat="47.73832" lon="5.0011">
        <ele>359.21</ele>
        <time>2021-12-13T08:20:07Z</time>
      </trkpt>
      <trkpt lat="47.73828" lon="5.00112">
        <ele>359.19</ele>
        <time>2021-12-13T08:20:10Z</time>
      </trkpt>
      <trkpt lat="47.73826" lon="5.00114">
        <ele>359.24</ele>
        <time>2021-12-13T08:20:12Z</time>
      </trkpt>
      <trkpt lat="47.73823" lon="5.00116">
        <ele>359.31</ele>
        <time>2021-12-13T08:20:14Z</time>
      </trkpt>
      <trkpt lat="47.73821" lon="5.0012">
        <ele>359.3</ele>
        <time>2021-12-13T08:20:16Z</time>
      </trkpt>
      <trkpt lat="47.73819" lon="5.00123">
        <ele>359.3</ele>
        <time>2021-12-13T08:20:18Z</time>
      </trkpt>
      <trkpt lat="47.73817" lon="5.00127">
        <ele>359.25</ele>
        <time>2021-12-13T08:20:20Z</time>
      </trkpt>
      <trkpt lat="47.73814" lon="5.00129">
        <ele>359.25</ele>
        <time>2021-12-13T08:20:22Z</time>
      </trkpt>
      <trkpt lat="47.73812" lon="5.00132">
        <ele>359.19</ele>
        <time>2021-12-13T08:20:24Z</time>
      </trkpt>
      <trkpt lat="47.73811" lon="5.00135">
        <ele>359.11</ele>
        <time>2021-12-13T08:20:26Z</time>
      </trkpt>
      <trkpt lat="47.73808" lon="5.00139">
        <ele>359</ele>
        <time>2021-12-13T08:20:29Z</time>
      </trkpt>
      <trkpt lat="47.73805" lon="5.00143">
        <ele>359.2</ele>
        <time>2021-12-13T08:20:32Z</time>
      </trkpt>
      <trkpt lat="47.73802" lon="5.00147">
        <ele>359.56</ele>
        <time>2021-12-13T08:20:35Z</time>
      </trkpt>
      <trkpt lat="47.73799" lon="5.00151">
        <ele>359.84</ele>
        <time>2021-12-13T08:20:38Z</time>
      </trkpt>
      <trkpt lat="47.73796" lon="5.00154">
        <ele>360.01</ele>
        <time>2021-12-13T08:20:41Z</time>
      </trkpt>
      <trkpt lat="47.73793" lon="5.00157">
        <ele>360.12</ele>
        <time>2021-12-13T08:20:44Z</time>
      </trkpt>
      <trkpt lat="47.73791" lon="5.00159">
        <ele>360.16</ele>
        <time>2021-12-13T08:20:46Z</time>
      </trkpt>
      <trkpt lat="47.73787" lon="5.00162">
        <ele>360.17</ele>
        <time>2021-12-13T08:20:49Z</time>
      </trkpt>
      <trkpt lat="47.73785" lon="5.00165">
        <ele>360.07</ele>
        <time>2021-12-13T08:20:52Z</time>
      </trkpt>
      <trkpt lat="47.73782" lon="5.00168">
        <ele>359.94</ele>
        <time>2021-12-13T08:20:55Z</time>
      </trkpt>
      <trkpt lat="47.73779" lon="5.00172">
        <ele>359.66</ele>
        <time>2021-12-13T08:20:58Z</time>
      </trkpt>
      <trkpt lat="47.73777" lon="5.00174">
        <ele>359.54</ele>
        <time>2021-12-13T08:21:00Z</time>
      </trkpt>
      <trkpt lat="47.73774" lon="5.00177">
        <ele>359.56</ele>
        <time>2021-12-13T08:21:02Z</time>
      </trkpt>
      <trkpt lat="47.73772" lon="5.0018">
        <ele>359.46</ele>
        <time>2021-12-13T08:21:04Z</time>
      </trkpt>
      <trkpt lat="47.7377" lon="5.00183">
        <ele>359.33</ele>
        <time>2021-12-13T08:21:06Z</time>
      </trkpt>
      <trkpt lat="47.73767" lon="5.00186">
        <ele>359.23</ele>
        <time>2021-12-13T08:21:09Z</time>
      </trkpt>
      <trkpt lat="47.73764" lon="5.00188">
        <ele>359.19</ele>
        <time>2021-12-13T08:21:12Z</time>
      </trkpt>
      <trkpt lat="47.73761" lon="5.00191">
        <ele>359</ele>
        <time>2021-12-13T08:21:15Z</time>
      </trkpt>
      <trkpt lat="47.73758" lon="5.00193">
        <ele>358.89</ele>
        <time>2021-12-13T08:21:18Z</time>
      </trkpt>
      <trkpt lat="47.73755" lon="5.00196">
        <ele>358.74</ele>
        <time>2021-12-13T08:21:21Z</time>
      </trkpt>
      <trkpt lat="47.73752" lon="5.00198">
        <ele>358.7</ele>
        <time>2021-12-13T08:21:23Z</time>
      </trkpt>
      <trkpt lat="47.73749" lon="5.00201">
        <ele>358.58</ele>
        <time>2021-12-13T08:21:26Z</time>
      </trkpt>
      <trkpt lat="47.73746" lon="5.00203">
        <ele>358.62</ele>
        <time>2021-12-13T08:21:29Z</time>
      </trkpt>
      <trkpt lat="47.73743" lon="5.00206">
        <ele>358.63</ele>
        <time>2021-12-13T08:21:32Z</time>
      </trkpt>
      <trkpt lat="47.7374" lon="5.00208">
        <ele>358.74</ele>
        <time>2021-12-13T08:21:34Z</time>
      </trkpt>
      <trkpt lat="47.73738" lon="5.0021">
        <ele>358.8</ele>
        <time>2021-12-13T08:21:36Z</time>
      </trkpt>
      <trkpt lat="47.73735" lon="5.00213">
        <ele>358.93</ele>
        <time>2021-12-13T08:21:38Z</time>
      </trkpt>
      <trkpt lat="47.73733" lon="5.00216">
        <ele>359.01</ele>
        <time>2021-12-13T08:21:40Z</time>
      </trkpt>
      <trkpt lat="47.7373" lon="5.00219">
        <ele>359.22</ele>
        <time>2021-12-13T08:21:42Z</time>
      </trkpt>
      <trkpt lat="47.73728" lon="5.00221">
        <ele>359.39</ele>
        <time>2021-12-13T08:21:44Z</time>
      </trkpt>
      <trkpt lat="47.73726" lon="5.00223">
        <ele>359.58</ele>
        <time>2021-12-13T08:21:46Z</time>
      </trkpt>
      <trkpt lat="47.73724" lon="5.00226">
        <ele>359.7</ele>
        <time>2021-12-13T08:21:48Z</time>
      </trkpt>
      <trkpt lat="47.73721" lon="5.00228">
        <ele>359.91</ele>
        <time>2021-12-13T08:21:50Z</time>
      </trkpt>
      <trkpt lat="47.73718" lon="5.00231">
        <ele>360.09</ele>
        <time>2021-12-13T08:21:52Z</time>
      </trkpt>
      <trkpt lat="47.73716" lon="5.00234">
        <ele>360.15</ele>
        <time>2021-12-13T08:21:54Z</time>
      </trkpt>
      <trkpt lat="47.73714" lon="5.00237">
        <ele>360.2</ele>
        <time>2021-12-13T08:21:56Z</time>
      </trkpt>
      <trkpt lat="47.73711" lon="5.00239">
        <ele>360.36</ele>
        <time>2021-12-13T08:21:58Z</time>
      </trkpt>
      <trkpt lat="47.73709" lon="5.00243">
        <ele>360.32</ele>
        <time>2021-12-13T08:22:01Z</time>
      </trkpt>
      <trkpt lat="47.73706" lon="5.00247">
        <ele>360.34</ele>
        <time>2021-12-13T08:22:04Z</time>
      </trkpt>
      <trkpt lat="47.73703" lon="5.0025">
        <ele>360.38</ele>
        <time>2021-12-13T08:22:07Z</time>
      </trkpt>
      <trkpt lat="47.73701" lon="5.00253">
        <ele>360.66</ele>
        <time>2021-12-13T08:22:10Z</time>
      </trkpt>
      <trkpt lat="47.73699" lon="5.00256">
        <ele>360.92</ele>
        <time>2021-12-13T08:22:13Z</time>
      </trkpt>
      <trkpt lat="47.73697" lon="5.0026">
        <ele>361.21</ele>
        <time>2021-12-13T08:22:16Z</time>
      </trkpt>
      <trkpt lat="47.73695" lon="5.00264">
        <ele>361.47</ele>
        <time>2021-12-13T08:22:19Z</time>
      </trkpt>
      <trkpt lat="47.73693" lon="5.00268">
        <ele>361.84</ele>
        <time>2021-12-13T08:22:22Z</time>
      </trkpt>
      <trkpt lat="47.7369" lon="5.00272">
        <ele>362.34</ele>
        <time>2021-12-13T08:22:25Z</time>
      </trkpt>
      <trkpt lat="47.73688" lon="5.00275">
        <ele>362.64</ele>
        <time>2021-12-13T08:22:27Z</time>
      </trkpt>
      <trkpt lat="47.73685" lon="5.00279">
        <ele>363.05</ele>
        <time>2021-12-13T08:22:30Z</time>
      </trkpt>
      <trkpt lat="47.73683" lon="5.00282">
        <ele>363.36</ele>
        <time>2021-12-13T08:22:34Z</time>
      </trkpt>
      <trkpt lat="47.7368" lon="5.00285">
        <ele>363.83</ele>
        <time>2021-12-13T08:22:37Z</time>
      </trkpt>
      <trkpt lat="47.73678" lon="5.00289">
        <ele>364.25</ele>
        <time>2021-12-13T08:22:40Z</time>
      </trkpt>
      <trkpt lat="47.73675" lon="5.00293">
        <ele>364.87</ele>
        <time>2021-12-13T08:22:42Z</time>
      </trkpt>
      <trkpt lat="47.73674" lon="5.00297">
        <ele>365.23</ele>
        <time>2021-12-13T08:22:44Z</time>
      </trkpt>
      <trkpt lat="47.73672" lon="5.003">
        <ele>365.72</ele>
        <time>2021-12-13T08:22:47Z</time>
      </trkpt>
      <trkpt lat="47.73669" lon="5.00305">
        <ele>366.54</ele>
        <time>2021-12-13T08:22:50Z</time>
      </trkpt>
      <trkpt lat="47.73667" lon="5.00308">
        <ele>366.77</ele>
        <time>2021-12-13T08:22:52Z</time>
      </trkpt>
      <trkpt lat="47.73666" lon="5.00312">
        <ele>366.47</ele>
        <time>2021-12-13T08:22:54Z</time>
      </trkpt>
      <trkpt lat="47.73664" lon="5.00316">
        <ele>366.08</ele>
        <time>2021-12-13T08:22:56Z</time>
      </trkpt>
      <trkpt lat="47.73662" lon="5.0032">
        <ele>365.81</ele>
        <time>2021-12-13T08:22:58Z</time>
      </trkpt>
      <trkpt lat="47.7366" lon="5.00323">
        <ele>365.69</ele>
        <time>2021-12-13T08:23:00Z</time>
      </trkpt>
      <trkpt lat="47.73658" lon="5.00327">
        <ele>365.65</ele>
        <time>2021-12-13T08:23:02Z</time>
      </trkpt>
      <trkpt lat="47.73656" lon="5.00331">
        <ele>365.74</ele>
        <time>2021-12-13T08:23:04Z</time>
      </trkpt>
      <trkpt lat="47.73654" lon="5.00335">
        <ele>365.91</ele>
        <time>2021-12-13T08:23:07Z</time>
      </trkpt>
      <trkpt lat="47.73651" lon="5.00339">
        <ele>366.15</ele>
        <time>2021-12-13T08:23:10Z</time>
      </trkpt>
      <trkpt lat="47.73649" lon="5.00343">
        <ele>366.37</ele>
        <time>2021-12-13T08:23:13Z</time>
      </trkpt>
      <trkpt lat="47.73646" lon="5.00348">
        <ele>366.75</ele>
        <time>2021-12-13T08:23:16Z</time>
      </trkpt>
      <trkpt lat="47.73644" lon="5.00352">
        <ele>367.06</ele>
        <time>2021-12-13T08:23:19Z</time>
      </trkpt>
      <trkpt lat="47.73642" lon="5.00356">
        <ele>367.41</ele>
        <time>2021-12-13T08:23:22Z</time>
      </trkpt>
      <trkpt lat="47.7364" lon="5.00361">
        <ele>367.84</ele>
        <time>2021-12-13T08:23:25Z</time>
      </trkpt>
      <trkpt lat="47.73638" lon="5.00366">
        <ele>368.07</ele>
        <time>2021-12-13T08:23:28Z</time>
      </trkpt>
      <trkpt lat="47.73637" lon="5.0037">
        <ele>368.16</ele>
        <time>2021-12-13T08:23:30Z</time>
      </trkpt>
      <trkpt lat="47.73635" lon="5.00373">
        <ele>368.34</ele>
        <time>2021-12-13T08:23:32Z</time>
      </trkpt>
      <trkpt lat="47.73633" lon="5.00377">
        <ele>368.55</ele>
        <time>2021-12-13T08:23:35Z</time>
      </trkpt>
      <trkpt lat="47.7363" lon="5.00381">
        <ele>368.87</ele>
        <time>2021-12-13T08:23:38Z</time>
      </trkpt>
      <trkpt lat="47.73628" lon="5.00386">
        <ele>369.14</ele>
        <time>2021-12-13T08:23:41Z</time>
      </trkpt>
      <trkpt lat="47.73627" lon="5.0039">
        <ele>369.24</ele>
        <time>2021-12-13T08:23:43Z</time>
      </trkpt>
      <trkpt lat="47.73625" lon="5.00394">
        <ele>369.32</ele>
        <time>2021-12-13T08:23:45Z</time>
      </trkpt>
      <trkpt lat="47.73624" lon="5.00397">
        <ele>369.32</ele>
        <time>2021-12-13T08:23:47Z</time>
      </trkpt>
      <trkpt lat="47.73622" lon="5.004">
        <ele>369.42</ele>
        <time>2021-12-13T08:23:49Z</time>
      </trkpt>
      <trkpt lat="47.73621" lon="5.00404">
        <ele>369.39</ele>
        <time>2021-12-13T08:23:51Z</time>
      </trkpt>
      <trkpt lat="47.73619" lon="5.00408">
        <ele>369.46</ele>
        <time>2021-12-13T08:23:53Z</time>
      </trkpt>
      <trkpt lat="47.73618" lon="5.00412">
        <ele>369.42</ele>
        <time>2021-12-13T08:23:55Z</time>
      </trkpt>
      <trkpt lat="47.73617" lon="5.00417">
        <ele>369.38</ele>
        <time>2021-12-13T08:23:58Z</time>
      </trkpt>
      <trkpt lat="47.73616" lon="5.00423">
        <ele>369.81</ele>
        <time>2021-12-13T08:24:01Z</time>
      </trkpt>
      <trkpt lat="47.73616" lon="5.00427">
        <ele>370.02</ele>
        <time>2021-12-13T08:24:03Z</time>
      </trkpt>
      <trkpt lat="47.73615" lon="5.00431">
        <ele>370.4</ele>
        <time>2021-12-13T08:24:05Z</time>
      </trkpt>
      <trkpt lat="47.73615" lon="5.00435">
        <ele>370.62</ele>
        <time>2021-12-13T08:24:07Z</time>
      </trkpt>
      <trkpt lat="47.73615" lon="5.0044">
        <ele>370.91</ele>
        <time>2021-12-13T08:24:09Z</time>
      </trkpt>
      <trkpt lat="47.73614" lon="5.00444">
        <ele>371.35</ele>
        <time>2021-12-13T08:24:11Z</time>
      </trkpt>
      <trkpt lat="47.73614" lon="5.00449">
        <ele>371.25</ele>
        <time>2021-12-13T08:24:14Z</time>
      </trkpt>
      <trkpt lat="47.73614" lon="5.00455">
        <ele>371.08</ele>
        <time>2021-12-13T08:24:17Z</time>
      </trkpt>
      <trkpt lat="47.73613" lon="5.0046">
        <ele>371.11</ele>
        <time>2021-12-13T08:24:19Z</time>
      </trkpt>
      <trkpt lat="47.73613" lon="5.00464">
        <ele>370.98</ele>
        <time>2021-12-13T08:24:21Z</time>
      </trkpt>
      <trkpt lat="47.73613" lon="5.00468">
        <ele>370.86</ele>
        <time>2021-12-13T08:24:23Z</time>
      </trkpt>
      <trkpt lat="47.73614" lon="5.00472">
        <ele>370.59</ele>
        <time>2021-12-13T08:24:25Z</time>
      </trkpt>
      <trkpt lat="47.73614" lon="5.00478">
        <ele>370.44</ele>
        <time>2021-12-13T08:24:28Z</time>
      </trkpt>
      <trkpt lat="47.73613" lon="5.00483">
        <ele>370.42</ele>
        <time>2021-12-13T08:24:31Z</time>
      </trkpt>
      <trkpt lat="47.73613" lon="5.00488">
        <ele>370.28</ele>
        <time>2021-12-13T08:24:34Z</time>
      </trkpt>
      <trkpt lat="47.73613" lon="5.00494">
        <ele>370.1</ele>
        <time>2021-12-13T08:24:37Z</time>
      </trkpt>
      <trkpt lat="47.73613" lon="5.00498">
        <ele>369.99</ele>
        <time>2021-12-13T08:24:39Z</time>
      </trkpt>
      <trkpt lat="47.73613" lon="5.00504">
        <ele>369.93</ele>
        <time>2021-12-13T08:24:42Z</time>
      </trkpt>
      <trkpt lat="47.73613" lon="5.00509">
        <ele>369.93</ele>
        <time>2021-12-13T08:24:45Z</time>
      </trkpt>
      <trkpt lat="47.73613" lon="5.00514">
        <ele>369.93</ele>
        <time>2021-12-13T08:24:48Z</time>
      </trkpt>
      <trkpt lat="47.73613" lon="5.00519">
        <ele>369.93</ele>
        <time>2021-12-13T08:24:51Z</time>
      </trkpt>
      <trkpt lat="47.73612" lon="5.00524">
        <ele>369.97</ele>
        <time>2021-12-13T08:24:53Z</time>
      </trkpt>
      <trkpt lat="47.73612" lon="5.00528">
        <ele>369.96</ele>
        <time>2021-12-13T08:24:55Z</time>
      </trkpt>
      <trkpt lat="47.73613" lon="5.00533">
        <ele>369.76</ele>
        <time>2021-12-13T08:24:57Z</time>
      </trkpt>
      <trkpt lat="47.73613" lon="5.00538">
        <ele>369.59</ele>
        <time>2021-12-13T08:25:00Z</time>
      </trkpt>
      <trkpt lat="47.73613" lon="5.00544">
        <ele>369.39</ele>
        <time>2021-12-13T08:25:03Z</time>
      </trkpt>
      <trkpt lat="47.73613" lon="5.0055">
        <ele>369.19</ele>
        <time>2021-12-13T08:25:06Z</time>
      </trkpt>
      <trkpt lat="47.73613" lon="5.00556">
        <ele>369.03</ele>
        <time>2021-12-13T08:25:09Z</time>
      </trkpt>
      <trkpt lat="47.73613" lon="5.00561">
        <ele>369.39</ele>
        <time>2021-12-13T08:25:12Z</time>
      </trkpt>
      <trkpt lat="47.73613" lon="5.00567">
        <ele>369.82</ele>
        <time>2021-12-13T08:25:15Z</time>
      </trkpt>
      <trkpt lat="47.73613" lon="5.00572">
        <ele>370.18</ele>
        <time>2021-12-13T08:25:18Z</time>
      </trkpt>
      <trkpt lat="47.73613" lon="5.00577">
        <ele>370.54</ele>
        <time>2021-12-13T08:25:21Z</time>
      </trkpt>
      <trkpt lat="47.73613" lon="5.00583">
        <ele>370.98</ele>
        <time>2021-12-13T08:25:24Z</time>
      </trkpt>
      <trkpt lat="47.73614" lon="5.00587">
        <ele>371.12</ele>
        <time>2021-12-13T08:25:27Z</time>
      </trkpt>
      <trkpt lat="47.73614" lon="5.00593">
        <ele>371.31</ele>
        <time>2021-12-13T08:25:30Z</time>
      </trkpt>
      <trkpt lat="47.73614" lon="5.00599">
        <ele>371.51</ele>
        <time>2021-12-13T08:25:33Z</time>
      </trkpt>
      <trkpt lat="47.73614" lon="5.00605">
        <ele>371.7</ele>
        <time>2021-12-13T08:25:36Z</time>
      </trkpt>
      <trkpt lat="47.73614" lon="5.00611">
        <ele>371.89</ele>
        <time>2021-12-13T08:25:39Z</time>
      </trkpt>
      <trkpt lat="47.73614" lon="5.00615">
        <ele>371.91</ele>
        <time>2021-12-13T08:25:41Z</time>
      </trkpt>
      <trkpt lat="47.73613" lon="5.00619">
        <ele>371.95</ele>
        <time>2021-12-13T08:25:43Z</time>
      </trkpt>
      <trkpt lat="47.73613" lon="5.00625">
        <ele>371.97</ele>
        <time>2021-12-13T08:25:46Z</time>
      </trkpt>
      <trkpt lat="47.73613" lon="5.0063">
        <ele>371.98</ele>
        <time>2021-12-13T08:25:49Z</time>
      </trkpt>
      <trkpt lat="47.73613" lon="5.00636">
        <ele>371.99</ele>
        <time>2021-12-13T08:25:52Z</time>
      </trkpt>
      <trkpt lat="47.73613" lon="5.0064">
        <ele>372</ele>
        <time>2021-12-13T08:25:54Z</time>
      </trkpt>
      <trkpt lat="47.73613" lon="5.00645">
        <ele>372.01</ele>
        <time>2021-12-13T08:25:57Z</time>
      </trkpt>
      <trkpt lat="47.73612" lon="5.0065">
        <ele>372.01</ele>
        <time>2021-12-13T08:26:00Z</time>
      </trkpt>
      <trkpt lat="47.73612" lon="5.00654">
        <ele>372.02</ele>
        <time>2021-12-13T08:26:02Z</time>
      </trkpt>
      <trkpt lat="47.73612" lon="5.00659">
        <ele>372.02</ele>
        <time>2021-12-13T08:26:04Z</time>
      </trkpt>
      <trkpt lat="47.73611" lon="5.00663">
        <ele>372.01</ele>
        <time>2021-12-13T08:26:06Z</time>
      </trkpt>
      <trkpt lat="47.73611" lon="5.00667">
        <ele>372.02</ele>
        <time>2021-12-13T08:26:08Z</time>
      </trkpt>
      <trkpt lat="47.73611" lon="5.00672">
        <ele>372.2</ele>
        <time>2021-12-13T08:26:11Z</time>
      </trkpt>
      <trkpt lat="47.7361" lon="5.00678">
        <ele>372.44</ele>
        <time>2021-12-13T08:26:14Z</time>
      </trkpt>
      <trkpt lat="47.73609" lon="5.00683">
        <ele>372.61</ele>
        <time>2021-12-13T08:26:17Z</time>
      </trkpt>
      <trkpt lat="47.73608" lon="5.00688">
        <ele>372.73</ele>
        <time>2021-12-13T08:26:20Z</time>
      </trkpt>
      <trkpt lat="47.73608" lon="5.00693">
        <ele>372.85</ele>
        <time>2021-12-13T08:26:23Z</time>
      </trkpt>
      <trkpt lat="47.73607" lon="5.00699">
        <ele>372.9</ele>
        <time>2021-12-13T08:26:26Z</time>
      </trkpt>
      <trkpt lat="47.73606" lon="5.00703">
        <ele>372.93</ele>
        <time>2021-12-13T08:26:28Z</time>
      </trkpt>
      <trkpt lat="47.73606" lon="5.00707">
        <ele>372.98</ele>
        <time>2021-12-13T08:26:30Z</time>
      </trkpt>
      <trkpt lat="47.73605" lon="5.00713">
        <ele>373.07</ele>
        <time>2021-12-13T08:26:33Z</time>
      </trkpt>
      <trkpt lat="47.73605" lon="5.00719">
        <ele>373.17</ele>
        <time>2021-12-13T08:26:36Z</time>
      </trkpt>
      <trkpt lat="47.73604" lon="5.00723">
        <ele>373.25</ele>
        <time>2021-12-13T08:26:38Z</time>
      </trkpt>
      <trkpt lat="47.73604" lon="5.00727">
        <ele>373.21</ele>
        <time>2021-12-13T08:26:40Z</time>
      </trkpt>
      <trkpt lat="47.73604" lon="5.00732">
        <ele>373.17</ele>
        <time>2021-12-13T08:26:43Z</time>
      </trkpt>
      <trkpt lat="47.73603" lon="5.00737">
        <ele>373.14</ele>
        <time>2021-12-13T08:26:46Z</time>
      </trkpt>
      <trkpt lat="47.73602" lon="5.00741">
        <ele>373.11</ele>
        <time>2021-12-13T08:26:48Z</time>
      </trkpt>
      <trkpt lat="47.73601" lon="5.00745">
        <ele>373.07</ele>
        <time>2021-12-13T08:26:50Z</time>
      </trkpt>
      <trkpt lat="47.736" lon="5.0075">
        <ele>373</ele>
        <time>2021-12-13T08:26:52Z</time>
      </trkpt>
      <trkpt lat="47.73599" lon="5.00753">
        <ele>373.06</ele>
        <time>2021-12-13T08:26:54Z</time>
      </trkpt>
      <trkpt lat="47.73598" lon="5.00758">
        <ele>373.15</ele>
        <time>2021-12-13T08:26:57Z</time>
      </trkpt>
      <trkpt lat="47.73597" lon="5.00763">
        <ele>373.23</ele>
        <time>2021-12-13T08:27:00Z</time>
      </trkpt>
      <trkpt lat="47.73596" lon="5.00768">
        <ele>373.3</ele>
        <time>2021-12-13T08:27:03Z</time>
      </trkpt>
      <trkpt lat="47.73595" lon="5.00772">
        <ele>373.33</ele>
        <time>2021-12-13T08:27:06Z</time>
      </trkpt>
      <trkpt lat="47.73594" lon="5.00777">
        <ele>373.37</ele>
        <time>2021-12-13T08:27:09Z</time>
      </trkpt>
      <trkpt lat="47.73592" lon="5.00783">
        <ele>373.37</ele>
        <time>2021-12-13T08:27:12Z</time>
      </trkpt>
      <trkpt lat="47.7359" lon="5.00788">
        <ele>373.33</ele>
        <time>2021-12-13T08:27:15Z</time>
      </trkpt>
      <trkpt lat="47.73588" lon="5.00793">
        <ele>373.26</ele>
        <time>2021-12-13T08:27:18Z</time>
      </trkpt>
      <trkpt lat="47.73586" lon="5.00797">
        <ele>373.16</ele>
        <time>2021-12-13T08:27:21Z</time>
      </trkpt>
      <trkpt lat="47.73585" lon="5.00801">
        <ele>373.11</ele>
        <time>2021-12-13T08:27:23Z</time>
      </trkpt>
      <trkpt lat="47.73583" lon="5.00806">
        <ele>373.03</ele>
        <time>2021-12-13T08:27:26Z</time>
      </trkpt>
      <trkpt lat="47.73582" lon="5.0081">
        <ele>373.19</ele>
        <time>2021-12-13T08:27:29Z</time>
      </trkpt>
      <trkpt lat="47.7358" lon="5.00815">
        <ele>373.38</ele>
        <time>2021-12-13T08:27:32Z</time>
      </trkpt>
      <trkpt lat="47.73579" lon="5.0082">
        <ele>373.51</ele>
        <time>2021-12-13T08:27:35Z</time>
      </trkpt>
      <trkpt lat="47.73578" lon="5.00826">
        <ele>373.65</ele>
        <time>2021-12-13T08:27:38Z</time>
      </trkpt>
      <trkpt lat="47.73577" lon="5.0083">
        <ele>373.71</ele>
        <time>2021-12-13T08:27:40Z</time>
      </trkpt>
      <trkpt lat="47.73576" lon="5.00834">
        <ele>373.74</ele>
        <time>2021-12-13T08:27:42Z</time>
      </trkpt>
      <trkpt lat="47.73575" lon="5.00837">
        <ele>373.74</ele>
        <time>2021-12-13T08:27:44Z</time>
      </trkpt>
      <trkpt lat="47.73573" lon="5.00842">
        <ele>373.74</ele>
        <time>2021-12-13T08:27:47Z</time>
      </trkpt>
      <trkpt lat="47.73571" lon="5.00847">
        <ele>373.77</ele>
        <time>2021-12-13T08:27:50Z</time>
      </trkpt>
      <trkpt lat="47.7357" lon="5.00852">
        <ele>373.84</ele>
        <time>2021-12-13T08:27:53Z</time>
      </trkpt>
      <trkpt lat="47.73568" lon="5.00857">
        <ele>373.92</ele>
        <time>2021-12-13T08:27:56Z</time>
      </trkpt>
      <trkpt lat="47.73567" lon="5.00862">
        <ele>373.99</ele>
        <time>2021-12-13T08:27:59Z</time>
      </trkpt>
      <trkpt lat="47.73565" lon="5.00867">
        <ele>373.93</ele>
        <time>2021-12-13T08:28:02Z</time>
      </trkpt>
      <trkpt lat="47.73564" lon="5.00871">
        <ele>373.89</ele>
        <time>2021-12-13T08:28:05Z</time>
      </trkpt>
      <trkpt lat="47.73562" lon="5.00876">
        <ele>373.88</ele>
        <time>2021-12-13T08:28:08Z</time>
      </trkpt>
      <trkpt lat="47.73561" lon="5.0088">
        <ele>373.87</ele>
        <time>2021-12-13T08:28:10Z</time>
      </trkpt>
      <trkpt lat="47.7356" lon="5.00885">
        <ele>373.86</ele>
        <time>2021-12-13T08:28:13Z</time>
      </trkpt>
      <trkpt lat="47.73558" lon="5.0089">
        <ele>373.98</ele>
        <time>2021-12-13T08:28:16Z</time>
      </trkpt>
      <trkpt lat="47.73556" lon="5.00895">
        <ele>374.42</ele>
        <time>2021-12-13T08:28:19Z</time>
      </trkpt>
      <trkpt lat="47.73555" lon="5.00901">
        <ele>374.93</ele>
        <time>2021-12-13T08:28:22Z</time>
      </trkpt>
      <trkpt lat="47.73554" lon="5.00906">
        <ele>375.35</ele>
        <time>2021-12-13T08:28:25Z</time>
      </trkpt>
      <trkpt lat="47.73553" lon="5.00911">
        <ele>375.74</ele>
        <time>2021-12-13T08:28:28Z</time>
      </trkpt>
      <trkpt lat="47.73552" lon="5.00916">
        <ele>376.09</ele>
        <time>2021-12-13T08:28:31Z</time>
      </trkpt>
      <trkpt lat="47.7355" lon="5.00922">
        <ele>376.39</ele>
        <time>2021-12-13T08:28:34Z</time>
      </trkpt>
      <trkpt lat="47.73549" lon="5.00927">
        <ele>376.61</ele>
        <time>2021-12-13T08:28:37Z</time>
      </trkpt>
      <trkpt lat="47.73547" lon="5.00932">
        <ele>376.86</ele>
        <time>2021-12-13T08:28:40Z</time>
      </trkpt>
      <trkpt lat="47.73546" lon="5.00936">
        <ele>377.04</ele>
        <time>2021-12-13T08:28:43Z</time>
      </trkpt>
      <trkpt lat="47.73544" lon="5.00941">
        <ele>377.29</ele>
        <time>2021-12-13T08:28:46Z</time>
      </trkpt>
      <trkpt lat="47.73543" lon="5.00946">
        <ele>377.42</ele>
        <time>2021-12-13T08:28:49Z</time>
      </trkpt>
      <trkpt lat="47.73541" lon="5.00951">
        <ele>377.41</ele>
        <time>2021-12-13T08:28:52Z</time>
      </trkpt>
      <trkpt lat="47.7354" lon="5.00957">
        <ele>377.36</ele>
        <time>2021-12-13T08:28:55Z</time>
      </trkpt>
      <trkpt lat="47.7354" lon="5.00961">
        <ele>377.3</ele>
        <time>2021-12-13T08:28:57Z</time>
      </trkpt>
      <trkpt lat="47.73539" lon="5.00965">
        <ele>377.3</ele>
        <time>2021-12-13T08:28:59Z</time>
      </trkpt>
      <trkpt lat="47.73539" lon="5.00969">
        <ele>377.24</ele>
        <time>2021-12-13T08:29:01Z</time>
      </trkpt>
      <trkpt lat="47.73538" lon="5.00974">
        <ele>377.24</ele>
        <time>2021-12-13T08:29:04Z</time>
      </trkpt>
      <trkpt lat="47.73537" lon="5.00979">
        <ele>377.25</ele>
        <time>2021-12-13T08:29:07Z</time>
      </trkpt>
      <trkpt lat="47.73536" lon="5.00984">
        <ele>377.28</ele>
        <time>2021-12-13T08:29:10Z</time>
      </trkpt>
      <trkpt lat="47.73535" lon="5.0099">
        <ele>377.31</ele>
        <time>2021-12-13T08:29:13Z</time>
      </trkpt>
      <trkpt lat="47.73534" lon="5.00995">
        <ele>377.37</ele>
        <time>2021-12-13T08:29:16Z</time>
      </trkpt>
      <trkpt lat="47.73533" lon="5.01">
        <ele>377.44</ele>
        <time>2021-12-13T08:29:19Z</time>
      </trkpt>
      <trkpt lat="47.73532" lon="5.01006">
        <ele>377.36</ele>
        <time>2021-12-13T08:29:22Z</time>
      </trkpt>
      <trkpt lat="47.73532" lon="5.01012">
        <ele>377.18</ele>
        <time>2021-12-13T08:29:25Z</time>
      </trkpt>
      <trkpt lat="47.73531" lon="5.01018">
        <ele>377.08</ele>
        <time>2021-12-13T08:29:28Z</time>
      </trkpt>
      <trkpt lat="47.73531" lon="5.01023">
        <ele>376.92</ele>
        <time>2021-12-13T08:29:31Z</time>
      </trkpt>
      <trkpt lat="47.7353" lon="5.01029">
        <ele>376.85</ele>
        <time>2021-12-13T08:29:34Z</time>
      </trkpt>
      <trkpt lat="47.7353" lon="5.01035">
        <ele>376.88</ele>
        <time>2021-12-13T08:29:37Z</time>
      </trkpt>
      <trkpt lat="47.73529" lon="5.01039">
        <ele>376.95</ele>
        <time>2021-12-13T08:29:39Z</time>
      </trkpt>
      <trkpt lat="47.73529" lon="5.01045">
        <ele>376.97</ele>
        <time>2021-12-13T08:29:42Z</time>
      </trkpt>
      <trkpt lat="47.73529" lon="5.0105">
        <ele>376.98</ele>
        <time>2021-12-13T08:29:45Z</time>
      </trkpt>
      <trkpt lat="47.73529" lon="5.01056">
        <ele>376.97</ele>
        <time>2021-12-13T08:29:48Z</time>
      </trkpt>
      <trkpt lat="47.73528" lon="5.01061">
        <ele>376.61</ele>
        <time>2021-12-13T08:29:51Z</time>
      </trkpt>
      <trkpt lat="47.73527" lon="5.01066">
        <ele>376.31</ele>
        <time>2021-12-13T08:29:54Z</time>
      </trkpt>
      <trkpt lat="47.73525" lon="5.01071">
        <ele>376.08</ele>
        <time>2021-12-13T08:29:57Z</time>
      </trkpt>
      <trkpt lat="47.73525" lon="5.01075">
        <ele>375.76</ele>
        <time>2021-12-13T08:29:59Z</time>
      </trkpt>
      <trkpt lat="47.73524" lon="5.01079">
        <ele>375.49</ele>
        <time>2021-12-13T08:30:01Z</time>
      </trkpt>
      <trkpt lat="47.73523" lon="5.01083">
        <ele>375.2</ele>
        <time>2021-12-13T08:30:03Z</time>
      </trkpt>
      <trkpt lat="47.73522" lon="5.01089">
        <ele>375.21</ele>
        <time>2021-12-13T08:30:06Z</time>
      </trkpt>
      <trkpt lat="47.73521" lon="5.01092">
        <ele>375.24</ele>
        <time>2021-12-13T08:30:08Z</time>
      </trkpt>
      <trkpt lat="47.7352" lon="5.01097">
        <ele>375.28</ele>
        <time>2021-12-13T08:30:10Z</time>
      </trkpt>
      <trkpt lat="47.73519" lon="5.01101">
        <ele>375.32</ele>
        <time>2021-12-13T08:30:12Z</time>
      </trkpt>
      <trkpt lat="47.73518" lon="5.01105">
        <ele>375.35</ele>
        <time>2021-12-13T08:30:14Z</time>
      </trkpt>
      <trkpt lat="47.73517" lon="5.01108">
        <ele>375.39</ele>
        <time>2021-12-13T08:30:16Z</time>
      </trkpt>
      <trkpt lat="47.73516" lon="5.01112">
        <ele>375.52</ele>
        <time>2021-12-13T08:30:18Z</time>
      </trkpt>
      <trkpt lat="47.73515" lon="5.01116">
        <ele>376</ele>
        <time>2021-12-13T08:30:20Z</time>
      </trkpt>
      <trkpt lat="47.73514" lon="5.0112">
        <ele>376.46</ele>
        <time>2021-12-13T08:30:23Z</time>
      </trkpt>
      <trkpt lat="47.73512" lon="5.01125">
        <ele>377</ele>
        <time>2021-12-13T08:30:26Z</time>
      </trkpt>
      <trkpt lat="47.7351" lon="5.01129">
        <ele>377.39</ele>
        <time>2021-12-13T08:30:29Z</time>
      </trkpt>
      <trkpt lat="47.73508" lon="5.01132">
        <ele>377.65</ele>
        <time>2021-12-13T08:30:32Z</time>
      </trkpt>
      <trkpt lat="47.73506" lon="5.01136">
        <ele>377.96</ele>
        <time>2021-12-13T08:30:35Z</time>
      </trkpt>
      <trkpt lat="47.73504" lon="5.0114">
        <ele>378.15</ele>
        <time>2021-12-13T08:30:38Z</time>
      </trkpt>
      <trkpt lat="47.73503" lon="5.01144">
        <ele>378.13</ele>
        <time>2021-12-13T08:30:40Z</time>
      </trkpt>
      <trkpt lat="47.73501" lon="5.01147">
        <ele>378.05</ele>
        <time>2021-12-13T08:30:42Z</time>
      </trkpt>
      <trkpt lat="47.73499" lon="5.01152">
        <ele>377.96</ele>
        <time>2021-12-13T08:30:45Z</time>
      </trkpt>
      <trkpt lat="47.73498" lon="5.01156">
        <ele>377.93</ele>
        <time>2021-12-13T08:30:47Z</time>
      </trkpt>
      <trkpt lat="47.73497" lon="5.0116">
        <ele>377.89</ele>
        <time>2021-12-13T08:30:49Z</time>
      </trkpt>
      <trkpt lat="47.73495" lon="5.01164">
        <ele>377.82</ele>
        <time>2021-12-13T08:30:51Z</time>
      </trkpt>
      <trkpt lat="47.73494" lon="5.01168">
        <ele>377.78</ele>
        <time>2021-12-13T08:30:53Z</time>
      </trkpt>
      <trkpt lat="47.73492" lon="5.01173">
        <ele>377.71</ele>
        <time>2021-12-13T08:30:56Z</time>
      </trkpt>
      <trkpt lat="47.73491" lon="5.01177">
        <ele>377.68</ele>
        <time>2021-12-13T08:30:59Z</time>
      </trkpt>
      <trkpt lat="47.73489" lon="5.01181">
        <ele>377.6</ele>
        <time>2021-12-13T08:31:02Z</time>
      </trkpt>
      <trkpt lat="47.73487" lon="5.01186">
        <ele>377.53</ele>
        <time>2021-12-13T08:31:05Z</time>
      </trkpt>
      <trkpt lat="47.73485" lon="5.0119">
        <ele>377.46</ele>
        <time>2021-12-13T08:31:08Z</time>
      </trkpt>
      <trkpt lat="47.73483" lon="5.01194">
        <ele>377.39</ele>
        <time>2021-12-13T08:31:10Z</time>
      </trkpt>
      <trkpt lat="47.73482" lon="5.01197">
        <ele>377.35</ele>
        <time>2021-12-13T08:31:12Z</time>
      </trkpt>
      <trkpt lat="47.7348" lon="5.01201">
        <ele>377.28</ele>
        <time>2021-12-13T08:31:14Z</time>
      </trkpt>
      <trkpt lat="47.73479" lon="5.01206">
        <ele>377.24</ele>
        <time>2021-12-13T08:31:17Z</time>
      </trkpt>
      <trkpt lat="47.73477" lon="5.01211">
        <ele>377.17</ele>
        <time>2021-12-13T08:31:20Z</time>
      </trkpt>
      <trkpt lat="47.73476" lon="5.01217">
        <ele>377.14</ele>
        <time>2021-12-13T08:31:23Z</time>
      </trkpt>
      <trkpt lat="47.73474" lon="5.01222">
        <ele>377.06</ele>
        <time>2021-12-13T08:31:26Z</time>
      </trkpt>
      <trkpt lat="47.73472" lon="5.01226">
        <ele>377.01</ele>
        <time>2021-12-13T08:31:29Z</time>
      </trkpt>
      <trkpt lat="47.7347" lon="5.01231">
        <ele>377.03</ele>
        <time>2021-12-13T08:31:32Z</time>
      </trkpt>
      <trkpt lat="47.73468" lon="5.01236">
        <ele>377</ele>
        <time>2021-12-13T08:31:35Z</time>
      </trkpt>
      <trkpt lat="47.73467" lon="5.01241">
        <ele>376.93</ele>
        <time>2021-12-13T08:31:38Z</time>
      </trkpt>
      <trkpt lat="47.73465" lon="5.01245">
        <ele>376.83</ele>
        <time>2021-12-13T08:31:41Z</time>
      </trkpt>
      <trkpt lat="47.73463" lon="5.01251">
        <ele>376.73</ele>
        <time>2021-12-13T08:31:44Z</time>
      </trkpt>
      <trkpt lat="47.73461" lon="5.01256">
        <ele>376.99</ele>
        <time>2021-12-13T08:31:47Z</time>
      </trkpt>
      <trkpt lat="47.7346" lon="5.01259">
        <ele>377.17</ele>
        <time>2021-12-13T08:31:49Z</time>
      </trkpt>
      <trkpt lat="47.73458" lon="5.01263">
        <ele>377.44</ele>
        <time>2021-12-13T08:31:51Z</time>
      </trkpt>
      <trkpt lat="47.73457" lon="5.01266">
        <ele>377.66</ele>
        <time>2021-12-13T08:31:53Z</time>
      </trkpt>
      <trkpt lat="47.73455" lon="5.0127">
        <ele>377.99</ele>
        <time>2021-12-13T08:31:55Z</time>
      </trkpt>
      <trkpt lat="47.73454" lon="5.01274">
        <ele>378.34</ele>
        <time>2021-12-13T08:31:57Z</time>
      </trkpt>
      <trkpt lat="47.73453" lon="5.01278">
        <ele>378.68</ele>
        <time>2021-12-13T08:31:59Z</time>
      </trkpt>
      <trkpt lat="47.7345" lon="5.01283">
        <ele>378.42</ele>
        <time>2021-12-13T08:32:02Z</time>
      </trkpt>
      <trkpt lat="47.73449" lon="5.01287">
        <ele>378.11</ele>
        <time>2021-12-13T08:32:05Z</time>
      </trkpt>
      <trkpt lat="47.73447" lon="5.01291">
        <ele>377.7</ele>
        <time>2021-12-13T08:32:08Z</time>
      </trkpt>
      <trkpt lat="47.73446" lon="5.01295">
        <ele>377.26</ele>
        <time>2021-12-13T08:32:11Z</time>
      </trkpt>
      <trkpt lat="47.73445" lon="5.01299">
        <ele>376.76</ele>
        <time>2021-12-13T08:32:14Z</time>
      </trkpt>
      <trkpt lat="47.73443" lon="5.01304">
        <ele>376.22</ele>
        <time>2021-12-13T08:32:17Z</time>
      </trkpt>
      <trkpt lat="47.73442" lon="5.01309">
        <ele>376.21</ele>
        <time>2021-12-13T08:32:20Z</time>
      </trkpt>
      <trkpt lat="47.7344" lon="5.01314">
        <ele>376.46</ele>
        <time>2021-12-13T08:32:23Z</time>
      </trkpt>
      <trkpt lat="47.73439" lon="5.01318">
        <ele>376.64</ele>
        <time>2021-12-13T08:32:25Z</time>
      </trkpt>
      <trkpt lat="47.73438" lon="5.01322">
        <ele>376.82</ele>
        <time>2021-12-13T08:32:27Z</time>
      </trkpt>
      <trkpt lat="47.73436" lon="5.01327">
        <ele>377.08</ele>
        <time>2021-12-13T08:32:30Z</time>
      </trkpt>
      <trkpt lat="47.73434" lon="5.0133">
        <ele>377.26</ele>
        <time>2021-12-13T08:32:32Z</time>
      </trkpt>
      <trkpt lat="47.73432" lon="5.01334">
        <ele>377.47</ele>
        <time>2021-12-13T08:32:34Z</time>
      </trkpt>
      <trkpt lat="47.73431" lon="5.01339">
        <ele>377.69</ele>
        <time>2021-12-13T08:32:37Z</time>
      </trkpt>
      <trkpt lat="47.73429" lon="5.01344">
        <ele>377.9</ele>
        <time>2021-12-13T08:32:40Z</time>
      </trkpt>
      <trkpt lat="47.73428" lon="5.01348">
        <ele>378.02</ele>
        <time>2021-12-13T08:32:42Z</time>
      </trkpt>
      <trkpt lat="47.73426" lon="5.01352">
        <ele>378.12</ele>
        <time>2021-12-13T08:32:44Z</time>
      </trkpt>
      <trkpt lat="47.73425" lon="5.01356">
        <ele>378.19</ele>
        <time>2021-12-13T08:32:46Z</time>
      </trkpt>
      <trkpt lat="47.73424" lon="5.0136">
        <ele>378.24</ele>
        <time>2021-12-13T08:32:49Z</time>
      </trkpt>
      <trkpt lat="47.73423" lon="5.01364">
        <ele>378.38</ele>
        <time>2021-12-13T08:32:52Z</time>
      </trkpt>
      <trkpt lat="47.73421" lon="5.01369">
        <ele>378.53</ele>
        <time>2021-12-13T08:32:55Z</time>
      </trkpt>
      <trkpt lat="47.7342" lon="5.01373">
        <ele>378.65</ele>
        <time>2021-12-13T08:32:57Z</time>
      </trkpt>
      <trkpt lat="47.73418" lon="5.01377">
        <ele>378.67</ele>
        <time>2021-12-13T08:32:59Z</time>
      </trkpt>
      <trkpt lat="47.73417" lon="5.01381">
        <ele>378.75</ele>
        <time>2021-12-13T08:33:01Z</time>
      </trkpt>
      <trkpt lat="47.73416" lon="5.01386">
        <ele>378.88</ele>
        <time>2021-12-13T08:33:04Z</time>
      </trkpt>
      <trkpt lat="47.73414" lon="5.01391">
        <ele>379.05</ele>
        <time>2021-12-13T08:33:07Z</time>
      </trkpt>
      <trkpt lat="47.73413" lon="5.01395">
        <ele>379.28</ele>
        <time>2021-12-13T08:33:09Z</time>
      </trkpt>
      <trkpt lat="47.73412" lon="5.01399">
        <ele>379.5</ele>
        <time>2021-12-13T08:33:11Z</time>
      </trkpt>
      <trkpt lat="47.7341" lon="5.01404">
        <ele>379.72</ele>
        <time>2021-12-13T08:33:14Z</time>
      </trkpt>
      <trkpt lat="47.73409" lon="5.01409">
        <ele>379.97</ele>
        <time>2021-12-13T08:33:17Z</time>
      </trkpt>
      <trkpt lat="47.73407" lon="5.01414">
        <ele>380.15</ele>
        <time>2021-12-13T08:33:20Z</time>
      </trkpt>
      <trkpt lat="47.73405" lon="5.01418">
        <ele>380.3</ele>
        <time>2021-12-13T08:33:22Z</time>
      </trkpt>
      <trkpt lat="47.73403" lon="5.01422">
        <ele>380.59</ele>
        <time>2021-12-13T08:33:24Z</time>
      </trkpt>
      <trkpt lat="47.73401" lon="5.01426">
        <ele>380.88</ele>
        <time>2021-12-13T08:33:26Z</time>
      </trkpt>
      <trkpt lat="47.73399" lon="5.0143">
        <ele>381.17</ele>
        <time>2021-12-13T08:33:29Z</time>
      </trkpt>
      <trkpt lat="47.73397" lon="5.01435">
        <ele>381.56</ele>
        <time>2021-12-13T08:33:32Z</time>
      </trkpt>
      <trkpt lat="47.73395" lon="5.0144">
        <ele>381.96</ele>
        <time>2021-12-13T08:33:35Z</time>
      </trkpt>
      <trkpt lat="47.73392" lon="5.01444">
        <ele>382.18</ele>
        <time>2021-12-13T08:33:38Z</time>
      </trkpt>
      <trkpt lat="47.7339" lon="5.01448">
        <ele>382.58</ele>
        <time>2021-12-13T08:33:41Z</time>
      </trkpt>
      <trkpt lat="47.73388" lon="5.01451">
        <ele>382.79</ele>
        <time>2021-12-13T08:33:43Z</time>
      </trkpt>
      <trkpt lat="47.73386" lon="5.01454">
        <ele>382.85</ele>
        <time>2021-12-13T08:33:45Z</time>
      </trkpt>
      <trkpt lat="47.73384" lon="5.01457">
        <ele>382.87</ele>
        <time>2021-12-13T08:33:47Z</time>
      </trkpt>
      <trkpt lat="47.73381" lon="5.0146">
        <ele>382.63</ele>
        <time>2021-12-13T08:33:50Z</time>
      </trkpt>
      <trkpt lat="47.73379" lon="5.01463">
        <ele>382.53</ele>
        <time>2021-12-13T08:33:53Z</time>
      </trkpt>
      <trkpt lat="47.73376" lon="5.01467">
        <ele>382.26</ele>
        <time>2021-12-13T08:33:56Z</time>
      </trkpt>
      <trkpt lat="47.73373" lon="5.01471">
        <ele>381.9</ele>
        <time>2021-12-13T08:33:59Z</time>
      </trkpt>
      <trkpt lat="47.73371" lon="5.01473">
        <ele>381.59</ele>
        <time>2021-12-13T08:34:01Z</time>
      </trkpt>
      <trkpt lat="47.73368" lon="5.01476">
        <ele>381.18</ele>
        <time>2021-12-13T08:34:03Z</time>
      </trkpt>
      <trkpt lat="47.73366" lon="5.01478">
        <ele>380.89</ele>
        <time>2021-12-13T08:34:05Z</time>
      </trkpt>
      <trkpt lat="47.73363" lon="5.01482">
        <ele>380.56</ele>
        <time>2021-12-13T08:34:08Z</time>
      </trkpt>
      <trkpt lat="47.73361" lon="5.01485">
        <ele>380.37</ele>
        <time>2021-12-13T08:34:10Z</time>
      </trkpt>
      <trkpt lat="47.73359" lon="5.01488">
        <ele>380.44</ele>
        <time>2021-12-13T08:34:12Z</time>
      </trkpt>
      <trkpt lat="47.73356" lon="5.01492">
        <ele>380.35</ele>
        <time>2021-12-13T08:34:15Z</time>
      </trkpt>
      <trkpt lat="47.73353" lon="5.01495">
        <ele>380.02</ele>
        <time>2021-12-13T08:34:18Z</time>
      </trkpt>
      <trkpt lat="47.7335" lon="5.01499">
        <ele>379.58</ele>
        <time>2021-12-13T08:34:21Z</time>
      </trkpt>
      <trkpt lat="47.73348" lon="5.01502">
        <ele>379.39</ele>
        <time>2021-12-13T08:34:23Z</time>
      </trkpt>
      <trkpt lat="47.73346" lon="5.01505">
        <ele>379.26</ele>
        <time>2021-12-13T08:34:25Z</time>
      </trkpt>
      <trkpt lat="47.73343" lon="5.01508">
        <ele>378.86</ele>
        <time>2021-12-13T08:34:27Z</time>
      </trkpt>
      <trkpt lat="47.73341" lon="5.01512">
        <ele>378.76</ele>
        <time>2021-12-13T08:34:30Z</time>
      </trkpt>
      <trkpt lat="47.73338" lon="5.01516">
        <ele>378.35</ele>
        <time>2021-12-13T08:34:33Z</time>
      </trkpt>
      <trkpt lat="47.73335" lon="5.01521">
        <ele>377.96</ele>
        <time>2021-12-13T08:34:36Z</time>
      </trkpt>
      <trkpt lat="47.73333" lon="5.01523">
        <ele>377.65</ele>
        <time>2021-12-13T08:34:38Z</time>
      </trkpt>
      <trkpt lat="47.7333" lon="5.01527">
        <ele>377.83</ele>
        <time>2021-12-13T08:34:41Z</time>
      </trkpt>
      <trkpt lat="47.73327" lon="5.0153">
        <ele>377.96</ele>
        <time>2021-12-13T08:34:43Z</time>
      </trkpt>
      <trkpt lat="47.73325" lon="5.01532">
        <ele>378.02</ele>
        <time>2021-12-13T08:34:45Z</time>
      </trkpt>
      <trkpt lat="47.73322" lon="5.01536">
        <ele>378.12</ele>
        <time>2021-12-13T08:34:48Z</time>
      </trkpt>
      <trkpt lat="47.7332" lon="5.01539">
        <ele>378.15</ele>
        <time>2021-12-13T08:34:51Z</time>
      </trkpt>
      <trkpt lat="47.73317" lon="5.01542">
        <ele>378.04</ele>
        <time>2021-12-13T08:34:54Z</time>
      </trkpt>
      <trkpt lat="47.73314" lon="5.01545">
        <ele>377.87</ele>
        <time>2021-12-13T08:34:56Z</time>
      </trkpt>
      <trkpt lat="47.73312" lon="5.01548">
        <ele>377.74</ele>
        <time>2021-12-13T08:34:58Z</time>
      </trkpt>
      <trkpt lat="47.7331" lon="5.01552">
        <ele>377.58</ele>
        <time>2021-12-13T08:35:00Z</time>
      </trkpt>
      <trkpt lat="47.73307" lon="5.01554">
        <ele>377.2</ele>
        <time>2021-12-13T08:35:02Z</time>
      </trkpt>
      <trkpt lat="47.73305" lon="5.01557">
        <ele>377.07</ele>
        <time>2021-12-13T08:35:04Z</time>
      </trkpt>
      <trkpt lat="47.73304" lon="5.0156">
        <ele>377.2</ele>
        <time>2021-12-13T08:35:06Z</time>
      </trkpt>
      <trkpt lat="47.73301" lon="5.01564">
        <ele>377.37</ele>
        <time>2021-12-13T08:35:09Z</time>
      </trkpt>
      <trkpt lat="47.73298" lon="5.01568">
        <ele>377.48</ele>
        <time>2021-12-13T08:35:12Z</time>
      </trkpt>
      <trkpt lat="47.73296" lon="5.01571">
        <ele>377.52</ele>
        <time>2021-12-13T08:35:14Z</time>
      </trkpt>
      <trkpt lat="47.73294" lon="5.01574">
        <ele>377.53</ele>
        <time>2021-12-13T08:35:16Z</time>
      </trkpt>
      <trkpt lat="47.73291" lon="5.01577">
        <ele>377.49</ele>
        <time>2021-12-13T08:35:18Z</time>
      </trkpt>
      <trkpt lat="47.73289" lon="5.0158">
        <ele>377.43</ele>
        <time>2021-12-13T08:35:20Z</time>
      </trkpt>
      <trkpt lat="47.73287" lon="5.01583">
        <ele>377.34</ele>
        <time>2021-12-13T08:35:22Z</time>
      </trkpt>
      <trkpt lat="47.73284" lon="5.01585">
        <ele>377.32</ele>
        <time>2021-12-13T08:35:24Z</time>
      </trkpt>
      <trkpt lat="47.73281" lon="5.01588">
        <ele>377.34</ele>
        <time>2021-12-13T08:35:26Z</time>
      </trkpt>
      <trkpt lat="47.73279" lon="5.01591">
        <ele>377.36</ele>
        <time>2021-12-13T08:35:28Z</time>
      </trkpt>
      <trkpt lat="47.73277" lon="5.01594">
        <ele>377.43</ele>
        <time>2021-12-13T08:35:30Z</time>
      </trkpt>
      <trkpt lat="47.73274" lon="5.01598">
        <ele>377.73</ele>
        <time>2021-12-13T08:35:33Z</time>
      </trkpt>
      <trkpt lat="47.73271" lon="5.01602">
        <ele>378</ele>
        <time>2021-12-13T08:35:36Z</time>
      </trkpt>
      <trkpt lat="47.73269" lon="5.01604">
        <ele>378.14</ele>
        <time>2021-12-13T08:35:38Z</time>
      </trkpt>
      <trkpt lat="47.73267" lon="5.01607">
        <ele>378.3</ele>
        <time>2021-12-13T08:35:40Z</time>
      </trkpt>
      <trkpt lat="47.73264" lon="5.01609">
        <ele>378.46</ele>
        <time>2021-12-13T08:35:42Z</time>
      </trkpt>
      <trkpt lat="47.73262" lon="5.01612">
        <ele>378.59</ele>
        <time>2021-12-13T08:35:44Z</time>
      </trkpt>
      <trkpt lat="47.7326" lon="5.01615">
        <ele>378.73</ele>
        <time>2021-12-13T08:35:46Z</time>
      </trkpt>
      <trkpt lat="47.73257" lon="5.01618">
        <ele>378.93</ele>
        <time>2021-12-13T08:35:48Z</time>
      </trkpt>
      <trkpt lat="47.73255" lon="5.01621">
        <ele>379.11</ele>
        <time>2021-12-13T08:35:50Z</time>
      </trkpt>
      <trkpt lat="47.73253" lon="5.01624">
        <ele>379.31</ele>
        <time>2021-12-13T08:35:52Z</time>
      </trkpt>
      <trkpt lat="47.73251" lon="5.01627">
        <ele>379.52</ele>
        <time>2021-12-13T08:35:54Z</time>
      </trkpt>
      <trkpt lat="47.73249" lon="5.0163">
        <ele>379.67</ele>
        <time>2021-12-13T08:35:56Z</time>
      </trkpt>
      <trkpt lat="47.73246" lon="5.01633">
        <ele>379.76</ele>
        <time>2021-12-13T08:35:58Z</time>
      </trkpt>
      <trkpt lat="47.73244" lon="5.01635">
        <ele>379.83</ele>
        <time>2021-12-13T08:36:00Z</time>
      </trkpt>
      <trkpt lat="47.73242" lon="5.01639">
        <ele>380.01</ele>
        <time>2021-12-13T08:36:03Z</time>
      </trkpt>
      <trkpt lat="47.73239" lon="5.01643">
        <ele>380.24</ele>
        <time>2021-12-13T08:36:06Z</time>
      </trkpt>
      <trkpt lat="47.73237" lon="5.01646">
        <ele>380.39</ele>
        <time>2021-12-13T08:36:09Z</time>
      </trkpt>
      <trkpt lat="47.73234" lon="5.01649">
        <ele>380.52</ele>
        <time>2021-12-13T08:36:11Z</time>
      </trkpt>
      <trkpt lat="47.73232" lon="5.01652">
        <ele>380.64</ele>
        <time>2021-12-13T08:36:13Z</time>
      </trkpt>
      <trkpt lat="47.7323" lon="5.01655">
        <ele>380.74</ele>
        <time>2021-12-13T08:36:15Z</time>
      </trkpt>
      <trkpt lat="47.73227" lon="5.01658">
        <ele>380.81</ele>
        <time>2021-12-13T08:36:18Z</time>
      </trkpt>
      <trkpt lat="47.73225" lon="5.01662">
        <ele>380.92</ele>
        <time>2021-12-13T08:36:21Z</time>
      </trkpt>
      <trkpt lat="47.73222" lon="5.01666">
        <ele>380.98</ele>
        <time>2021-12-13T08:36:24Z</time>
      </trkpt>
      <trkpt lat="47.7322" lon="5.01669">
        <ele>381.33</ele>
        <time>2021-12-13T08:36:26Z</time>
      </trkpt>
      <trkpt lat="47.73217" lon="5.01673">
        <ele>381.87</ele>
        <time>2021-12-13T08:36:28Z</time>
      </trkpt>
      <trkpt lat="47.73215" lon="5.01676">
        <ele>382.27</ele>
        <time>2021-12-13T08:36:30Z</time>
      </trkpt>
      <trkpt lat="47.73213" lon="5.01679">
        <ele>382.66</ele>
        <time>2021-12-13T08:36:32Z</time>
      </trkpt>
      <trkpt lat="47.73211" lon="5.01684">
        <ele>383.28</ele>
        <time>2021-12-13T08:36:35Z</time>
      </trkpt>
      <trkpt lat="47.73208" lon="5.01688">
        <ele>383.82</ele>
        <time>2021-12-13T08:36:38Z</time>
      </trkpt>
      <trkpt lat="47.73206" lon="5.01692">
        <ele>384.32</ele>
        <time>2021-12-13T08:36:41Z</time>
      </trkpt>
      <trkpt lat="47.73205" lon="5.01696">
        <ele>384.74</ele>
        <time>2021-12-13T08:36:43Z</time>
      </trkpt>
      <trkpt lat="47.73204" lon="5.017">
        <ele>385.06</ele>
        <time>2021-12-13T08:36:45Z</time>
      </trkpt>
      <trkpt lat="47.73202" lon="5.01704">
        <ele>385.35</ele>
        <time>2021-12-13T08:36:47Z</time>
      </trkpt>
      <trkpt lat="47.732" lon="5.01709">
        <ele>385.64</ele>
        <time>2021-12-13T08:36:50Z</time>
      </trkpt>
      <trkpt lat="47.73199" lon="5.01713">
        <ele>385.83</ele>
        <time>2021-12-13T08:36:52Z</time>
      </trkpt>
      <trkpt lat="47.73197" lon="5.01717">
        <ele>385.94</ele>
        <time>2021-12-13T08:36:54Z</time>
      </trkpt>
      <trkpt lat="47.73195" lon="5.0172">
        <ele>385.96</ele>
        <time>2021-12-13T08:36:56Z</time>
      </trkpt>
      <trkpt lat="47.73194" lon="5.01724">
        <ele>386.12</ele>
        <time>2021-12-13T08:36:58Z</time>
      </trkpt>
      <trkpt lat="47.73192" lon="5.01729">
        <ele>386.42</ele>
        <time>2021-12-13T08:37:01Z</time>
      </trkpt>
      <trkpt lat="47.7319" lon="5.01733">
        <ele>386.59</ele>
        <time>2021-12-13T08:37:03Z</time>
      </trkpt>
      <trkpt lat="47.73188" lon="5.01737">
        <ele>386.69</ele>
        <time>2021-12-13T08:37:05Z</time>
      </trkpt>
      <trkpt lat="47.73186" lon="5.01741">
        <ele>386.74</ele>
        <time>2021-12-13T08:37:08Z</time>
      </trkpt>
      <trkpt lat="47.73183" lon="5.01746">
        <ele>386.65</ele>
        <time>2021-12-13T08:37:11Z</time>
      </trkpt>
      <trkpt lat="47.73181" lon="5.0175">
        <ele>386.55</ele>
        <time>2021-12-13T08:37:14Z</time>
      </trkpt>
      <trkpt lat="47.73179" lon="5.01754">
        <ele>386.76</ele>
        <time>2021-12-13T08:37:17Z</time>
      </trkpt>
      <trkpt lat="47.73176" lon="5.01759">
        <ele>386.98</ele>
        <time>2021-12-13T08:37:20Z</time>
      </trkpt>
      <trkpt lat="47.73174" lon="5.01764">
        <ele>387.3</ele>
        <time>2021-12-13T08:37:23Z</time>
      </trkpt>
      <trkpt lat="47.73172" lon="5.01767">
        <ele>387.41</ele>
        <time>2021-12-13T08:37:26Z</time>
      </trkpt>
      <trkpt lat="47.73169" lon="5.01772">
        <ele>387.63</ele>
        <time>2021-12-13T08:37:29Z</time>
      </trkpt>
      <trkpt lat="47.73167" lon="5.01775">
        <ele>387.74</ele>
        <time>2021-12-13T08:37:32Z</time>
      </trkpt>
      <trkpt lat="47.73165" lon="5.01779">
        <ele>388.07</ele>
        <time>2021-12-13T08:37:35Z</time>
      </trkpt>
      <trkpt lat="47.73162" lon="5.01781">
        <ele>388.14</ele>
        <time>2021-12-13T08:37:37Z</time>
      </trkpt>
      <trkpt lat="47.7316" lon="5.01785">
        <ele>388.42</ele>
        <time>2021-12-13T08:37:39Z</time>
      </trkpt>
      <trkpt lat="47.73158" lon="5.01788">
        <ele>388.56</ele>
        <time>2021-12-13T08:37:41Z</time>
      </trkpt>
      <trkpt lat="47.73156" lon="5.01791">
        <ele>388.68</ele>
        <time>2021-12-13T08:37:44Z</time>
      </trkpt>
      <trkpt lat="47.73153" lon="5.01794">
        <ele>388.69</ele>
        <time>2021-12-13T08:37:47Z</time>
      </trkpt>
      <trkpt lat="47.7315" lon="5.01797">
        <ele>388.65</ele>
        <time>2021-12-13T08:37:50Z</time>
      </trkpt>
      <trkpt lat="47.73148" lon="5.018">
        <ele>388.65</ele>
        <time>2021-12-13T08:37:52Z</time>
      </trkpt>
      <trkpt lat="47.73146" lon="5.01802">
        <ele>388.57</ele>
        <time>2021-12-13T08:37:54Z</time>
      </trkpt>
      <trkpt lat="47.73143" lon="5.01806">
        <ele>388.45</ele>
        <time>2021-12-13T08:37:57Z</time>
      </trkpt>
      <trkpt lat="47.7314" lon="5.0181">
        <ele>388.13</ele>
        <time>2021-12-13T08:37:59Z</time>
      </trkpt>
      <trkpt lat="47.73138" lon="5.01813">
        <ele>387.96</ele>
        <time>2021-12-13T08:38:01Z</time>
      </trkpt>
      <trkpt lat="47.73136" lon="5.01816">
        <ele>387.86</ele>
        <time>2021-12-13T08:38:03Z</time>
      </trkpt>
      <trkpt lat="47.73133" lon="5.01819">
        <ele>387.69</ele>
        <time>2021-12-13T08:38:05Z</time>
      </trkpt>
      <trkpt lat="47.7313" lon="5.01822">
        <ele>387.49</ele>
        <time>2021-12-13T08:38:08Z</time>
      </trkpt>
      <trkpt lat="47.73127" lon="5.01826">
        <ele>387.26</ele>
        <time>2021-12-13T08:38:11Z</time>
      </trkpt>
      <trkpt lat="47.73125" lon="5.01829">
        <ele>387.08</ele>
        <time>2021-12-13T08:38:14Z</time>
      </trkpt>
      <trkpt lat="47.73122" lon="5.01834">
        <ele>386.85</ele>
        <time>2021-12-13T08:38:17Z</time>
      </trkpt>
      <trkpt lat="47.7312" lon="5.01837">
        <ele>386.99</ele>
        <time>2021-12-13T08:38:19Z</time>
      </trkpt>
      <trkpt lat="47.73118" lon="5.01839">
        <ele>387.01</ele>
        <time>2021-12-13T08:38:21Z</time>
      </trkpt>
      <trkpt lat="47.73114" lon="5.01842">
        <ele>386.9</ele>
        <time>2021-12-13T08:38:24Z</time>
      </trkpt>
      <trkpt lat="47.73111" lon="5.01845">
        <ele>386.85</ele>
        <time>2021-12-13T08:38:27Z</time>
      </trkpt>
      <trkpt lat="47.73108" lon="5.01848">
        <ele>387.27</ele>
        <time>2021-12-13T08:38:30Z</time>
      </trkpt>
      <trkpt lat="47.73105" lon="5.01851">
        <ele>387.65</ele>
        <time>2021-12-13T08:38:32Z</time>
      </trkpt>
      <trkpt lat="47.73102" lon="5.01854">
        <ele>387.98</ele>
        <time>2021-12-13T08:38:34Z</time>
      </trkpt>
      <trkpt lat="47.73099" lon="5.01857">
        <ele>388.27</ele>
        <time>2021-12-13T08:38:36Z</time>
      </trkpt>
      <trkpt lat="47.73096" lon="5.01859">
        <ele>388.47</ele>
        <time>2021-12-13T08:38:39Z</time>
      </trkpt>
      <trkpt lat="47.73095" lon="5.01863">
        <ele>388.78</ele>
        <time>2021-12-13T08:38:43Z</time>
      </trkpt>
      <trkpt lat="47.73093" lon="5.01866">
        <ele>389.18</ele>
        <time>2021-12-13T08:38:48Z</time>
      </trkpt>
      <trkpt lat="47.73096" lon="5.01866">
        <ele>389.07</ele>
        <time>2021-12-13T08:39:21Z</time>
      </trkpt>
      <trkpt lat="47.73098" lon="5.01864">
        <ele>388.78</ele>
        <time>2021-12-13T08:39:35Z</time>
      </trkpt>
      <trkpt lat="47.73095" lon="5.01865">
        <ele>389</ele>
        <time>2021-12-13T08:40:26Z</time>
      </trkpt>
      <trkpt lat="47.73092" lon="5.01865">
        <ele>389.11</ele>
        <time>2021-12-13T08:40:57Z</time>
      </trkpt>
      <trkpt lat="47.73089" lon="5.01867">
        <ele>389.43</ele>
        <time>2021-12-13T08:41:01Z</time>
      </trkpt>
      <trkpt lat="47.73088" lon="5.0187">
        <ele>389.79</ele>
        <time>2021-12-13T08:41:04Z</time>
      </trkpt>
      <trkpt lat="47.73086" lon="5.01874">
        <ele>390.3</ele>
        <time>2021-12-13T08:41:07Z</time>
      </trkpt>
      <trkpt lat="47.73085" lon="5.01878">
        <ele>390.76</ele>
        <time>2021-12-13T08:41:10Z</time>
      </trkpt>
      <trkpt lat="47.73083" lon="5.01881">
        <ele>391.22</ele>
        <time>2021-12-13T08:41:13Z</time>
      </trkpt>
      <trkpt lat="47.7308" lon="5.01885">
        <ele>392.25</ele>
        <time>2021-12-13T08:41:16Z</time>
      </trkpt>
      <trkpt lat="47.73078" lon="5.01889">
        <ele>392.97</ele>
        <time>2021-12-13T08:41:19Z</time>
      </trkpt>
      <trkpt lat="47.73076" lon="5.01893">
        <ele>393.79</ele>
        <time>2021-12-13T08:41:23Z</time>
      </trkpt>
      <trkpt lat="47.73073" lon="5.01896">
        <ele>394.6</ele>
        <time>2021-12-13T08:41:26Z</time>
      </trkpt>
      <trkpt lat="47.73071" lon="5.019">
        <ele>395.29</ele>
        <time>2021-12-13T08:41:28Z</time>
      </trkpt>
      <trkpt lat="47.73068" lon="5.01906">
        <ele>396.2</ele>
        <time>2021-12-13T08:41:30Z</time>
      </trkpt>
      <trkpt lat="47.73066" lon="5.0191">
        <ele>396.74</ele>
        <time>2021-12-13T08:41:32Z</time>
      </trkpt>
      <trkpt lat="47.73064" lon="5.01914">
        <ele>397.21</ele>
        <time>2021-12-13T08:41:35Z</time>
      </trkpt>
      <trkpt lat="47.73061" lon="5.01917">
        <ele>397.64</ele>
        <time>2021-12-13T08:41:38Z</time>
      </trkpt>
      <trkpt lat="47.73059" lon="5.01921">
        <ele>398.1</ele>
        <time>2021-12-13T08:41:42Z</time>
      </trkpt>
      <trkpt lat="47.73058" lon="5.01925">
        <ele>398.48</ele>
        <time>2021-12-13T08:41:46Z</time>
      </trkpt>
      <trkpt lat="47.73056" lon="5.01929">
        <ele>398.87</ele>
        <time>2021-12-13T08:41:49Z</time>
      </trkpt>
      <trkpt lat="47.73053" lon="5.01933">
        <ele>399.77</ele>
        <time>2021-12-13T08:41:52Z</time>
      </trkpt>
      <trkpt lat="47.73051" lon="5.01938">
        <ele>400.56</ele>
        <time>2021-12-13T08:41:55Z</time>
      </trkpt>
      <trkpt lat="47.73049" lon="5.01941">
        <ele>401.2</ele>
        <time>2021-12-13T08:41:57Z</time>
      </trkpt>
      <trkpt lat="47.73046" lon="5.01946">
        <ele>402.27</ele>
        <time>2021-12-13T08:41:59Z</time>
      </trkpt>
      <trkpt lat="47.73043" lon="5.01951">
        <ele>403.47</ele>
        <time>2021-12-13T08:42:01Z</time>
      </trkpt>
      <trkpt lat="47.73041" lon="5.01953">
        <ele>404.04</ele>
        <time>2021-12-13T08:42:03Z</time>
      </trkpt>
      <trkpt lat="47.73038" lon="5.01954">
        <ele>404.64</ele>
        <time>2021-12-13T08:42:06Z</time>
      </trkpt>
      <trkpt lat="47.73035" lon="5.01956">
        <ele>405.29</ele>
        <time>2021-12-13T08:42:09Z</time>
      </trkpt>
      <trkpt lat="47.73033" lon="5.01961">
        <ele>405.92</ele>
        <time>2021-12-13T08:42:12Z</time>
      </trkpt>
      <trkpt lat="47.73031" lon="5.01965">
        <ele>406.39</ele>
        <time>2021-12-13T08:42:15Z</time>
      </trkpt>
      <trkpt lat="47.73029" lon="5.0197">
        <ele>406.82</ele>
        <time>2021-12-13T08:42:18Z</time>
      </trkpt>
      <trkpt lat="47.73026" lon="5.01975">
        <ele>407.48</ele>
        <time>2021-12-13T08:42:21Z</time>
      </trkpt>
      <trkpt lat="47.73024" lon="5.01978">
        <ele>407.96</ele>
        <time>2021-12-13T08:42:23Z</time>
      </trkpt>
      <trkpt lat="47.73022" lon="5.01983">
        <ele>408.7</ele>
        <time>2021-12-13T08:42:26Z</time>
      </trkpt>
      <trkpt lat="47.7302" lon="5.01986">
        <ele>409.06</ele>
        <time>2021-12-13T08:42:28Z</time>
      </trkpt>
      <trkpt lat="47.73018" lon="5.0199">
        <ele>409.52</ele>
        <time>2021-12-13T08:42:30Z</time>
      </trkpt>
      <trkpt lat="47.73016" lon="5.01993">
        <ele>409.79</ele>
        <time>2021-12-13T08:42:32Z</time>
      </trkpt>
      <trkpt lat="47.73013" lon="5.01996">
        <ele>409.91</ele>
        <time>2021-12-13T08:42:35Z</time>
      </trkpt>
      <trkpt lat="47.73011" lon="5.02">
        <ele>410.19</ele>
        <time>2021-12-13T08:42:38Z</time>
      </trkpt>
      <trkpt lat="47.73009" lon="5.02003">
        <ele>410.62</ele>
        <time>2021-12-13T08:42:40Z</time>
      </trkpt>
      <trkpt lat="47.73007" lon="5.02005">
        <ele>410.84</ele>
        <time>2021-12-13T08:42:42Z</time>
      </trkpt>
      <trkpt lat="47.73004" lon="5.02008">
        <ele>411.16</ele>
        <time>2021-12-13T08:42:44Z</time>
      </trkpt>
      <trkpt lat="47.73001" lon="5.0201">
        <ele>411.27</ele>
        <time>2021-12-13T08:42:46Z</time>
      </trkpt>
      <trkpt lat="47.72999" lon="5.02012">
        <ele>411.43</ele>
        <time>2021-12-13T08:42:48Z</time>
      </trkpt>
      <trkpt lat="47.72996" lon="5.02014">
        <ele>411.38</ele>
        <time>2021-12-13T08:42:51Z</time>
      </trkpt>
      <trkpt lat="47.72993" lon="5.02017">
        <ele>411.51</ele>
        <time>2021-12-13T08:42:54Z</time>
      </trkpt>
      <trkpt lat="47.7299" lon="5.0202">
        <ele>411.62</ele>
        <time>2021-12-13T08:42:57Z</time>
      </trkpt>
      <trkpt lat="47.72987" lon="5.02022">
        <ele>411.51</ele>
        <time>2021-12-13T08:43:00Z</time>
      </trkpt>
      <trkpt lat="47.72984" lon="5.02023">
        <ele>411.19</ele>
        <time>2021-12-13T08:43:04Z</time>
      </trkpt>
      <trkpt lat="47.72981" lon="5.02025">
        <ele>411.05</ele>
        <time>2021-12-13T08:43:07Z</time>
      </trkpt>
      <trkpt lat="47.72978" lon="5.02028">
        <ele>411.05</ele>
        <time>2021-12-13T08:43:10Z</time>
      </trkpt>
      <trkpt lat="47.72974" lon="5.02031">
        <ele>410.47</ele>
        <time>2021-12-13T08:43:13Z</time>
      </trkpt>
      <trkpt lat="47.72972" lon="5.02033">
        <ele>410.2</ele>
        <time>2021-12-13T08:43:15Z</time>
      </trkpt>
      <trkpt lat="47.72969" lon="5.02037">
        <ele>410.45</ele>
        <time>2021-12-13T08:43:17Z</time>
      </trkpt>
      <trkpt lat="47.72966" lon="5.02042">
        <ele>410.62</ele>
        <time>2021-12-13T08:43:19Z</time>
      </trkpt>
      <trkpt lat="47.72964" lon="5.02045">
        <ele>410.66</ele>
        <time>2021-12-13T08:43:21Z</time>
      </trkpt>
      <trkpt lat="47.72961" lon="5.02048">
        <ele>410.65</ele>
        <time>2021-12-13T08:43:23Z</time>
      </trkpt>
      <trkpt lat="47.72959" lon="5.02051">
        <ele>410.59</ele>
        <time>2021-12-13T08:43:25Z</time>
      </trkpt>
      <trkpt lat="47.72956" lon="5.02053">
        <ele>410.49</ele>
        <time>2021-12-13T08:43:27Z</time>
      </trkpt>
      <trkpt lat="47.72953" lon="5.02055">
        <ele>410.33</ele>
        <time>2021-12-13T08:43:30Z</time>
      </trkpt>
      <trkpt lat="47.72949" lon="5.02057">
        <ele>410.16</ele>
        <time>2021-12-13T08:43:33Z</time>
      </trkpt>
      <trkpt lat="47.72945" lon="5.02057">
        <ele>410.02</ele>
        <time>2021-12-13T08:43:35Z</time>
      </trkpt>
      <trkpt lat="47.72942" lon="5.02057">
        <ele>409.47</ele>
        <time>2021-12-13T08:43:37Z</time>
      </trkpt>
      <trkpt lat="47.72939" lon="5.02058">
        <ele>408.81</ele>
        <time>2021-12-13T08:43:40Z</time>
      </trkpt>
      <trkpt lat="47.72935" lon="5.0206">
        <ele>407.91</ele>
        <time>2021-12-13T08:43:43Z</time>
      </trkpt>
      <trkpt lat="47.72931" lon="5.02062">
        <ele>406.98</ele>
        <time>2021-12-13T08:43:46Z</time>
      </trkpt>
      <trkpt lat="47.72929" lon="5.02064">
        <ele>406.49</ele>
        <time>2021-12-13T08:43:48Z</time>
      </trkpt>
      <trkpt lat="47.72926" lon="5.02067">
        <ele>405.74</ele>
        <time>2021-12-13T08:43:51Z</time>
      </trkpt>
      <trkpt lat="47.72924" lon="5.02069">
        <ele>405.23</ele>
        <time>2021-12-13T08:43:53Z</time>
      </trkpt>
      <trkpt lat="47.72921" lon="5.02071">
        <ele>404.47</ele>
        <time>2021-12-13T08:43:55Z</time>
      </trkpt>
      <trkpt lat="47.72918" lon="5.02073">
        <ele>403.69</ele>
        <time>2021-12-13T08:43:58Z</time>
      </trkpt>
      <trkpt lat="47.72915" lon="5.02075">
        <ele>403.18</ele>
        <time>2021-12-13T08:44:01Z</time>
      </trkpt>
      <trkpt lat="47.72912" lon="5.02078">
        <ele>402.86</ele>
        <time>2021-12-13T08:44:03Z</time>
      </trkpt>
      <trkpt lat="47.72909" lon="5.02081">
        <ele>402.53</ele>
        <time>2021-12-13T08:44:06Z</time>
      </trkpt>
      <trkpt lat="47.72907" lon="5.02084">
        <ele>402.31</ele>
        <time>2021-12-13T08:44:09Z</time>
      </trkpt>
      <trkpt lat="47.72904" lon="5.02086">
        <ele>402.12</ele>
        <time>2021-12-13T08:44:12Z</time>
      </trkpt>
      <trkpt lat="47.729" lon="5.02088">
        <ele>401.93</ele>
        <time>2021-12-13T08:44:15Z</time>
      </trkpt>
      <trkpt lat="47.72897" lon="5.0209">
        <ele>401.85</ele>
        <time>2021-12-13T08:44:17Z</time>
      </trkpt>
      <trkpt lat="47.72895" lon="5.02093">
        <ele>401.91</ele>
        <time>2021-12-13T08:44:19Z</time>
      </trkpt>
      <trkpt lat="47.72892" lon="5.02096">
        <ele>401.98</ele>
        <time>2021-12-13T08:44:21Z</time>
      </trkpt>
      <trkpt lat="47.7289" lon="5.02099">
        <ele>402.14</ele>
        <time>2021-12-13T08:44:23Z</time>
      </trkpt>
      <trkpt lat="47.72887" lon="5.02102">
        <ele>402.41</ele>
        <time>2021-12-13T08:44:26Z</time>
      </trkpt>
      <trkpt lat="47.72884" lon="5.02105">
        <ele>402.74</ele>
        <time>2021-12-13T08:44:29Z</time>
      </trkpt>
      <trkpt lat="47.7288" lon="5.02107">
        <ele>403.02</ele>
        <time>2021-12-13T08:44:32Z</time>
      </trkpt>
      <trkpt lat="47.72876" lon="5.0211">
        <ele>403.38</ele>
        <time>2021-12-13T08:44:35Z</time>
      </trkpt>
      <trkpt lat="47.72873" lon="5.02113">
        <ele>403.6</ele>
        <time>2021-12-13T08:44:38Z</time>
      </trkpt>
      <trkpt lat="47.7287" lon="5.02116">
        <ele>403.74</ele>
        <time>2021-12-13T08:44:40Z</time>
      </trkpt>
      <trkpt lat="47.72867" lon="5.02119">
        <ele>403.85</ele>
        <time>2021-12-13T08:44:42Z</time>
      </trkpt>
      <trkpt lat="47.72864" lon="5.02121">
        <ele>403.93</ele>
        <time>2021-12-13T08:44:44Z</time>
      </trkpt>
      <trkpt lat="47.72861" lon="5.02124">
        <ele>404</ele>
        <time>2021-12-13T08:44:47Z</time>
      </trkpt>
      <trkpt lat="47.72858" lon="5.02127">
        <ele>403.95</ele>
        <time>2021-12-13T08:44:50Z</time>
      </trkpt>
      <trkpt lat="47.72856" lon="5.0213">
        <ele>403.94</ele>
        <time>2021-12-13T08:44:53Z</time>
      </trkpt>
      <trkpt lat="47.72853" lon="5.02133">
        <ele>403.94</ele>
        <time>2021-12-13T08:44:56Z</time>
      </trkpt>
      <trkpt lat="47.7285" lon="5.02136">
        <ele>403.96</ele>
        <time>2021-12-13T08:44:59Z</time>
      </trkpt>
      <trkpt lat="47.72846" lon="5.02139">
        <ele>404</ele>
        <time>2021-12-13T08:45:02Z</time>
      </trkpt>
      <trkpt lat="47.72844" lon="5.02142">
        <ele>404.09</ele>
        <time>2021-12-13T08:45:05Z</time>
      </trkpt>
      <trkpt lat="47.72841" lon="5.02146">
        <ele>404.14</ele>
        <time>2021-12-13T08:45:08Z</time>
      </trkpt>
      <trkpt lat="47.72838" lon="5.02149">
        <ele>404.12</ele>
        <time>2021-12-13T08:45:11Z</time>
      </trkpt>
      <trkpt lat="47.72836" lon="5.02152">
        <ele>404.09</ele>
        <time>2021-12-13T08:45:14Z</time>
      </trkpt>
      <trkpt lat="47.72834" lon="5.02155">
        <ele>404.03</ele>
        <time>2021-12-13T08:45:18Z</time>
      </trkpt>
      <trkpt lat="47.72833" lon="5.02158">
        <ele>403.99</ele>
        <time>2021-12-13T08:45:22Z</time>
      </trkpt>
      <trkpt lat="47.72831" lon="5.02163">
        <ele>403.93</ele>
        <time>2021-12-13T08:45:25Z</time>
      </trkpt>
      <trkpt lat="47.7283" lon="5.02167">
        <ele>403.91</ele>
        <time>2021-12-13T08:45:27Z</time>
      </trkpt>
      <trkpt lat="47.72828" lon="5.02172">
        <ele>404.35</ele>
        <time>2021-12-13T08:45:29Z</time>
      </trkpt>
      <trkpt lat="47.72826" lon="5.02177">
        <ele>404.75</ele>
        <time>2021-12-13T08:45:31Z</time>
      </trkpt>
      <trkpt lat="47.72825" lon="5.02181">
        <ele>405.09</ele>
        <time>2021-12-13T08:45:33Z</time>
      </trkpt>
      <trkpt lat="47.72823" lon="5.02184">
        <ele>405.27</ele>
        <time>2021-12-13T08:45:35Z</time>
      </trkpt>
      <trkpt lat="47.72821" lon="5.02188">
        <ele>405.52</ele>
        <time>2021-12-13T08:45:38Z</time>
      </trkpt>
      <trkpt lat="47.72819" lon="5.02193">
        <ele>405.84</ele>
        <time>2021-12-13T08:45:42Z</time>
      </trkpt>
      <trkpt lat="47.72817" lon="5.02197">
        <ele>406.19</ele>
        <time>2021-12-13T08:45:44Z</time>
      </trkpt>
      <trkpt lat="47.72815" lon="5.02201">
        <ele>406.62</ele>
        <time>2021-12-13T08:45:46Z</time>
      </trkpt>
      <trkpt lat="47.72813" lon="5.02206">
        <ele>407.2</ele>
        <time>2021-12-13T08:45:48Z</time>
      </trkpt>
      <trkpt lat="47.72812" lon="5.0221">
        <ele>407.7</ele>
        <time>2021-12-13T08:45:50Z</time>
      </trkpt>
      <trkpt lat="47.7281" lon="5.02214">
        <ele>408.14</ele>
        <time>2021-12-13T08:45:52Z</time>
      </trkpt>
      <trkpt lat="47.72809" lon="5.02218">
        <ele>408.64</ele>
        <time>2021-12-13T08:45:54Z</time>
      </trkpt>
      <trkpt lat="47.72807" lon="5.02221">
        <ele>408.93</ele>
        <time>2021-12-13T08:45:57Z</time>
      </trkpt>
      <trkpt lat="47.72804" lon="5.02225">
        <ele>409.34</ele>
        <time>2021-12-13T08:46:01Z</time>
      </trkpt>
      <trkpt lat="47.72803" lon="5.02229">
        <ele>409.86</ele>
        <time>2021-12-13T08:46:04Z</time>
      </trkpt>
      <trkpt lat="47.72801" lon="5.02234">
        <ele>410.46</ele>
        <time>2021-12-13T08:46:07Z</time>
      </trkpt>
      <trkpt lat="47.72799" lon="5.02238">
        <ele>410.9</ele>
        <time>2021-12-13T08:46:11Z</time>
      </trkpt>
      <trkpt lat="47.72797" lon="5.02241">
        <ele>411.19</ele>
        <time>2021-12-13T08:46:16Z</time>
      </trkpt>
      <trkpt lat="47.72795" lon="5.02245">
        <ele>411.59</ele>
        <time>2021-12-13T08:46:20Z</time>
      </trkpt>
      <trkpt lat="47.72793" lon="5.02249">
        <ele>411.97</ele>
        <time>2021-12-13T08:46:23Z</time>
      </trkpt>
      <trkpt lat="47.72791" lon="5.02255">
        <ele>412.76</ele>
        <time>2021-12-13T08:46:26Z</time>
      </trkpt>
      <trkpt lat="47.72789" lon="5.02259">
        <ele>413.23</ele>
        <time>2021-12-13T08:46:28Z</time>
      </trkpt>
      <trkpt lat="47.72786" lon="5.02263">
        <ele>413.6</ele>
        <time>2021-12-13T08:46:30Z</time>
      </trkpt>
      <trkpt lat="47.72784" lon="5.02267">
        <ele>414.03</ele>
        <time>2021-12-13T08:46:32Z</time>
      </trkpt>
      <trkpt lat="47.72783" lon="5.02271">
        <ele>414.54</ele>
        <time>2021-12-13T08:46:34Z</time>
      </trkpt>
      <trkpt lat="47.72781" lon="5.02276">
        <ele>415.08</ele>
        <time>2021-12-13T08:46:36Z</time>
      </trkpt>
      <trkpt lat="47.72779" lon="5.02281">
        <ele>415.48</ele>
        <time>2021-12-13T08:46:38Z</time>
      </trkpt>
      <trkpt lat="47.72778" lon="5.02284">
        <ele>415.7</ele>
        <time>2021-12-13T08:46:40Z</time>
      </trkpt>
      <trkpt lat="47.72777" lon="5.02288">
        <ele>416.01</ele>
        <time>2021-12-13T08:46:42Z</time>
      </trkpt>
      <trkpt lat="47.72776" lon="5.02292">
        <ele>416.35</ele>
        <time>2021-12-13T08:46:44Z</time>
      </trkpt>
      <trkpt lat="47.72775" lon="5.02296">
        <ele>416.7</ele>
        <time>2021-12-13T08:46:47Z</time>
      </trkpt>
      <trkpt lat="47.72774" lon="5.023">
        <ele>417.07</ele>
        <time>2021-12-13T08:46:50Z</time>
      </trkpt>
      <trkpt lat="47.72771" lon="5.02304">
        <ele>417.32</ele>
        <time>2021-12-13T08:46:53Z</time>
      </trkpt>
      <trkpt lat="47.72768" lon="5.02307">
        <ele>417.5</ele>
        <time>2021-12-13T08:46:56Z</time>
      </trkpt>
      <trkpt lat="47.72766" lon="5.02311">
        <ele>417.94</ele>
        <time>2021-12-13T08:46:59Z</time>
      </trkpt>
      <trkpt lat="47.72764" lon="5.02315">
        <ele>418.37</ele>
        <time>2021-12-13T08:47:01Z</time>
      </trkpt>
      <trkpt lat="47.72763" lon="5.02319">
        <ele>418.87</ele>
        <time>2021-12-13T08:47:04Z</time>
      </trkpt>
      <trkpt lat="47.72761" lon="5.02323">
        <ele>419.3</ele>
        <time>2021-12-13T08:47:07Z</time>
      </trkpt>
      <trkpt lat="47.7276" lon="5.02328">
        <ele>419.95</ele>
        <time>2021-12-13T08:47:11Z</time>
      </trkpt>
      <trkpt lat="47.72759" lon="5.02332">
        <ele>420.46</ele>
        <time>2021-12-13T08:47:13Z</time>
      </trkpt>
      <trkpt lat="47.72758" lon="5.02337">
        <ele>421.14</ele>
        <time>2021-12-13T08:47:15Z</time>
      </trkpt>
      <trkpt lat="47.72758" lon="5.02342">
        <ele>421.91</ele>
        <time>2021-12-13T08:47:18Z</time>
      </trkpt>
      <trkpt lat="47.7276" lon="5.02345">
        <ele>422.55</ele>
        <time>2021-12-13T08:47:23Z</time>
      </trkpt>
      <trkpt lat="47.72763" lon="5.02346">
        <ele>422.97</ele>
        <time>2021-12-13T08:47:26Z</time>
      </trkpt>
      <trkpt lat="47.72766" lon="5.02348">
        <ele>423.57</ele>
        <time>2021-12-13T08:47:29Z</time>
      </trkpt>
      <trkpt lat="47.72768" lon="5.0235">
        <ele>424.08</ele>
        <time>2021-12-13T08:47:33Z</time>
      </trkpt>
      <trkpt lat="47.72771" lon="5.02352">
        <ele>424.71</ele>
        <time>2021-12-13T08:47:37Z</time>
      </trkpt>
      <trkpt lat="47.72774" lon="5.02355">
        <ele>425.52</ele>
        <time>2021-12-13T08:47:39Z</time>
      </trkpt>
      <trkpt lat="47.72776" lon="5.0236">
        <ele>426.61</ele>
        <time>2021-12-13T08:47:41Z</time>
      </trkpt>
      <trkpt lat="47.72779" lon="5.02363">
        <ele>426.87</ele>
        <time>2021-12-13T08:47:43Z</time>
      </trkpt>
      <trkpt lat="47.72782" lon="5.02365">
        <ele>426.57</ele>
        <time>2021-12-13T08:47:45Z</time>
      </trkpt>
      <trkpt lat="47.72785" lon="5.02367">
        <ele>426.28</ele>
        <time>2021-12-13T08:47:48Z</time>
      </trkpt>
      <trkpt lat="47.72786" lon="5.0237">
        <ele>426.21</ele>
        <time>2021-12-13T08:47:51Z</time>
      </trkpt>
      <trkpt lat="47.72788" lon="5.02373">
        <ele>426.05</ele>
        <time>2021-12-13T08:47:53Z</time>
      </trkpt>
      <trkpt lat="47.7279" lon="5.02376">
        <ele>425.92</ele>
        <time>2021-12-13T08:47:55Z</time>
      </trkpt>
      <trkpt lat="47.72792" lon="5.0238">
        <ele>425.81</ele>
        <time>2021-12-13T08:47:58Z</time>
      </trkpt>
      <trkpt lat="47.72794" lon="5.02383">
        <ele>425.71</ele>
        <time>2021-12-13T08:48:01Z</time>
      </trkpt>
      <trkpt lat="47.72797" lon="5.02386">
        <ele>425.54</ele>
        <time>2021-12-13T08:48:05Z</time>
      </trkpt>
      <trkpt lat="47.72798" lon="5.0239">
        <ele>425.67</ele>
        <time>2021-12-13T08:48:09Z</time>
      </trkpt>
      <trkpt lat="47.72799" lon="5.02395">
        <ele>426.2</ele>
        <time>2021-12-13T08:48:12Z</time>
      </trkpt>
      <trkpt lat="47.728" lon="5.024">
        <ele>426.76</ele>
        <time>2021-12-13T08:48:15Z</time>
      </trkpt>
      <trkpt lat="47.728" lon="5.02404">
        <ele>427.25</ele>
        <time>2021-12-13T08:48:18Z</time>
      </trkpt>
      <trkpt lat="47.72801" lon="5.02409">
        <ele>427.87</ele>
        <time>2021-12-13T08:48:21Z</time>
      </trkpt>
      <trkpt lat="47.72803" lon="5.02414">
        <ele>428.55</ele>
        <time>2021-12-13T08:48:24Z</time>
      </trkpt>
      <trkpt lat="47.72806" lon="5.02417">
        <ele>429.09</ele>
        <time>2021-12-13T08:48:27Z</time>
      </trkpt>
      <trkpt lat="47.72809" lon="5.02421">
        <ele>429.98</ele>
        <time>2021-12-13T08:48:30Z</time>
      </trkpt>
      <trkpt lat="47.72812" lon="5.02424">
        <ele>430.57</ele>
        <time>2021-12-13T08:48:33Z</time>
      </trkpt>
      <trkpt lat="47.72813" lon="5.02428">
        <ele>431.28</ele>
        <time>2021-12-13T08:48:36Z</time>
      </trkpt>
      <trkpt lat="47.72813" lon="5.02432">
        <ele>431.99</ele>
        <time>2021-12-13T08:48:38Z</time>
      </trkpt>
      <trkpt lat="47.72814" lon="5.02436">
        <ele>432.63</ele>
        <time>2021-12-13T08:48:40Z</time>
      </trkpt>
      <trkpt lat="47.72815" lon="5.02441">
        <ele>433.4</ele>
        <time>2021-12-13T08:48:43Z</time>
      </trkpt>
      <trkpt lat="47.72816" lon="5.02445">
        <ele>433.91</ele>
        <time>2021-12-13T08:48:46Z</time>
      </trkpt>
      <trkpt lat="47.72817" lon="5.02449">
        <ele>434.09</ele>
        <time>2021-12-13T08:48:49Z</time>
      </trkpt>
      <trkpt lat="47.7282" lon="5.02452">
        <ele>433.98</ele>
        <time>2021-12-13T08:48:52Z</time>
      </trkpt>
      <trkpt lat="47.72821" lon="5.02455">
        <ele>434.09</ele>
        <time>2021-12-13T08:48:56Z</time>
      </trkpt>
      <trkpt lat="47.72819" lon="5.0246">
        <ele>434.67</ele>
        <time>2021-12-13T08:49:00Z</time>
      </trkpt>
      <trkpt lat="47.7282" lon="5.02465">
        <ele>434.92</ele>
        <time>2021-12-13T08:49:04Z</time>
      </trkpt>
      <trkpt lat="47.72821" lon="5.02469">
        <ele>435.1</ele>
        <time>2021-12-13T08:49:06Z</time>
      </trkpt>
      <trkpt lat="47.72822" lon="5.02473">
        <ele>435.34</ele>
        <time>2021-12-13T08:49:08Z</time>
      </trkpt>
      <trkpt lat="47.72822" lon="5.02477">
        <ele>435.91</ele>
        <time>2021-12-13T08:49:11Z</time>
      </trkpt>
      <trkpt lat="47.72824" lon="5.02482">
        <ele>436.42</ele>
        <time>2021-12-13T08:49:15Z</time>
      </trkpt>
      <trkpt lat="47.72826" lon="5.02485">
        <ele>436.63</ele>
        <time>2021-12-13T08:49:18Z</time>
      </trkpt>
      <trkpt lat="47.72829" lon="5.02487">
        <ele>436.6</ele>
        <time>2021-12-13T08:49:21Z</time>
      </trkpt>
      <trkpt lat="47.72833" lon="5.02488">
        <ele>436.31</ele>
        <time>2021-12-13T08:49:24Z</time>
      </trkpt>
      <trkpt lat="47.72836" lon="5.0249">
        <ele>436.4</ele>
        <time>2021-12-13T08:49:27Z</time>
      </trkpt>
      <trkpt lat="47.72838" lon="5.02493">
        <ele>436.7</ele>
        <time>2021-12-13T08:49:30Z</time>
      </trkpt>
      <trkpt lat="47.7284" lon="5.02498">
        <ele>437.25</ele>
        <time>2021-12-13T08:49:33Z</time>
      </trkpt>
      <trkpt lat="47.72842" lon="5.02502">
        <ele>437.52</ele>
        <time>2021-12-13T08:49:36Z</time>
      </trkpt>
      <trkpt lat="47.72845" lon="5.02505">
        <ele>437.52</ele>
        <time>2021-12-13T08:49:39Z</time>
      </trkpt>
      <trkpt lat="47.72845" lon="5.02509">
        <ele>437.81</ele>
        <time>2021-12-13T08:49:42Z</time>
      </trkpt>
      <trkpt lat="47.72845" lon="5.02514">
        <ele>438.17</ele>
        <time>2021-12-13T08:49:45Z</time>
      </trkpt>
      <trkpt lat="47.72848" lon="5.02517">
        <ele>438.17</ele>
        <time>2021-12-13T08:49:49Z</time>
      </trkpt>
      <trkpt lat="47.72847" lon="5.02522">
        <ele>438.6</ele>
        <time>2021-12-13T08:49:56Z</time>
      </trkpt>
      <trkpt lat="47.72845" lon="5.02528">
        <ele>439.18</ele>
        <time>2021-12-13T08:49:58Z</time>
      </trkpt>
      <trkpt lat="47.72844" lon="5.02534">
        <ele>439.82</ele>
        <time>2021-12-13T08:50:00Z</time>
      </trkpt>
      <trkpt lat="47.72843" lon="5.0254">
        <ele>440.47</ele>
        <time>2021-12-13T08:50:02Z</time>
      </trkpt>
      <trkpt lat="47.72842" lon="5.02545">
        <ele>441.04</ele>
        <time>2021-12-13T08:50:04Z</time>
      </trkpt>
      <trkpt lat="47.72841" lon="5.0255">
        <ele>441.63</ele>
        <time>2021-12-13T08:50:06Z</time>
      </trkpt>
      <trkpt lat="47.7284" lon="5.02555">
        <ele>442.22</ele>
        <time>2021-12-13T08:50:08Z</time>
      </trkpt>
      <trkpt lat="47.7284" lon="5.0256">
        <ele>442.84</ele>
        <time>2021-12-13T08:50:11Z</time>
      </trkpt>
      <trkpt lat="47.72839" lon="5.02564">
        <ele>443.48</ele>
        <time>2021-12-13T08:50:16Z</time>
      </trkpt>
      <trkpt lat="47.7284" lon="5.02582">
        <ele>445.63</ele>
        <time>2021-12-13T08:50:38Z</time>
      </trkpt>
      <trkpt lat="47.72844" lon="5.02599">
        <ele>447.47</ele>
        <time>2021-12-13T08:50:49Z</time>
      </trkpt>
      <trkpt lat="47.72847" lon="5.02617">
        <ele>449.72</ele>
        <time>2021-12-13T08:51:02Z</time>
      </trkpt>
      <trkpt lat="47.72848" lon="5.02635">
        <ele>453.01</ele>
        <time>2021-12-13T08:51:18Z</time>
      </trkpt>
      <trkpt lat="47.72847" lon="5.02652">
        <ele>455.47</ele>
        <time>2021-12-13T08:51:32Z</time>
      </trkpt>
      <trkpt lat="47.72843" lon="5.02669">
        <ele>458.11</ele>
        <time>2021-12-13T08:51:44Z</time>
      </trkpt>
      <trkpt lat="47.72842" lon="5.02687">
        <ele>459.82</ele>
        <time>2021-12-13T08:51:56Z</time>
      </trkpt>
      <trkpt lat="47.72841" lon="5.02704">
        <ele>461.65</ele>
        <time>2021-12-13T08:52:06Z</time>
      </trkpt>
      <trkpt lat="47.72839" lon="5.02722">
        <ele>463.96</ele>
        <time>2021-12-13T08:52:20Z</time>
      </trkpt>
      <trkpt lat="47.72839" lon="5.0274">
        <ele>466.28</ele>
        <time>2021-12-13T08:52:32Z</time>
      </trkpt>
      <trkpt lat="47.72838" lon="5.02757">
        <ele>468.62</ele>
        <time>2021-12-13T08:52:46Z</time>
      </trkpt>
      <trkpt lat="47.72838" lon="5.02775">
        <ele>470.68</ele>
        <time>2021-12-13T08:52:59Z</time>
      </trkpt>
      <trkpt lat="47.7284" lon="5.02793">
        <ele>470.56</ele>
        <time>2021-12-13T08:53:11Z</time>
      </trkpt>
      <trkpt lat="47.72843" lon="5.0281">
        <ele>469.97</ele>
        <time>2021-12-13T08:53:24Z</time>
      </trkpt>
      <trkpt lat="47.72849" lon="5.02825">
        <ele>469.01</ele>
        <time>2021-12-13T08:53:36Z</time>
      </trkpt>
      <trkpt lat="47.72855" lon="5.02841">
        <ele>468.59</ele>
        <time>2021-12-13T08:53:49Z</time>
      </trkpt>
      <trkpt lat="47.7286" lon="5.02857">
        <ele>468.87</ele>
        <time>2021-12-13T08:54:05Z</time>
      </trkpt>
      <trkpt lat="47.7286" lon="5.02874">
        <ele>469.12</ele>
        <time>2021-12-13T08:54:21Z</time>
      </trkpt>
      <trkpt lat="47.7286" lon="5.02891">
        <ele>469.08</ele>
        <time>2021-12-13T08:54:33Z</time>
      </trkpt>
      <trkpt lat="47.7286" lon="5.02909">
        <ele>469.11</ele>
        <time>2021-12-13T08:54:46Z</time>
      </trkpt>
      <trkpt lat="47.72864" lon="5.02926">
        <ele>468.66</ele>
        <time>2021-12-13T08:54:59Z</time>
      </trkpt>
      <trkpt lat="47.72858" lon="5.02941">
        <ele>468.66</ele>
        <time>2021-12-13T08:55:34Z</time>
      </trkpt>
      <trkpt lat="47.72848" lon="5.02951">
        <ele>469.89</ele>
        <time>2021-12-13T08:55:49Z</time>
      </trkpt>
      <trkpt lat="47.72839" lon="5.02961">
        <ele>470.79</ele>
        <time>2021-12-13T08:56:02Z</time>
      </trkpt>
      <trkpt lat="47.72827" lon="5.02968">
        <ele>471.5</ele>
        <time>2021-12-13T08:56:14Z</time>
      </trkpt>
      <trkpt lat="47.72815" lon="5.02969">
        <ele>471.82</ele>
        <time>2021-12-13T08:56:26Z</time>
      </trkpt>
      <trkpt lat="47.72803" lon="5.02967">
        <ele>472.54</ele>
        <time>2021-12-13T08:56:39Z</time>
      </trkpt>
      <trkpt lat="47.72791" lon="5.02966">
        <ele>474.2</ele>
        <time>2021-12-13T08:56:54Z</time>
      </trkpt>
      <trkpt lat="47.72779" lon="5.0297">
        <ele>475.83</ele>
        <time>2021-12-13T08:57:05Z</time>
      </trkpt>
      <trkpt lat="47.72768" lon="5.02975">
        <ele>476.36</ele>
        <time>2021-12-13T08:57:16Z</time>
      </trkpt>
      <trkpt lat="47.72758" lon="5.02983">
        <ele>475.54</ele>
        <time>2021-12-13T08:57:29Z</time>
      </trkpt>
      <trkpt lat="47.72747" lon="5.02991">
        <ele>474.09</ele>
        <time>2021-12-13T08:57:43Z</time>
      </trkpt>
      <trkpt lat="47.72736" lon="5.02998">
        <ele>473.37</ele>
        <time>2021-12-13T08:57:54Z</time>
      </trkpt>
      <trkpt lat="47.72725" lon="5.03007">
        <ele>473.55</ele>
        <time>2021-12-13T08:58:04Z</time>
      </trkpt>
      <trkpt lat="47.72714" lon="5.03016">
        <ele>474.44</ele>
        <time>2021-12-13T08:58:13Z</time>
      </trkpt>
      <trkpt lat="47.72703" lon="5.03023">
        <ele>475.37</ele>
        <time>2021-12-13T08:58:22Z</time>
      </trkpt>
      <trkpt lat="47.72692" lon="5.03031">
        <ele>475.64</ele>
        <time>2021-12-13T08:58:33Z</time>
      </trkpt>
      <trkpt lat="47.72681" lon="5.03041">
        <ele>475.04</ele>
        <time>2021-12-13T08:58:42Z</time>
      </trkpt>
      <trkpt lat="47.7267" lon="5.03049">
        <ele>475.17</ele>
        <time>2021-12-13T08:58:52Z</time>
      </trkpt>
      <trkpt lat="47.7266" lon="5.03058">
        <ele>474.01</ele>
        <time>2021-12-13T08:59:01Z</time>
      </trkpt>
      <trkpt lat="47.72649" lon="5.03068">
        <ele>472.44</ele>
        <time>2021-12-13T08:59:10Z</time>
      </trkpt>
      <trkpt lat="47.72638" lon="5.03077">
        <ele>472.02</ele>
        <time>2021-12-13T08:59:20Z</time>
      </trkpt>
      <trkpt lat="47.72628" lon="5.03084">
        <ele>472.43</ele>
        <time>2021-12-13T08:59:25Z</time>
      </trkpt>
      <trkpt lat="47.72622" lon="5.03087">
        <ele>472.82</ele>
        <time>2021-12-13T08:59:31Z</time>
      </trkpt>
      <trkpt lat="47.72616" lon="5.03088">
        <ele>473.13</ele>
        <time>2021-12-13T08:59:37Z</time>
      </trkpt>
      <trkpt lat="47.7261" lon="5.03092">
        <ele>473.61</ele>
        <time>2021-12-13T08:59:43Z</time>
      </trkpt>
      <trkpt lat="47.72604" lon="5.03096">
        <ele>473.8</ele>
        <time>2021-12-13T08:59:47Z</time>
      </trkpt>
      <trkpt lat="47.72598" lon="5.03099">
        <ele>473.86</ele>
        <time>2021-12-13T08:59:51Z</time>
      </trkpt>
      <trkpt lat="47.72592" lon="5.03103">
        <ele>473.93</ele>
        <time>2021-12-13T08:59:55Z</time>
      </trkpt>
      <trkpt lat="47.72586" lon="5.03107">
        <ele>473.93</ele>
        <time>2021-12-13T08:59:59Z</time>
      </trkpt>
      <trkpt lat="47.7258" lon="5.0311">
        <ele>474.08</ele>
        <time>2021-12-13T09:00:04Z</time>
      </trkpt>
      <trkpt lat="47.72574" lon="5.03115">
        <ele>474.38</ele>
        <time>2021-12-13T09:00:09Z</time>
      </trkpt>
      <trkpt lat="47.72568" lon="5.03119">
        <ele>474.52</ele>
        <time>2021-12-13T09:00:13Z</time>
      </trkpt>
      <trkpt lat="47.72562" lon="5.03123">
        <ele>474.54</ele>
        <time>2021-12-13T09:00:15Z</time>
      </trkpt>
      <trkpt lat="47.72559" lon="5.03125">
        <ele>474.5</ele>
        <time>2021-12-13T09:00:17Z</time>
      </trkpt>
      <trkpt lat="47.72555" lon="5.03127">
        <ele>474.42</ele>
        <time>2021-12-13T09:00:20Z</time>
      </trkpt>
      <trkpt lat="47.72552" lon="5.0313">
        <ele>474.28</ele>
        <time>2021-12-13T09:00:23Z</time>
      </trkpt>
      <trkpt lat="47.72549" lon="5.03133">
        <ele>474.16</ele>
        <time>2021-12-13T09:00:26Z</time>
      </trkpt>
      <trkpt lat="47.72547" lon="5.03136">
        <ele>474.07</ele>
        <time>2021-12-13T09:00:28Z</time>
      </trkpt>
      <trkpt lat="47.72545" lon="5.03139">
        <ele>473.99</ele>
        <time>2021-12-13T09:00:31Z</time>
      </trkpt>
      <trkpt lat="47.72542" lon="5.0314">
        <ele>473.94</ele>
        <time>2021-12-13T09:00:36Z</time>
      </trkpt>
      <trkpt lat="47.72539" lon="5.03142">
        <ele>473.84</ele>
        <time>2021-12-13T09:00:40Z</time>
      </trkpt>
      <trkpt lat="47.72536" lon="5.03143">
        <ele>473.81</ele>
        <time>2021-12-13T09:00:43Z</time>
      </trkpt>
      <trkpt lat="47.72533" lon="5.03146">
        <ele>473.7</ele>
        <time>2021-12-13T09:00:46Z</time>
      </trkpt>
      <trkpt lat="47.7253" lon="5.03149">
        <ele>473.61</ele>
        <time>2021-12-13T09:00:49Z</time>
      </trkpt>
      <trkpt lat="47.72527" lon="5.03151">
        <ele>473.66</ele>
        <time>2021-12-13T09:00:51Z</time>
      </trkpt>
      <trkpt lat="47.72524" lon="5.03154">
        <ele>473.94</ele>
        <time>2021-12-13T09:00:54Z</time>
      </trkpt>
      <trkpt lat="47.72521" lon="5.03157">
        <ele>474.24</ele>
        <time>2021-12-13T09:00:56Z</time>
      </trkpt>
      <trkpt lat="47.72518" lon="5.0316">
        <ele>474.56</ele>
        <time>2021-12-13T09:00:59Z</time>
      </trkpt>
      <trkpt lat="47.72515" lon="5.03162">
        <ele>474.93</ele>
        <time>2021-12-13T09:01:01Z</time>
      </trkpt>
      <trkpt lat="47.7251" lon="5.03164">
        <ele>475.59</ele>
        <time>2021-12-13T09:01:03Z</time>
      </trkpt>
      <trkpt lat="47.72507" lon="5.03165">
        <ele>476.01</ele>
        <time>2021-12-13T09:01:05Z</time>
      </trkpt>
      <trkpt lat="47.72504" lon="5.03167">
        <ele>476.41</ele>
        <time>2021-12-13T09:01:08Z</time>
      </trkpt>
      <trkpt lat="47.72501" lon="5.03169">
        <ele>476.77</ele>
        <time>2021-12-13T09:01:10Z</time>
      </trkpt>
      <trkpt lat="47.72499" lon="5.03172">
        <ele>476.78</ele>
        <time>2021-12-13T09:01:12Z</time>
      </trkpt>
      <trkpt lat="47.72496" lon="5.03176">
        <ele>476.57</ele>
        <time>2021-12-13T09:01:14Z</time>
      </trkpt>
      <trkpt lat="47.72494" lon="5.03178">
        <ele>476.46</ele>
        <time>2021-12-13T09:01:17Z</time>
      </trkpt>
      <trkpt lat="47.72491" lon="5.03182">
        <ele>476.3</ele>
        <time>2021-12-13T09:01:23Z</time>
      </trkpt>
      <trkpt lat="47.72489" lon="5.03184">
        <ele>476.23</ele>
        <time>2021-12-13T09:01:25Z</time>
      </trkpt>
      <trkpt lat="47.72486" lon="5.03187">
        <ele>476.13</ele>
        <time>2021-12-13T09:01:27Z</time>
      </trkpt>
      <trkpt lat="47.72483" lon="5.03189">
        <ele>476.08</ele>
        <time>2021-12-13T09:01:30Z</time>
      </trkpt>
      <trkpt lat="47.72481" lon="5.03189">
        <ele>476.06</ele>
        <time>2021-12-13T09:01:36Z</time>
      </trkpt>
      <trkpt lat="47.72478" lon="5.03189">
        <ele>476.04</ele>
        <time>2021-12-13T09:01:39Z</time>
      </trkpt>
      <trkpt lat="47.72475" lon="5.03191">
        <ele>476.01</ele>
        <time>2021-12-13T09:01:41Z</time>
      </trkpt>
      <trkpt lat="47.72473" lon="5.03193">
        <ele>476</ele>
        <time>2021-12-13T09:01:43Z</time>
      </trkpt>
      <trkpt lat="47.7247" lon="5.03195">
        <ele>475.84</ele>
        <time>2021-12-13T09:01:46Z</time>
      </trkpt>
      <trkpt lat="47.72467" lon="5.03198">
        <ele>475.65</ele>
        <time>2021-12-13T09:01:48Z</time>
      </trkpt>
      <trkpt lat="47.72464" lon="5.03202">
        <ele>475.49</ele>
        <time>2021-12-13T09:01:50Z</time>
      </trkpt>
      <trkpt lat="47.7246" lon="5.03205">
        <ele>475.29</ele>
        <time>2021-12-13T09:01:52Z</time>
      </trkpt>
      <trkpt lat="47.72458" lon="5.03207">
        <ele>475.21</ele>
        <time>2021-12-13T09:01:54Z</time>
      </trkpt>
      <trkpt lat="47.72455" lon="5.0321">
        <ele>475.11</ele>
        <time>2021-12-13T09:01:57Z</time>
      </trkpt>
      <trkpt lat="47.72453" lon="5.03212">
        <ele>475.05</ele>
        <time>2021-12-13T09:02:02Z</time>
      </trkpt>
      <trkpt lat="47.7245" lon="5.03214">
        <ele>474.96</ele>
        <time>2021-12-13T09:02:07Z</time>
      </trkpt>
      <trkpt lat="47.72447" lon="5.03215">
        <ele>474.86</ele>
        <time>2021-12-13T09:02:10Z</time>
      </trkpt>
      <trkpt lat="47.72442" lon="5.03217">
        <ele>474.51</ele>
        <time>2021-12-13T09:02:14Z</time>
      </trkpt>
      <trkpt lat="47.72437" lon="5.03221">
        <ele>473.92</ele>
        <time>2021-12-13T09:02:16Z</time>
      </trkpt>
      <trkpt lat="47.72434" lon="5.03222">
        <ele>473.5</ele>
        <time>2021-12-13T09:02:19Z</time>
      </trkpt>
      <trkpt lat="47.72431" lon="5.03224">
        <ele>473.16</ele>
        <time>2021-12-13T09:02:22Z</time>
      </trkpt>
      <trkpt lat="47.72428" lon="5.03227">
        <ele>472.91</ele>
        <time>2021-12-13T09:02:24Z</time>
      </trkpt>
      <trkpt lat="47.72425" lon="5.03229">
        <ele>472.61</ele>
        <time>2021-12-13T09:02:26Z</time>
      </trkpt>
      <trkpt lat="47.72427" lon="5.03226">
        <ele>472.71</ele>
        <time>2021-12-13T09:03:28Z</time>
      </trkpt>
      <trkpt lat="47.72426" lon="5.03222">
        <ele>472.35</ele>
        <time>2021-12-13T09:03:50Z</time>
      </trkpt>
      <trkpt lat="47.72436" lon="5.03232">
        <ele>474.24</ele>
        <time>2021-12-13T09:04:12Z</time>
      </trkpt>
      <trkpt lat="47.72445" lon="5.03242">
        <ele>475.76</ele>
        <time>2021-12-13T09:04:32Z</time>
      </trkpt>
      <trkpt lat="47.72434" lon="5.0324">
        <ele>474.38</ele>
        <time>2021-12-13T09:05:50Z</time>
      </trkpt>
      <trkpt lat="47.72426" lon="5.03227">
        <ele>472.63</ele>
        <time>2021-12-13T09:06:55Z</time>
      </trkpt>
      <trkpt lat="47.72416" lon="5.03218">
        <ele>471.34</ele>
        <time>2021-12-13T09:07:26Z</time>
      </trkpt>
      <trkpt lat="47.72407" lon="5.03206">
        <ele>472.46</ele>
        <time>2021-12-13T09:07:43Z</time>
      </trkpt>
      <trkpt lat="47.72397" lon="5.03195">
        <ele>472.99</ele>
        <time>2021-12-13T09:07:54Z</time>
      </trkpt>
      <trkpt lat="47.72387" lon="5.03185">
        <ele>473.34</ele>
        <time>2021-12-13T09:08:04Z</time>
      </trkpt>
      <trkpt lat="47.72377" lon="5.03175">
        <ele>473.23</ele>
        <time>2021-12-13T09:08:13Z</time>
      </trkpt>
      <trkpt lat="47.72366" lon="5.03166">
        <ele>472.32</ele>
        <time>2021-12-13T09:08:24Z</time>
      </trkpt>
      <trkpt lat="47.72357" lon="5.03155">
        <ele>471.73</ele>
        <time>2021-12-13T09:08:36Z</time>
      </trkpt>
      <trkpt lat="47.72347" lon="5.03144">
        <ele>471.69</ele>
        <time>2021-12-13T09:08:47Z</time>
      </trkpt>
      <trkpt lat="47.72338" lon="5.03132">
        <ele>470.72</ele>
        <time>2021-12-13T09:08:55Z</time>
      </trkpt>
      <trkpt lat="47.72329" lon="5.0312">
        <ele>468.86</ele>
        <time>2021-12-13T09:09:04Z</time>
      </trkpt>
      <trkpt lat="47.7232" lon="5.03109">
        <ele>467.51</ele>
        <time>2021-12-13T09:09:13Z</time>
      </trkpt>
      <trkpt lat="47.72314" lon="5.03094">
        <ele>464.21</ele>
        <time>2021-12-13T09:09:24Z</time>
      </trkpt>
      <trkpt lat="47.72314" lon="5.03076">
        <ele>460.71</ele>
        <time>2021-12-13T09:09:36Z</time>
      </trkpt>
      <trkpt lat="47.72309" lon="5.03059">
        <ele>457.96</ele>
        <time>2021-12-13T09:09:46Z</time>
      </trkpt>
      <trkpt lat="47.72303" lon="5.03043">
        <ele>458.41</ele>
        <time>2021-12-13T09:09:59Z</time>
      </trkpt>
      <trkpt lat="47.72298" lon="5.03027">
        <ele>460.05</ele>
        <time>2021-12-13T09:10:11Z</time>
      </trkpt>
      <trkpt lat="47.72294" lon="5.0301">
        <ele>461.44</ele>
        <time>2021-12-13T09:10:19Z</time>
      </trkpt>
      <trkpt lat="47.72292" lon="5.02993">
        <ele>463.08</ele>
        <time>2021-12-13T09:10:32Z</time>
      </trkpt>
      <trkpt lat="47.72288" lon="5.02976">
        <ele>465.4</ele>
        <time>2021-12-13T09:10:42Z</time>
      </trkpt>
      <trkpt lat="47.72282" lon="5.02961">
        <ele>468.18</ele>
        <time>2021-12-13T09:10:51Z</time>
      </trkpt>
      <trkpt lat="47.72277" lon="5.02944">
        <ele>471.08</ele>
        <time>2021-12-13T09:11:02Z</time>
      </trkpt>
      <trkpt lat="47.72281" lon="5.02928">
        <ele>471.92</ele>
        <time>2021-12-13T09:11:17Z</time>
      </trkpt>
      <trkpt lat="47.72288" lon="5.02912">
        <ele>472.34</ele>
        <time>2021-12-13T09:11:26Z</time>
      </trkpt>
      <trkpt lat="47.72293" lon="5.02894">
        <ele>475.22</ele>
        <time>2021-12-13T09:11:34Z</time>
      </trkpt>
      <trkpt lat="47.72297" lon="5.02877">
        <ele>475.63</ele>
        <time>2021-12-13T09:11:43Z</time>
      </trkpt>
      <trkpt lat="47.72303" lon="5.02861">
        <ele>474.38</ele>
        <time>2021-12-13T09:11:55Z</time>
      </trkpt>
      <trkpt lat="47.72308" lon="5.02844">
        <ele>475.18</ele>
        <time>2021-12-13T09:12:06Z</time>
      </trkpt>
      <trkpt lat="47.72308" lon="5.02827">
        <ele>476.54</ele>
        <time>2021-12-13T09:12:18Z</time>
      </trkpt>
      <trkpt lat="47.72308" lon="5.02809">
        <ele>477.25</ele>
        <time>2021-12-13T09:12:31Z</time>
      </trkpt>
      <trkpt lat="47.72308" lon="5.02791">
        <ele>476.43</ele>
        <time>2021-12-13T09:12:42Z</time>
      </trkpt>
      <trkpt lat="47.72308" lon="5.02781">
        <ele>475.77</ele>
        <time>2021-12-13T09:12:48Z</time>
      </trkpt>
      <trkpt lat="47.72307" lon="5.02764">
        <ele>474.28</ele>
        <time>2021-12-13T09:13:05Z</time>
      </trkpt>
      <trkpt lat="47.72301" lon="5.02747">
        <ele>473.04</ele>
        <time>2021-12-13T09:13:18Z</time>
      </trkpt>
      <trkpt lat="47.72294" lon="5.02732">
        <ele>472.43</ele>
        <time>2021-12-13T09:13:25Z</time>
      </trkpt>
      <trkpt lat="47.72286" lon="5.02717">
        <ele>472.82</ele>
        <time>2021-12-13T09:13:33Z</time>
      </trkpt>
      <trkpt lat="47.7228" lon="5.02701">
        <ele>473.68</ele>
        <time>2021-12-13T09:13:41Z</time>
      </trkpt>
      <trkpt lat="47.72274" lon="5.02685">
        <ele>473.57</ele>
        <time>2021-12-13T09:13:52Z</time>
      </trkpt>
      <trkpt lat="47.72266" lon="5.02671">
        <ele>473.09</ele>
        <time>2021-12-13T09:14:05Z</time>
      </trkpt>
      <trkpt lat="47.72257" lon="5.02658">
        <ele>472.92</ele>
        <time>2021-12-13T09:14:16Z</time>
      </trkpt>
      <trkpt lat="47.72251" lon="5.02643">
        <ele>472.97</ele>
        <time>2021-12-13T09:14:23Z</time>
      </trkpt>
      <trkpt lat="47.72247" lon="5.02626">
        <ele>473.99</ele>
        <time>2021-12-13T09:14:32Z</time>
      </trkpt>
      <trkpt lat="47.72245" lon="5.02609">
        <ele>475</ele>
        <time>2021-12-13T09:14:40Z</time>
      </trkpt>
      <trkpt lat="47.7224" lon="5.02592">
        <ele>475</ele>
        <time>2021-12-13T09:14:52Z</time>
      </trkpt>
      <trkpt lat="47.72234" lon="5.02578">
        <ele>474.92</ele>
        <time>2021-12-13T09:15:03Z</time>
      </trkpt>
      <trkpt lat="47.72228" lon="5.02562">
        <ele>474.84</ele>
        <time>2021-12-13T09:15:13Z</time>
      </trkpt>
      <trkpt lat="47.72223" lon="5.02545">
        <ele>475.34</ele>
        <time>2021-12-13T09:15:22Z</time>
      </trkpt>
      <trkpt lat="47.72219" lon="5.02528">
        <ele>475.99</ele>
        <time>2021-12-13T09:15:33Z</time>
      </trkpt>
      <trkpt lat="47.72216" lon="5.02511">
        <ele>474.79</ele>
        <time>2021-12-13T09:15:44Z</time>
      </trkpt>
      <trkpt lat="47.72214" lon="5.02493">
        <ele>473.57</ele>
        <time>2021-12-13T09:15:52Z</time>
      </trkpt>
      <trkpt lat="47.72214" lon="5.02475">
        <ele>472.47</ele>
        <time>2021-12-13T09:15:59Z</time>
      </trkpt>
      <trkpt lat="47.72214" lon="5.02457">
        <ele>472.13</ele>
        <time>2021-12-13T09:16:07Z</time>
      </trkpt>
      <trkpt lat="47.72215" lon="5.02439">
        <ele>471.91</ele>
        <time>2021-12-13T09:16:16Z</time>
      </trkpt>
      <trkpt lat="47.72216" lon="5.02422">
        <ele>471.55</ele>
        <time>2021-12-13T09:16:26Z</time>
      </trkpt>
      <trkpt lat="47.72217" lon="5.02404">
        <ele>471.01</ele>
        <time>2021-12-13T09:16:40Z</time>
      </trkpt>
      <trkpt lat="47.72219" lon="5.02386">
        <ele>470.54</ele>
        <time>2021-12-13T09:16:51Z</time>
      </trkpt>
      <trkpt lat="47.72222" lon="5.02368">
        <ele>471.52</ele>
        <time>2021-12-13T09:17:03Z</time>
      </trkpt>
      <trkpt lat="47.72224" lon="5.02352">
        <ele>472.57</ele>
        <time>2021-12-13T09:17:12Z</time>
      </trkpt>
      <trkpt lat="47.72227" lon="5.02334">
        <ele>473.61</ele>
        <time>2021-12-13T09:17:24Z</time>
      </trkpt>
      <trkpt lat="47.72229" lon="5.02317">
        <ele>474.83</ele>
        <time>2021-12-13T09:17:34Z</time>
      </trkpt>
      <trkpt lat="47.7223" lon="5.02298">
        <ele>475.37</ele>
        <time>2021-12-13T09:17:44Z</time>
      </trkpt>
      <trkpt lat="47.72232" lon="5.0228">
        <ele>474.4</ele>
        <time>2021-12-13T09:17:54Z</time>
      </trkpt>
      <trkpt lat="47.72231" lon="5.02262">
        <ele>473.8</ele>
        <time>2021-12-13T09:18:02Z</time>
      </trkpt>
      <trkpt lat="47.72231" lon="5.02244">
        <ele>473.23</ele>
        <time>2021-12-13T09:18:09Z</time>
      </trkpt>
      <trkpt lat="47.72231" lon="5.02226">
        <ele>472.82</ele>
        <time>2021-12-13T09:18:18Z</time>
      </trkpt>
      <trkpt lat="47.72234" lon="5.02209">
        <ele>472.03</ele>
        <time>2021-12-13T09:18:32Z</time>
      </trkpt>
      <trkpt lat="47.72231" lon="5.02192">
        <ele>472.08</ele>
        <time>2021-12-13T09:18:54Z</time>
      </trkpt>
      <trkpt lat="47.72238" lon="5.02177">
        <ele>471.21</ele>
        <time>2021-12-13T09:19:36Z</time>
      </trkpt>
      <trkpt lat="47.7225" lon="5.02172">
        <ele>469.19</ele>
        <time>2021-12-13T09:19:48Z</time>
      </trkpt>
      <trkpt lat="47.72261" lon="5.02166">
        <ele>468.24</ele>
        <time>2021-12-13T09:20:00Z</time>
      </trkpt>
      <trkpt lat="47.72271" lon="5.02157">
        <ele>467.66</ele>
        <time>2021-12-13T09:20:13Z</time>
      </trkpt>
      <trkpt lat="47.72281" lon="5.02148">
        <ele>466.38</ele>
        <time>2021-12-13T09:20:24Z</time>
      </trkpt>
      <trkpt lat="47.72291" lon="5.0214">
        <ele>464.6</ele>
        <time>2021-12-13T09:20:35Z</time>
      </trkpt>
      <trkpt lat="47.72303" lon="5.02131">
        <ele>462.49</ele>
        <time>2021-12-13T09:20:46Z</time>
      </trkpt>
      <trkpt lat="47.72313" lon="5.02123">
        <ele>463.23</ele>
        <time>2021-12-13T09:20:55Z</time>
      </trkpt>
      <trkpt lat="47.72325" lon="5.02116">
        <ele>465.38</ele>
        <time>2021-12-13T09:21:06Z</time>
      </trkpt>
      <trkpt lat="47.72335" lon="5.02106">
        <ele>467.48</ele>
        <time>2021-12-13T09:21:17Z</time>
      </trkpt>
      <trkpt lat="47.72345" lon="5.02096">
        <ele>469.64</ele>
        <time>2021-12-13T09:21:27Z</time>
      </trkpt>
      <trkpt lat="47.72353" lon="5.02088">
        <ele>471.37</ele>
        <time>2021-12-13T09:21:36Z</time>
      </trkpt>
      <trkpt lat="47.72359" lon="5.0208">
        <ele>472.73</ele>
        <time>2021-12-13T09:21:41Z</time>
      </trkpt>
      <trkpt lat="47.72364" lon="5.02075">
        <ele>473.92</ele>
        <time>2021-12-13T09:21:46Z</time>
      </trkpt>
      <trkpt lat="47.72369" lon="5.0207">
        <ele>475.18</ele>
        <time>2021-12-13T09:21:52Z</time>
      </trkpt>
      <trkpt lat="47.72373" lon="5.02066">
        <ele>476.19</ele>
        <time>2021-12-13T09:21:55Z</time>
      </trkpt>
      <trkpt lat="47.72376" lon="5.02064">
        <ele>476.91</ele>
        <time>2021-12-13T09:21:58Z</time>
      </trkpt>
      <trkpt lat="47.72379" lon="5.02064">
        <ele>477.56</ele>
        <time>2021-12-13T09:22:01Z</time>
      </trkpt>
      <trkpt lat="47.72383" lon="5.02065">
        <ele>478.39</ele>
        <time>2021-12-13T09:22:04Z</time>
      </trkpt>
      <trkpt lat="47.72386" lon="5.02064">
        <ele>479.07</ele>
        <time>2021-12-13T09:22:06Z</time>
      </trkpt>
      <trkpt lat="47.7239" lon="5.02063">
        <ele>479.75</ele>
        <time>2021-12-13T09:22:08Z</time>
      </trkpt>
      <trkpt lat="47.72393" lon="5.02062">
        <ele>479.85</ele>
        <time>2021-12-13T09:22:10Z</time>
      </trkpt>
      <trkpt lat="47.72396" lon="5.02061">
        <ele>479.96</ele>
        <time>2021-12-13T09:22:13Z</time>
      </trkpt>
      <trkpt lat="47.72399" lon="5.02058">
        <ele>480.21</ele>
        <time>2021-12-13T09:22:16Z</time>
      </trkpt>
      <trkpt lat="47.72402" lon="5.02057">
        <ele>480.37</ele>
        <time>2021-12-13T09:22:19Z</time>
      </trkpt>
      <trkpt lat="47.72405" lon="5.02055">
        <ele>480.57</ele>
        <time>2021-12-13T09:22:22Z</time>
      </trkpt>
      <trkpt lat="47.72409" lon="5.02053">
        <ele>480.66</ele>
        <time>2021-12-13T09:22:25Z</time>
      </trkpt>
      <trkpt lat="47.72412" lon="5.0205">
        <ele>480.67</ele>
        <time>2021-12-13T09:22:28Z</time>
      </trkpt>
      <trkpt lat="47.72414" lon="5.02048">
        <ele>480.66</ele>
        <time>2021-12-13T09:22:31Z</time>
      </trkpt>
      <trkpt lat="47.72417" lon="5.02047">
        <ele>480.7</ele>
        <time>2021-12-13T09:22:34Z</time>
      </trkpt>
      <trkpt lat="47.7242" lon="5.02045">
        <ele>480.76</ele>
        <time>2021-12-13T09:22:38Z</time>
      </trkpt>
      <trkpt lat="47.72422" lon="5.02043">
        <ele>480.81</ele>
        <time>2021-12-13T09:22:41Z</time>
      </trkpt>
      <trkpt lat="47.72425" lon="5.02041">
        <ele>480.95</ele>
        <time>2021-12-13T09:22:44Z</time>
      </trkpt>
      <trkpt lat="47.72428" lon="5.02038">
        <ele>481.14</ele>
        <time>2021-12-13T09:22:48Z</time>
      </trkpt>
      <trkpt lat="47.72431" lon="5.02037">
        <ele>481.37</ele>
        <time>2021-12-13T09:22:53Z</time>
      </trkpt>
      <trkpt lat="47.72434" lon="5.02037">
        <ele>481.58</ele>
        <time>2021-12-13T09:22:59Z</time>
      </trkpt>
      <trkpt lat="47.72436" lon="5.02035">
        <ele>481.81</ele>
        <time>2021-12-13T09:23:04Z</time>
      </trkpt>
      <trkpt lat="47.7244" lon="5.02033">
        <ele>482.23</ele>
        <time>2021-12-13T09:23:07Z</time>
      </trkpt>
      <trkpt lat="47.72443" lon="5.0203">
        <ele>482.7</ele>
        <time>2021-12-13T09:23:09Z</time>
      </trkpt>
      <trkpt lat="47.72446" lon="5.02029">
        <ele>483.03</ele>
        <time>2021-12-13T09:23:11Z</time>
      </trkpt>
      <trkpt lat="47.7245" lon="5.02027">
        <ele>483.37</ele>
        <time>2021-12-13T09:23:14Z</time>
      </trkpt>
      <trkpt lat="47.72453" lon="5.02026">
        <ele>483.55</ele>
        <time>2021-12-13T09:23:17Z</time>
      </trkpt>
      <trkpt lat="47.72456" lon="5.02025">
        <ele>483.73</ele>
        <time>2021-12-13T09:23:20Z</time>
      </trkpt>
      <trkpt lat="47.72459" lon="5.02024">
        <ele>483.91</ele>
        <time>2021-12-13T09:23:23Z</time>
      </trkpt>
      <trkpt lat="47.72462" lon="5.02023">
        <ele>484.09</ele>
        <time>2021-12-13T09:23:26Z</time>
      </trkpt>
      <trkpt lat="47.72465" lon="5.02023">
        <ele>484.31</ele>
        <time>2021-12-13T09:23:29Z</time>
      </trkpt>
      <trkpt lat="47.72469" lon="5.02022">
        <ele>484.56</ele>
        <time>2021-12-13T09:23:32Z</time>
      </trkpt>
      <trkpt lat="47.72472" lon="5.02021">
        <ele>484.74</ele>
        <time>2021-12-13T09:23:35Z</time>
      </trkpt>
      <trkpt lat="47.72475" lon="5.02018">
        <ele>484.35</ele>
        <time>2021-12-13T09:23:39Z</time>
      </trkpt>
      <trkpt lat="47.72477" lon="5.02015">
        <ele>484.02</ele>
        <time>2021-12-13T09:23:43Z</time>
      </trkpt>
      <trkpt lat="47.72479" lon="5.0201">
        <ele>483.63</ele>
        <time>2021-12-13T09:23:46Z</time>
      </trkpt>
      <trkpt lat="47.72482" lon="5.02006">
        <ele>483.16</ele>
        <time>2021-12-13T09:23:49Z</time>
      </trkpt>
      <trkpt lat="47.72486" lon="5.02003">
        <ele>482.62</ele>
        <time>2021-12-13T09:23:52Z</time>
      </trkpt>
      <trkpt lat="47.72488" lon="5.02001">
        <ele>482.33</ele>
        <time>2021-12-13T09:23:54Z</time>
      </trkpt>
      <trkpt lat="47.72491" lon="5.01998">
        <ele>481.92</ele>
        <time>2021-12-13T09:23:57Z</time>
      </trkpt>
      <trkpt lat="47.72493" lon="5.01994">
        <ele>481.59</ele>
        <time>2021-12-13T09:24:00Z</time>
      </trkpt>
      <trkpt lat="47.72494" lon="5.0199">
        <ele>481.37</ele>
        <time>2021-12-13T09:24:05Z</time>
      </trkpt>
      <trkpt lat="47.72497" lon="5.01989">
        <ele>480.97</ele>
        <time>2021-12-13T09:24:08Z</time>
      </trkpt>
      <trkpt lat="47.725" lon="5.01987">
        <ele>480.53</ele>
        <time>2021-12-13T09:24:11Z</time>
      </trkpt>
      <trkpt lat="47.72503" lon="5.01985">
        <ele>480.24</ele>
        <time>2021-12-13T09:24:14Z</time>
      </trkpt>
      <trkpt lat="47.72505" lon="5.01981">
        <ele>479.96</ele>
        <time>2021-12-13T09:24:18Z</time>
      </trkpt>
      <trkpt lat="47.72506" lon="5.01977">
        <ele>479.74</ele>
        <time>2021-12-13T09:24:22Z</time>
      </trkpt>
      <trkpt lat="47.72505" lon="5.01972">
        <ele>479.64</ele>
        <time>2021-12-13T09:24:27Z</time>
      </trkpt>
      <trkpt lat="47.72503" lon="5.01969">
        <ele>479.8</ele>
        <time>2021-12-13T09:24:30Z</time>
      </trkpt>
      <trkpt lat="47.72501" lon="5.01966">
        <ele>479.94</ele>
        <time>2021-12-13T09:24:34Z</time>
      </trkpt>
      <trkpt lat="47.72499" lon="5.01961">
        <ele>480.13</ele>
        <time>2021-12-13T09:24:38Z</time>
      </trkpt>
      <trkpt lat="47.72498" lon="5.01957">
        <ele>480.25</ele>
        <time>2021-12-13T09:24:42Z</time>
      </trkpt>
      <trkpt lat="47.72496" lon="5.01953">
        <ele>480.48</ele>
        <time>2021-12-13T09:24:46Z</time>
      </trkpt>
      <trkpt lat="47.72493" lon="5.01949">
        <ele>480.8</ele>
        <time>2021-12-13T09:24:50Z</time>
      </trkpt>
      <trkpt lat="47.72492" lon="5.01945">
        <ele>480.87</ele>
        <time>2021-12-13T09:24:53Z</time>
      </trkpt>
      <trkpt lat="47.72491" lon="5.01941">
        <ele>480.85</ele>
        <time>2021-12-13T09:24:56Z</time>
      </trkpt>
      <trkpt lat="47.7249" lon="5.01937">
        <ele>480.81</ele>
        <time>2021-12-13T09:24:59Z</time>
      </trkpt>
      <trkpt lat="47.72488" lon="5.01932">
        <ele>480.85</ele>
        <time>2021-12-13T09:25:02Z</time>
      </trkpt>
      <trkpt lat="47.72487" lon="5.01927">
        <ele>480.78</ele>
        <time>2021-12-13T09:25:05Z</time>
      </trkpt>
      <trkpt lat="47.72485" lon="5.01922">
        <ele>480.81</ele>
        <time>2021-12-13T09:25:08Z</time>
      </trkpt>
      <trkpt lat="47.72484" lon="5.01917">
        <ele>480.74</ele>
        <time>2021-12-13T09:25:11Z</time>
      </trkpt>
      <trkpt lat="47.72483" lon="5.01912">
        <ele>480.84</ele>
        <time>2021-12-13T09:25:13Z</time>
      </trkpt>
      <trkpt lat="47.72481" lon="5.01908">
        <ele>481.05</ele>
        <time>2021-12-13T09:25:15Z</time>
      </trkpt>
      <trkpt lat="47.7248" lon="5.01904">
        <ele>481.16</ele>
        <time>2021-12-13T09:25:17Z</time>
      </trkpt>
      <trkpt lat="47.72478" lon="5.01899">
        <ele>481.38</ele>
        <time>2021-12-13T09:25:20Z</time>
      </trkpt>
      <trkpt lat="47.72476" lon="5.01894">
        <ele>481.59</ele>
        <time>2021-12-13T09:25:23Z</time>
      </trkpt>
      <trkpt lat="47.72474" lon="5.0189">
        <ele>481.81</ele>
        <time>2021-12-13T09:25:25Z</time>
      </trkpt>
      <trkpt lat="47.72472" lon="5.01885">
        <ele>481.98</ele>
        <time>2021-12-13T09:25:28Z</time>
      </trkpt>
      <trkpt lat="47.7247" lon="5.01881">
        <ele>481.76</ele>
        <time>2021-12-13T09:25:30Z</time>
      </trkpt>
      <trkpt lat="47.72469" lon="5.01877">
        <ele>481.65</ele>
        <time>2021-12-13T09:25:32Z</time>
      </trkpt>
      <trkpt lat="47.72467" lon="5.01872">
        <ele>481.44</ele>
        <time>2021-12-13T09:25:35Z</time>
      </trkpt>
      <trkpt lat="47.72465" lon="5.01868">
        <ele>481.22</ele>
        <time>2021-12-13T09:25:38Z</time>
      </trkpt>
      <trkpt lat="47.72464" lon="5.01864">
        <ele>481.11</ele>
        <time>2021-12-13T09:25:42Z</time>
      </trkpt>
      <trkpt lat="47.72463" lon="5.0186">
        <ele>481.02</ele>
        <time>2021-12-13T09:25:46Z</time>
      </trkpt>
      <trkpt lat="47.72462" lon="5.01856">
        <ele>480.96</ele>
        <time>2021-12-13T09:25:50Z</time>
      </trkpt>
      <trkpt lat="47.72462" lon="5.01851">
        <ele>481.03</ele>
        <time>2021-12-13T09:25:53Z</time>
      </trkpt>
      <trkpt lat="47.72462" lon="5.01846">
        <ele>481.1</ele>
        <time>2021-12-13T09:25:57Z</time>
      </trkpt>
      <trkpt lat="47.72459" lon="5.01842">
        <ele>480.9</ele>
        <time>2021-12-13T09:26:01Z</time>
      </trkpt>
      <trkpt lat="47.72457" lon="5.01838">
        <ele>480.81</ele>
        <time>2021-12-13T09:26:04Z</time>
      </trkpt>
      <trkpt lat="47.72455" lon="5.01835">
        <ele>480.72</ele>
        <time>2021-12-13T09:26:06Z</time>
      </trkpt>
      <trkpt lat="47.72454" lon="5.0183">
        <ele>480.89</ele>
        <time>2021-12-13T09:26:08Z</time>
      </trkpt>
      <trkpt lat="47.72452" lon="5.01827">
        <ele>480.94</ele>
        <time>2021-12-13T09:26:10Z</time>
      </trkpt>
      <trkpt lat="47.72451" lon="5.01823">
        <ele>481.13</ele>
        <time>2021-12-13T09:26:12Z</time>
      </trkpt>
      <trkpt lat="47.72449" lon="5.01819">
        <ele>481.28</ele>
        <time>2021-12-13T09:26:15Z</time>
      </trkpt>
      <trkpt lat="47.72448" lon="5.01816">
        <ele>481.42</ele>
        <time>2021-12-13T09:26:18Z</time>
      </trkpt>
      <trkpt lat="47.72447" lon="5.0181">
        <ele>481.79</ele>
        <time>2021-12-13T09:26:22Z</time>
      </trkpt>
      <trkpt lat="47.72447" lon="5.01806">
        <ele>482.06</ele>
        <time>2021-12-13T09:26:26Z</time>
      </trkpt>
      <trkpt lat="47.72444" lon="5.01802">
        <ele>482.11</ele>
        <time>2021-12-13T09:26:33Z</time>
      </trkpt>
      <trkpt lat="47.72442" lon="5.01797">
        <ele>482.19</ele>
        <time>2021-12-13T09:26:36Z</time>
      </trkpt>
      <trkpt lat="47.72441" lon="5.01792">
        <ele>482.3</ele>
        <time>2021-12-13T09:26:38Z</time>
      </trkpt>
      <trkpt lat="47.7244" lon="5.01788">
        <ele>482.37</ele>
        <time>2021-12-13T09:26:40Z</time>
      </trkpt>
      <trkpt lat="47.72439" lon="5.01784">
        <ele>482.43</ele>
        <time>2021-12-13T09:26:42Z</time>
      </trkpt>
      <trkpt lat="47.72437" lon="5.01779">
        <ele>482.43</ele>
        <time>2021-12-13T09:26:45Z</time>
      </trkpt>
      <trkpt lat="47.72436" lon="5.01775">
        <ele>482.39</ele>
        <time>2021-12-13T09:26:49Z</time>
      </trkpt>
      <trkpt lat="47.72434" lon="5.01771">
        <ele>482.25</ele>
        <time>2021-12-13T09:26:53Z</time>
      </trkpt>
      <trkpt lat="47.72433" lon="5.01768">
        <ele>482.18</ele>
        <time>2021-12-13T09:26:56Z</time>
      </trkpt>
      <trkpt lat="47.72431" lon="5.01763">
        <ele>482.03</ele>
        <time>2021-12-13T09:26:59Z</time>
      </trkpt>
      <trkpt lat="47.72429" lon="5.01758">
        <ele>481.89</ele>
        <time>2021-12-13T09:27:02Z</time>
      </trkpt>
      <trkpt lat="47.72427" lon="5.01754">
        <ele>481.74</ele>
        <time>2021-12-13T09:27:06Z</time>
      </trkpt>
      <trkpt lat="47.72426" lon="5.01749">
        <ele>481.7</ele>
        <time>2021-12-13T09:27:10Z</time>
      </trkpt>
      <trkpt lat="47.72425" lon="5.01744">
        <ele>481.75</ele>
        <time>2021-12-13T09:27:14Z</time>
      </trkpt>
      <trkpt lat="47.72424" lon="5.01739">
        <ele>481.82</ele>
        <time>2021-12-13T09:27:17Z</time>
      </trkpt>
      <trkpt lat="47.72423" lon="5.01735">
        <ele>481.87</ele>
        <time>2021-12-13T09:27:19Z</time>
      </trkpt>
      <trkpt lat="47.72421" lon="5.0173">
        <ele>481.92</ele>
        <time>2021-12-13T09:27:22Z</time>
      </trkpt>
      <trkpt lat="47.7242" lon="5.01725">
        <ele>482.03</ele>
        <time>2021-12-13T09:27:25Z</time>
      </trkpt>
      <trkpt lat="47.72418" lon="5.0172">
        <ele>482.05</ele>
        <time>2021-12-13T09:27:28Z</time>
      </trkpt>
      <trkpt lat="47.72417" lon="5.01715">
        <ele>482.01</ele>
        <time>2021-12-13T09:27:31Z</time>
      </trkpt>
      <trkpt lat="47.72416" lon="5.0171">
        <ele>482.06</ele>
        <time>2021-12-13T09:27:33Z</time>
      </trkpt>
      <trkpt lat="47.72414" lon="5.01704">
        <ele>482.23</ele>
        <time>2021-12-13T09:27:35Z</time>
      </trkpt>
      <trkpt lat="47.72411" lon="5.01698">
        <ele>482.43</ele>
        <time>2021-12-13T09:27:37Z</time>
      </trkpt>
      <trkpt lat="47.72409" lon="5.01694">
        <ele>482.53</ele>
        <time>2021-12-13T09:27:39Z</time>
      </trkpt>
      <trkpt lat="47.72407" lon="5.01689">
        <ele>482.36</ele>
        <time>2021-12-13T09:27:41Z</time>
      </trkpt>
      <trkpt lat="47.72406" lon="5.01685">
        <ele>482.17</ele>
        <time>2021-12-13T09:27:43Z</time>
      </trkpt>
      <trkpt lat="47.72404" lon="5.0168">
        <ele>481.92</ele>
        <time>2021-12-13T09:27:46Z</time>
      </trkpt>
      <trkpt lat="47.72403" lon="5.01676">
        <ele>481.67</ele>
        <time>2021-12-13T09:27:50Z</time>
      </trkpt>
      <trkpt lat="47.72402" lon="5.01672">
        <ele>481.39</ele>
        <time>2021-12-13T09:27:54Z</time>
      </trkpt>
      <trkpt lat="47.724" lon="5.01668">
        <ele>481.11</ele>
        <time>2021-12-13T09:27:58Z</time>
      </trkpt>
      <trkpt lat="47.72399" lon="5.01665">
        <ele>480.82</ele>
        <time>2021-12-13T09:28:01Z</time>
      </trkpt>
      <trkpt lat="47.72398" lon="5.01661">
        <ele>480.39</ele>
        <time>2021-12-13T09:28:04Z</time>
      </trkpt>
      <trkpt lat="47.72396" lon="5.01655">
        <ele>479.74</ele>
        <time>2021-12-13T09:28:07Z</time>
      </trkpt>
      <trkpt lat="47.72395" lon="5.0165">
        <ele>479.2</ele>
        <time>2021-12-13T09:28:10Z</time>
      </trkpt>
      <trkpt lat="47.72393" lon="5.01645">
        <ele>478.66</ele>
        <time>2021-12-13T09:28:13Z</time>
      </trkpt>
      <trkpt lat="47.72393" lon="5.01641">
        <ele>478.23</ele>
        <time>2021-12-13T09:28:15Z</time>
      </trkpt>
      <trkpt lat="47.72391" lon="5.01634">
        <ele>477.31</ele>
        <time>2021-12-13T09:28:17Z</time>
      </trkpt>
      <trkpt lat="47.72389" lon="5.01627">
        <ele>476.29</ele>
        <time>2021-12-13T09:28:19Z</time>
      </trkpt>
      <trkpt lat="47.72388" lon="5.01624">
        <ele>475.91</ele>
        <time>2021-12-13T09:28:21Z</time>
      </trkpt>
      <trkpt lat="47.72386" lon="5.01619">
        <ele>475.31</ele>
        <time>2021-12-13T09:28:24Z</time>
      </trkpt>
      <trkpt lat="47.72384" lon="5.01616">
        <ele>475.03</ele>
        <time>2021-12-13T09:28:27Z</time>
      </trkpt>
      <trkpt lat="47.72383" lon="5.01612">
        <ele>474.55</ele>
        <time>2021-12-13T09:28:30Z</time>
      </trkpt>
      <trkpt lat="47.72381" lon="5.01608">
        <ele>474.7</ele>
        <time>2021-12-13T09:28:33Z</time>
      </trkpt>
      <trkpt lat="47.72379" lon="5.01604">
        <ele>474.95</ele>
        <time>2021-12-13T09:28:35Z</time>
      </trkpt>
      <trkpt lat="47.72378" lon="5.01599">
        <ele>475.14</ele>
        <time>2021-12-13T09:28:37Z</time>
      </trkpt>
      <trkpt lat="47.72377" lon="5.01595">
        <ele>475.27</ele>
        <time>2021-12-13T09:28:39Z</time>
      </trkpt>
      <trkpt lat="47.72375" lon="5.0159">
        <ele>475.38</ele>
        <time>2021-12-13T09:28:42Z</time>
      </trkpt>
      <trkpt lat="47.72374" lon="5.01586">
        <ele>475.43</ele>
        <time>2021-12-13T09:28:45Z</time>
      </trkpt>
      <trkpt lat="47.72372" lon="5.01582">
        <ele>475.45</ele>
        <time>2021-12-13T09:28:49Z</time>
      </trkpt>
      <trkpt lat="47.72371" lon="5.01578">
        <ele>475.6</ele>
        <time>2021-12-13T09:28:52Z</time>
      </trkpt>
      <trkpt lat="47.72369" lon="5.01575">
        <ele>475.71</ele>
        <time>2021-12-13T09:28:55Z</time>
      </trkpt>
      <trkpt lat="47.72366" lon="5.01571">
        <ele>475.91</ele>
        <time>2021-12-13T09:28:58Z</time>
      </trkpt>
      <trkpt lat="47.72365" lon="5.01566">
        <ele>476.21</ele>
        <time>2021-12-13T09:29:01Z</time>
      </trkpt>
      <trkpt lat="47.72363" lon="5.0156">
        <ele>476.63</ele>
        <time>2021-12-13T09:29:04Z</time>
      </trkpt>
      <trkpt lat="47.72362" lon="5.01553">
        <ele>476.7</ele>
        <time>2021-12-13T09:29:06Z</time>
      </trkpt>
      <trkpt lat="47.7236" lon="5.01548">
        <ele>476.22</ele>
        <time>2021-12-13T09:29:08Z</time>
      </trkpt>
      <trkpt lat="47.72359" lon="5.01543">
        <ele>475.72</ele>
        <time>2021-12-13T09:29:10Z</time>
      </trkpt>
      <trkpt lat="47.72357" lon="5.0154">
        <ele>475.47</ele>
        <time>2021-12-13T09:29:12Z</time>
      </trkpt>
      <trkpt lat="47.72355" lon="5.01536">
        <ele>475.11</ele>
        <time>2021-12-13T09:29:14Z</time>
      </trkpt>
      <trkpt lat="47.72354" lon="5.01531">
        <ele>474.6</ele>
        <time>2021-12-13T09:29:17Z</time>
      </trkpt>
      <trkpt lat="47.72353" lon="5.01526">
        <ele>473.95</ele>
        <time>2021-12-13T09:29:20Z</time>
      </trkpt>
      <trkpt lat="47.72352" lon="5.01522">
        <ele>473.22</ele>
        <time>2021-12-13T09:29:23Z</time>
      </trkpt>
      <trkpt lat="47.7235" lon="5.01518">
        <ele>472.5</ele>
        <time>2021-12-13T09:29:26Z</time>
      </trkpt>
      <trkpt lat="47.72348" lon="5.01514">
        <ele>471.76</ele>
        <time>2021-12-13T09:29:28Z</time>
      </trkpt>
      <trkpt lat="47.72346" lon="5.01509">
        <ele>470.8</ele>
        <time>2021-12-13T09:29:31Z</time>
      </trkpt>
      <trkpt lat="47.72345" lon="5.01505">
        <ele>470</ele>
        <time>2021-12-13T09:29:34Z</time>
      </trkpt>
      <trkpt lat="47.72345" lon="5.01501">
        <ele>469.2</ele>
        <time>2021-12-13T09:29:38Z</time>
      </trkpt>
      <trkpt lat="47.72344" lon="5.01496">
        <ele>468.42</ele>
        <time>2021-12-13T09:29:43Z</time>
      </trkpt>
      <trkpt lat="47.72342" lon="5.01492">
        <ele>467.85</ele>
        <time>2021-12-13T09:29:46Z</time>
      </trkpt>
      <trkpt lat="47.7234" lon="5.01487">
        <ele>467.13</ele>
        <time>2021-12-13T09:29:49Z</time>
      </trkpt>
      <trkpt lat="47.72338" lon="5.01484">
        <ele>466.7</ele>
        <time>2021-12-13T09:29:52Z</time>
      </trkpt>
      <trkpt lat="47.72335" lon="5.01481">
        <ele>466.26</ele>
        <time>2021-12-13T09:29:55Z</time>
      </trkpt>
      <trkpt lat="47.72333" lon="5.01477">
        <ele>465.68</ele>
        <time>2021-12-13T09:29:58Z</time>
      </trkpt>
      <trkpt lat="47.72331" lon="5.01473">
        <ele>465.11</ele>
        <time>2021-12-13T09:30:01Z</time>
      </trkpt>
      <trkpt lat="47.72329" lon="5.01469">
        <ele>465.37</ele>
        <time>2021-12-13T09:30:04Z</time>
      </trkpt>
      <trkpt lat="47.72329" lon="5.01465">
        <ele>465.82</ele>
        <time>2021-12-13T09:30:07Z</time>
      </trkpt>
      <trkpt lat="47.7233" lon="5.01461">
        <ele>466.26</ele>
        <time>2021-12-13T09:30:14Z</time>
      </trkpt>
      <trkpt lat="47.72328" lon="5.01452">
        <ele>467.32</ele>
        <time>2021-12-13T09:30:32Z</time>
      </trkpt>
      <trkpt lat="47.72331" lon="5.0144">
        <ele>468.82</ele>
        <time>2021-12-13T09:31:05Z</time>
      </trkpt>
      <trkpt lat="47.72335" lon="5.01441">
        <ele>468.7</ele>
        <time>2021-12-13T09:31:34Z</time>
      </trkpt>
      <trkpt lat="47.72338" lon="5.01443">
        <ele>468.54</ele>
        <time>2021-12-13T09:31:50Z</time>
      </trkpt>
      <trkpt lat="47.7234" lon="5.01441">
        <ele>468.92</ele>
        <time>2021-12-13T09:31:54Z</time>
      </trkpt>
      <trkpt lat="47.72343" lon="5.01438">
        <ele>469.37</ele>
        <time>2021-12-13T09:31:57Z</time>
      </trkpt>
      <trkpt lat="47.72345" lon="5.01435">
        <ele>469.68</ele>
        <time>2021-12-13T09:32:00Z</time>
      </trkpt>
      <trkpt lat="47.72347" lon="5.01431">
        <ele>469.98</ele>
        <time>2021-12-13T09:32:04Z</time>
      </trkpt>
      <trkpt lat="47.72349" lon="5.01426">
        <ele>470.2</ele>
        <time>2021-12-13T09:32:07Z</time>
      </trkpt>
      <trkpt lat="47.72351" lon="5.01423">
        <ele>470.19</ele>
        <time>2021-12-13T09:32:09Z</time>
      </trkpt>
      <trkpt lat="47.72354" lon="5.01421">
        <ele>469.94</ele>
        <time>2021-12-13T09:32:11Z</time>
      </trkpt>
      <trkpt lat="47.72357" lon="5.01419">
        <ele>469.6</ele>
        <time>2021-12-13T09:32:13Z</time>
      </trkpt>
      <trkpt lat="47.7236" lon="5.01417">
        <ele>469.17</ele>
        <time>2021-12-13T09:32:16Z</time>
      </trkpt>
      <trkpt lat="47.72363" lon="5.01417">
        <ele>469.08</ele>
        <time>2021-12-13T09:32:19Z</time>
      </trkpt>
      <trkpt lat="47.72367" lon="5.01416">
        <ele>469.29</ele>
        <time>2021-12-13T09:32:22Z</time>
      </trkpt>
      <trkpt lat="47.72369" lon="5.01415">
        <ele>469.47</ele>
        <time>2021-12-13T09:32:24Z</time>
      </trkpt>
      <trkpt lat="47.72373" lon="5.01413">
        <ele>469.79</ele>
        <time>2021-12-13T09:32:27Z</time>
      </trkpt>
      <trkpt lat="47.72376" lon="5.0141">
        <ele>470.11</ele>
        <time>2021-12-13T09:32:30Z</time>
      </trkpt>
      <trkpt lat="47.72379" lon="5.01408">
        <ele>470.29</ele>
        <time>2021-12-13T09:32:33Z</time>
      </trkpt>
      <trkpt lat="47.72381" lon="5.01405">
        <ele>470.49</ele>
        <time>2021-12-13T09:32:36Z</time>
      </trkpt>
      <trkpt lat="47.72384" lon="5.01402">
        <ele>470.63</ele>
        <time>2021-12-13T09:32:39Z</time>
      </trkpt>
      <trkpt lat="47.72387" lon="5.01399">
        <ele>470.7</ele>
        <time>2021-12-13T09:32:41Z</time>
      </trkpt>
      <trkpt lat="47.72389" lon="5.01397">
        <ele>470.68</ele>
        <time>2021-12-13T09:32:43Z</time>
      </trkpt>
      <trkpt lat="47.72392" lon="5.01394">
        <ele>470.11</ele>
        <time>2021-12-13T09:32:45Z</time>
      </trkpt>
      <trkpt lat="47.72395" lon="5.01392">
        <ele>469.45</ele>
        <time>2021-12-13T09:32:48Z</time>
      </trkpt>
      <trkpt lat="47.72398" lon="5.01389">
        <ele>468.71</ele>
        <time>2021-12-13T09:32:51Z</time>
      </trkpt>
      <trkpt lat="47.72401" lon="5.01387">
        <ele>468.12</ele>
        <time>2021-12-13T09:32:54Z</time>
      </trkpt>
      <trkpt lat="47.72404" lon="5.01384">
        <ele>467.62</ele>
        <time>2021-12-13T09:32:57Z</time>
      </trkpt>
      <trkpt lat="47.72407" lon="5.01382">
        <ele>467.02</ele>
        <time>2021-12-13T09:33:00Z</time>
      </trkpt>
      <trkpt lat="47.7241" lon="5.01379">
        <ele>466.48</ele>
        <time>2021-12-13T09:33:03Z</time>
      </trkpt>
      <trkpt lat="47.72413" lon="5.01377">
        <ele>465.84</ele>
        <time>2021-12-13T09:33:05Z</time>
      </trkpt>
      <trkpt lat="47.72416" lon="5.01375">
        <ele>465.18</ele>
        <time>2021-12-13T09:33:07Z</time>
      </trkpt>
      <trkpt lat="47.72418" lon="5.01373">
        <ele>465.02</ele>
        <time>2021-12-13T09:33:09Z</time>
      </trkpt>
      <trkpt lat="47.72422" lon="5.01371">
        <ele>464.78</ele>
        <time>2021-12-13T09:33:12Z</time>
      </trkpt>
      <trkpt lat="47.72424" lon="5.01369">
        <ele>464.71</ele>
        <time>2021-12-13T09:33:15Z</time>
      </trkpt>
      <trkpt lat="47.72427" lon="5.01367">
        <ele>464.54</ele>
        <time>2021-12-13T09:33:18Z</time>
      </trkpt>
      <trkpt lat="47.7243" lon="5.01365">
        <ele>464.35</ele>
        <time>2021-12-13T09:33:21Z</time>
      </trkpt>
      <trkpt lat="47.72433" lon="5.01363">
        <ele>464.14</ele>
        <time>2021-12-13T09:33:24Z</time>
      </trkpt>
      <trkpt lat="47.72436" lon="5.0136">
        <ele>463.96</ele>
        <time>2021-12-13T09:33:26Z</time>
      </trkpt>
      <trkpt lat="47.72438" lon="5.01358">
        <ele>463.83</ele>
        <time>2021-12-13T09:33:28Z</time>
      </trkpt>
      <trkpt lat="47.72442" lon="5.01355">
        <ele>463.5</ele>
        <time>2021-12-13T09:33:31Z</time>
      </trkpt>
      <trkpt lat="47.72445" lon="5.01353">
        <ele>463.29</ele>
        <time>2021-12-13T09:33:34Z</time>
      </trkpt>
      <trkpt lat="47.72449" lon="5.0135">
        <ele>463.43</ele>
        <time>2021-12-13T09:33:37Z</time>
      </trkpt>
      <trkpt lat="47.72451" lon="5.01349">
        <ele>463.51</ele>
        <time>2021-12-13T09:33:39Z</time>
      </trkpt>
      <trkpt lat="47.72454" lon="5.01347">
        <ele>463.69</ele>
        <time>2021-12-13T09:33:41Z</time>
      </trkpt>
      <trkpt lat="47.72457" lon="5.01346">
        <ele>463.83</ele>
        <time>2021-12-13T09:33:43Z</time>
      </trkpt>
      <trkpt lat="47.7246" lon="5.01346">
        <ele>463.9</ele>
        <time>2021-12-13T09:33:45Z</time>
      </trkpt>
      <trkpt lat="47.72463" lon="5.01345">
        <ele>464.07</ele>
        <time>2021-12-13T09:33:47Z</time>
      </trkpt>
      <trkpt lat="47.72467" lon="5.01345">
        <ele>464.18</ele>
        <time>2021-12-13T09:33:50Z</time>
      </trkpt>
      <trkpt lat="47.7247" lon="5.01343">
        <ele>464.53</ele>
        <time>2021-12-13T09:33:53Z</time>
      </trkpt>
      <trkpt lat="47.72473" lon="5.0134">
        <ele>465.05</ele>
        <time>2021-12-13T09:33:56Z</time>
      </trkpt>
      <trkpt lat="47.72475" lon="5.01337">
        <ele>465.5</ele>
        <time>2021-12-13T09:33:59Z</time>
      </trkpt>
      <trkpt lat="47.72478" lon="5.01335">
        <ele>465.78</ele>
        <time>2021-12-13T09:34:02Z</time>
      </trkpt>
      <trkpt lat="47.72481" lon="5.01333">
        <ele>466</ele>
        <time>2021-12-13T09:34:05Z</time>
      </trkpt>
      <trkpt lat="47.72484" lon="5.01331">
        <ele>466.06</ele>
        <time>2021-12-13T09:34:07Z</time>
      </trkpt>
      <trkpt lat="47.72487" lon="5.01329">
        <ele>466.18</ele>
        <time>2021-12-13T09:34:09Z</time>
      </trkpt>
      <trkpt lat="47.7249" lon="5.01328">
        <ele>466.3</ele>
        <time>2021-12-13T09:34:11Z</time>
      </trkpt>
      <trkpt lat="47.72492" lon="5.01326">
        <ele>466.49</ele>
        <time>2021-12-13T09:34:13Z</time>
      </trkpt>
      <trkpt lat="47.72495" lon="5.01324">
        <ele>466.77</ele>
        <time>2021-12-13T09:34:15Z</time>
      </trkpt>
      <trkpt lat="47.72498" lon="5.01322">
        <ele>467.11</ele>
        <time>2021-12-13T09:34:18Z</time>
      </trkpt>
      <trkpt lat="47.72501" lon="5.0132">
        <ele>467.35</ele>
        <time>2021-12-13T09:34:21Z</time>
      </trkpt>
      <trkpt lat="47.72503" lon="5.01317">
        <ele>467.47</ele>
        <time>2021-12-13T09:34:24Z</time>
      </trkpt>
      <trkpt lat="47.72506" lon="5.01315">
        <ele>467.34</ele>
        <time>2021-12-13T09:34:27Z</time>
      </trkpt>
      <trkpt lat="47.72508" lon="5.01313">
        <ele>467.28</ele>
        <time>2021-12-13T09:34:30Z</time>
      </trkpt>
      <trkpt lat="47.72512" lon="5.01309">
        <ele>467.06</ele>
        <time>2021-12-13T09:34:33Z</time>
      </trkpt>
      <trkpt lat="47.72515" lon="5.01307">
        <ele>466.77</ele>
        <time>2021-12-13T09:34:35Z</time>
      </trkpt>
      <trkpt lat="47.72519" lon="5.01304">
        <ele>466.15</ele>
        <time>2021-12-13T09:34:37Z</time>
      </trkpt>
      <trkpt lat="47.72522" lon="5.01302">
        <ele>465.62</ele>
        <time>2021-12-13T09:34:39Z</time>
      </trkpt>
      <trkpt lat="47.72525" lon="5.01301">
        <ele>465.19</ele>
        <time>2021-12-13T09:34:41Z</time>
      </trkpt>
      <trkpt lat="47.72529" lon="5.01299">
        <ele>464.79</ele>
        <time>2021-12-13T09:34:44Z</time>
      </trkpt>
      <trkpt lat="47.72532" lon="5.01298">
        <ele>464.8</ele>
        <time>2021-12-13T09:34:46Z</time>
      </trkpt>
      <trkpt lat="47.72535" lon="5.01296">
        <ele>464.74</ele>
        <time>2021-12-13T09:34:48Z</time>
      </trkpt>
      <trkpt lat="47.72537" lon="5.01294">
        <ele>464.64</ele>
        <time>2021-12-13T09:34:50Z</time>
      </trkpt>
      <trkpt lat="47.72541" lon="5.01292">
        <ele>464.52</ele>
        <time>2021-12-13T09:34:53Z</time>
      </trkpt>
      <trkpt lat="47.72544" lon="5.0129">
        <ele>464.37</ele>
        <time>2021-12-13T09:34:56Z</time>
      </trkpt>
      <trkpt lat="47.72546" lon="5.01289">
        <ele>464.28</ele>
        <time>2021-12-13T09:34:59Z</time>
      </trkpt>
      <trkpt lat="47.72549" lon="5.01287">
        <ele>464.08</ele>
        <time>2021-12-13T09:35:02Z</time>
      </trkpt>
      <trkpt lat="47.72552" lon="5.01284">
        <ele>463.74</ele>
        <time>2021-12-13T09:35:05Z</time>
      </trkpt>
      <trkpt lat="47.72555" lon="5.01281">
        <ele>463.36</ele>
        <time>2021-12-13T09:35:08Z</time>
      </trkpt>
      <trkpt lat="47.72558" lon="5.01279">
        <ele>462.87</ele>
        <time>2021-12-13T09:35:11Z</time>
      </trkpt>
      <trkpt lat="47.7256" lon="5.01278">
        <ele>462.54</ele>
        <time>2021-12-13T09:35:14Z</time>
      </trkpt>
      <trkpt lat="47.72564" lon="5.01276">
        <ele>461.96</ele>
        <time>2021-12-13T09:35:17Z</time>
      </trkpt>
      <trkpt lat="47.72567" lon="5.01275">
        <ele>461.56</ele>
        <time>2021-12-13T09:35:19Z</time>
      </trkpt>
      <trkpt lat="47.72569" lon="5.01273">
        <ele>461.2</ele>
        <time>2021-12-13T09:35:21Z</time>
      </trkpt>
      <trkpt lat="47.72571" lon="5.0127">
        <ele>460.77</ele>
        <time>2021-12-13T09:35:23Z</time>
      </trkpt>
      <trkpt lat="47.72574" lon="5.01267">
        <ele>460.23</ele>
        <time>2021-12-13T09:35:25Z</time>
      </trkpt>
      <trkpt lat="47.72576" lon="5.01264">
        <ele>459.8</ele>
        <time>2021-12-13T09:35:27Z</time>
      </trkpt>
      <trkpt lat="47.72578" lon="5.0126">
        <ele>459.3</ele>
        <time>2021-12-13T09:35:29Z</time>
      </trkpt>
      <trkpt lat="47.72581" lon="5.01258">
        <ele>458.83</ele>
        <time>2021-12-13T09:35:31Z</time>
      </trkpt>
      <trkpt lat="47.72583" lon="5.01256">
        <ele>458.47</ele>
        <time>2021-12-13T09:35:33Z</time>
      </trkpt>
      <trkpt lat="47.72587" lon="5.01254">
        <ele>458.19</ele>
        <time>2021-12-13T09:35:36Z</time>
      </trkpt>
      <trkpt lat="47.72589" lon="5.01251">
        <ele>457.88</ele>
        <time>2021-12-13T09:35:39Z</time>
      </trkpt>
      <trkpt lat="47.72591" lon="5.01248">
        <ele>457.6</ele>
        <time>2021-12-13T09:35:42Z</time>
      </trkpt>
      <trkpt lat="47.72593" lon="5.01245">
        <ele>457.35</ele>
        <time>2021-12-13T09:35:45Z</time>
      </trkpt>
      <trkpt lat="47.72596" lon="5.01243">
        <ele>457.15</ele>
        <time>2021-12-13T09:35:48Z</time>
      </trkpt>
      <trkpt lat="47.72598" lon="5.01241">
        <ele>457</ele>
        <time>2021-12-13T09:35:51Z</time>
      </trkpt>
      <trkpt lat="47.72602" lon="5.01238">
        <ele>456.75</ele>
        <time>2021-12-13T09:35:54Z</time>
      </trkpt>
      <trkpt lat="47.72606" lon="5.01237">
        <ele>456.63</ele>
        <time>2021-12-13T09:35:56Z</time>
      </trkpt>
      <trkpt lat="47.7261" lon="5.01235">
        <ele>456.48</ele>
        <time>2021-12-13T09:35:58Z</time>
      </trkpt>
      <trkpt lat="47.72613" lon="5.01234">
        <ele>456.36</ele>
        <time>2021-12-13T09:36:00Z</time>
      </trkpt>
      <trkpt lat="47.72617" lon="5.01233">
        <ele>456.18</ele>
        <time>2021-12-13T09:36:03Z</time>
      </trkpt>
      <trkpt lat="47.7262" lon="5.0123">
        <ele>455.96</ele>
        <time>2021-12-13T09:36:06Z</time>
      </trkpt>
      <trkpt lat="47.72623" lon="5.01227">
        <ele>455.74</ele>
        <time>2021-12-13T09:36:09Z</time>
      </trkpt>
      <trkpt lat="47.72626" lon="5.01224">
        <ele>455.53</ele>
        <time>2021-12-13T09:36:12Z</time>
      </trkpt>
      <trkpt lat="47.72629" lon="5.01222">
        <ele>455.37</ele>
        <time>2021-12-13T09:36:15Z</time>
      </trkpt>
      <trkpt lat="47.72632" lon="5.01221">
        <ele>455.33</ele>
        <time>2021-12-13T09:36:18Z</time>
      </trkpt>
      <trkpt lat="47.72636" lon="5.0122">
        <ele>455.26</ele>
        <time>2021-12-13T09:36:21Z</time>
      </trkpt>
      <trkpt lat="47.7264" lon="5.01218">
        <ele>455.41</ele>
        <time>2021-12-13T09:36:24Z</time>
      </trkpt>
      <trkpt lat="47.72642" lon="5.01217">
        <ele>455.67</ele>
        <time>2021-12-13T09:36:26Z</time>
      </trkpt>
      <trkpt lat="47.72645" lon="5.01215">
        <ele>456.07</ele>
        <time>2021-12-13T09:36:28Z</time>
      </trkpt>
      <trkpt lat="47.72647" lon="5.01212">
        <ele>456.4</ele>
        <time>2021-12-13T09:36:30Z</time>
      </trkpt>
      <trkpt lat="47.7265" lon="5.01209">
        <ele>456.77</ele>
        <time>2021-12-13T09:36:32Z</time>
      </trkpt>
      <trkpt lat="47.72652" lon="5.01206">
        <ele>457.03</ele>
        <time>2021-12-13T09:36:34Z</time>
      </trkpt>
      <trkpt lat="47.72654" lon="5.01203">
        <ele>457.26</ele>
        <time>2021-12-13T09:36:37Z</time>
      </trkpt>
      <trkpt lat="47.72657" lon="5.01201">
        <ele>457.49</ele>
        <time>2021-12-13T09:36:41Z</time>
      </trkpt>
      <trkpt lat="47.72662" lon="5.01201">
        <ele>457.75</ele>
        <time>2021-12-13T09:36:44Z</time>
      </trkpt>
      <trkpt lat="47.72664" lon="5.01201">
        <ele>457.86</ele>
        <time>2021-12-13T09:36:46Z</time>
      </trkpt>
      <trkpt lat="47.72668" lon="5.01201">
        <ele>458.03</ele>
        <time>2021-12-13T09:36:49Z</time>
      </trkpt>
      <trkpt lat="47.72672" lon="5.01201">
        <ele>458.14</ele>
        <time>2021-12-13T09:36:52Z</time>
      </trkpt>
      <trkpt lat="47.72676" lon="5.01202">
        <ele>458.27</ele>
        <time>2021-12-13T09:36:54Z</time>
      </trkpt>
      <trkpt lat="47.72679" lon="5.01202">
        <ele>458.36</ele>
        <time>2021-12-13T09:36:56Z</time>
      </trkpt>
      <trkpt lat="47.72682" lon="5.01203">
        <ele>458.51</ele>
        <time>2021-12-13T09:36:58Z</time>
      </trkpt>
      <trkpt lat="47.72685" lon="5.01204">
        <ele>458.68</ele>
        <time>2021-12-13T09:37:01Z</time>
      </trkpt>
      <trkpt lat="47.72689" lon="5.01205">
        <ele>458.92</ele>
        <time>2021-12-13T09:37:04Z</time>
      </trkpt>
      <trkpt lat="47.72692" lon="5.01206">
        <ele>459.14</ele>
        <time>2021-12-13T09:37:07Z</time>
      </trkpt>
      <trkpt lat="47.72696" lon="5.01207">
        <ele>459.78</ele>
        <time>2021-12-13T09:37:10Z</time>
      </trkpt>
      <trkpt lat="47.72699" lon="5.01207">
        <ele>460.59</ele>
        <time>2021-12-13T09:37:12Z</time>
      </trkpt>
      <trkpt lat="47.72702" lon="5.01206">
        <ele>461.31</ele>
        <time>2021-12-13T09:37:14Z</time>
      </trkpt>
      <trkpt lat="47.72705" lon="5.01206">
        <ele>462.13</ele>
        <time>2021-12-13T09:37:16Z</time>
      </trkpt>
      <trkpt lat="47.72708" lon="5.01205">
        <ele>462.86</ele>
        <time>2021-12-13T09:37:18Z</time>
      </trkpt>
      <trkpt lat="47.72711" lon="5.01204">
        <ele>463.59</ele>
        <time>2021-12-13T09:37:20Z</time>
      </trkpt>
      <trkpt lat="47.72713" lon="5.01201">
        <ele>463.89</ele>
        <time>2021-12-13T09:37:24Z</time>
      </trkpt>
      <trkpt lat="47.72714" lon="5.01196">
        <ele>463.76</ele>
        <time>2021-12-13T09:37:29Z</time>
      </trkpt>
      <trkpt lat="47.72715" lon="5.01192">
        <ele>463.68</ele>
        <time>2021-12-13T09:37:33Z</time>
      </trkpt>
      <trkpt lat="47.72716" lon="5.01188">
        <ele>463.56</ele>
        <time>2021-12-13T09:37:37Z</time>
      </trkpt>
      <trkpt lat="47.72719" lon="5.01186">
        <ele>464.2</ele>
        <time>2021-12-13T09:37:43Z</time>
      </trkpt>
      <trkpt lat="47.72722" lon="5.01185">
        <ele>464.92</ele>
        <time>2021-12-13T09:37:52Z</time>
      </trkpt>
      <trkpt lat="47.72723" lon="5.01182">
        <ele>464.71</ele>
        <time>2021-12-13T09:38:01Z</time>
      </trkpt>
      <trkpt lat="47.72724" lon="5.01178">
        <ele>464.36</ele>
        <time>2021-12-13T09:38:09Z</time>
      </trkpt>
      <trkpt lat="47.72718" lon="5.01174">
        <ele>462.69</ele>
        <time>2021-12-13T09:38:58Z</time>
      </trkpt>
      <trkpt lat="47.72719" lon="5.01166">
        <ele>462.16</ele>
        <time>2021-12-13T09:39:34Z</time>
      </trkpt>
      <trkpt lat="47.72724" lon="5.01159">
        <ele>462.93</ele>
        <time>2021-12-13T09:39:43Z</time>
      </trkpt>
      <trkpt lat="47.72729" lon="5.01154">
        <ele>463.39</ele>
        <time>2021-12-13T09:39:50Z</time>
      </trkpt>
      <trkpt lat="47.72734" lon="5.01151">
        <ele>463.95</ele>
        <time>2021-12-13T09:39:55Z</time>
      </trkpt>
      <trkpt lat="47.72738" lon="5.01149">
        <ele>464.43</ele>
        <time>2021-12-13T09:39:58Z</time>
      </trkpt>
      <trkpt lat="47.7274" lon="5.01147">
        <ele>464.67</ele>
        <time>2021-12-13T09:40:01Z</time>
      </trkpt>
      <trkpt lat="47.72742" lon="5.01143">
        <ele>464.89</ele>
        <time>2021-12-13T09:40:04Z</time>
      </trkpt>
      <trkpt lat="47.72744" lon="5.0114">
        <ele>465.14</ele>
        <time>2021-12-13T09:40:07Z</time>
      </trkpt>
      <trkpt lat="47.72747" lon="5.01138">
        <ele>465.5</ele>
        <time>2021-12-13T09:40:10Z</time>
      </trkpt>
      <trkpt lat="47.72751" lon="5.01136">
        <ele>465.72</ele>
        <time>2021-12-13T09:40:13Z</time>
      </trkpt>
      <trkpt lat="47.72753" lon="5.01135">
        <ele>465.52</ele>
        <time>2021-12-13T09:40:15Z</time>
      </trkpt>
      <trkpt lat="47.72757" lon="5.01134">
        <ele>465.19</ele>
        <time>2021-12-13T09:40:18Z</time>
      </trkpt>
      <trkpt lat="47.7276" lon="5.01132">
        <ele>464.87</ele>
        <time>2021-12-13T09:40:21Z</time>
      </trkpt>
      <trkpt lat="47.72762" lon="5.0113">
        <ele>464.63</ele>
        <time>2021-12-13T09:40:24Z</time>
      </trkpt>
      <trkpt lat="47.72765" lon="5.01128">
        <ele>464.35</ele>
        <time>2021-12-13T09:40:27Z</time>
      </trkpt>
      <trkpt lat="47.72767" lon="5.01126">
        <ele>464.13</ele>
        <time>2021-12-13T09:40:30Z</time>
      </trkpt>
      <trkpt lat="47.7277" lon="5.01125">
        <ele>463.92</ele>
        <time>2021-12-13T09:40:33Z</time>
      </trkpt>
      <trkpt lat="47.72773" lon="5.01123">
        <ele>463.67</ele>
        <time>2021-12-13T09:40:36Z</time>
      </trkpt>
      <trkpt lat="47.72776" lon="5.0112">
        <ele>463.4</ele>
        <time>2021-12-13T09:40:39Z</time>
      </trkpt>
      <trkpt lat="47.72779" lon="5.01118">
        <ele>463.23</ele>
        <time>2021-12-13T09:40:41Z</time>
      </trkpt>
      <trkpt lat="47.72782" lon="5.01116">
        <ele>463.08</ele>
        <time>2021-12-13T09:40:43Z</time>
      </trkpt>
      <trkpt lat="47.72785" lon="5.01114">
        <ele>462.9</ele>
        <time>2021-12-13T09:40:46Z</time>
      </trkpt>
      <trkpt lat="47.72787" lon="5.01111">
        <ele>462.67</ele>
        <time>2021-12-13T09:40:49Z</time>
      </trkpt>
      <trkpt lat="47.72789" lon="5.01108">
        <ele>462.53</ele>
        <time>2021-12-13T09:40:53Z</time>
      </trkpt>
      <trkpt lat="47.72792" lon="5.01106">
        <ele>462.4</ele>
        <time>2021-12-13T09:40:57Z</time>
      </trkpt>
      <trkpt lat="47.72795" lon="5.01103">
        <ele>462.27</ele>
        <time>2021-12-13T09:41:01Z</time>
      </trkpt>
      <trkpt lat="47.72797" lon="5.01099">
        <ele>462.17</ele>
        <time>2021-12-13T09:41:04Z</time>
      </trkpt>
      <trkpt lat="47.72799" lon="5.01096">
        <ele>462.11</ele>
        <time>2021-12-13T09:41:06Z</time>
      </trkpt>
      <trkpt lat="47.72801" lon="5.01094">
        <ele>462.06</ele>
        <time>2021-12-13T09:41:08Z</time>
      </trkpt>
      <trkpt lat="47.72804" lon="5.01093">
        <ele>462.02</ele>
        <time>2021-12-13T09:41:10Z</time>
      </trkpt>
      <trkpt lat="47.72808" lon="5.01093">
        <ele>462.33</ele>
        <time>2021-12-13T09:41:13Z</time>
      </trkpt>
      <trkpt lat="47.72811" lon="5.01092">
        <ele>462.71</ele>
        <time>2021-12-13T09:41:17Z</time>
      </trkpt>
      <trkpt lat="47.72814" lon="5.01091">
        <ele>463.08</ele>
        <time>2021-12-13T09:41:21Z</time>
      </trkpt>
      <trkpt lat="47.72817" lon="5.01089">
        <ele>463.4</ele>
        <time>2021-12-13T09:41:25Z</time>
      </trkpt>
      <trkpt lat="47.72819" lon="5.01087">
        <ele>463.58</ele>
        <time>2021-12-13T09:41:28Z</time>
      </trkpt>
      <trkpt lat="47.72822" lon="5.01084">
        <ele>463.8</ele>
        <time>2021-12-13T09:41:31Z</time>
      </trkpt>
      <trkpt lat="47.72825" lon="5.01083">
        <ele>464.06</ele>
        <time>2021-12-13T09:41:33Z</time>
      </trkpt>
      <trkpt lat="47.72828" lon="5.01082">
        <ele>464.25</ele>
        <time>2021-12-13T09:41:36Z</time>
      </trkpt>
      <trkpt lat="47.72831" lon="5.01082">
        <ele>464.56</ele>
        <time>2021-12-13T09:41:39Z</time>
      </trkpt>
      <trkpt lat="47.72834" lon="5.01081">
        <ele>464.64</ele>
        <time>2021-12-13T09:41:42Z</time>
      </trkpt>
      <trkpt lat="47.72838" lon="5.0108">
        <ele>464.39</ele>
        <time>2021-12-13T09:41:45Z</time>
      </trkpt>
      <trkpt lat="47.72841" lon="5.01077">
        <ele>463.94</ele>
        <time>2021-12-13T09:41:48Z</time>
      </trkpt>
      <trkpt lat="47.72843" lon="5.01074">
        <ele>463.54</ele>
        <time>2021-12-13T09:41:51Z</time>
      </trkpt>
      <trkpt lat="47.72845" lon="5.01073">
        <ele>463.4</ele>
        <time>2021-12-13T09:41:54Z</time>
      </trkpt>
      <trkpt lat="47.72848" lon="5.0107">
        <ele>463.06</ele>
        <time>2021-12-13T09:41:57Z</time>
      </trkpt>
      <trkpt lat="47.72851" lon="5.01068">
        <ele>462.86</ele>
        <time>2021-12-13T09:42:00Z</time>
      </trkpt>
      <trkpt lat="47.72854" lon="5.01066">
        <ele>462.69</ele>
        <time>2021-12-13T09:42:03Z</time>
      </trkpt>
      <trkpt lat="47.72856" lon="5.01064">
        <ele>462.54</ele>
        <time>2021-12-13T09:42:06Z</time>
      </trkpt>
      <trkpt lat="47.72859" lon="5.0106">
        <ele>462.27</ele>
        <time>2021-12-13T09:42:09Z</time>
      </trkpt>
      <trkpt lat="47.72861" lon="5.01057">
        <ele>462.1</ele>
        <time>2021-12-13T09:42:13Z</time>
      </trkpt>
      <trkpt lat="47.72863" lon="5.01053">
        <ele>461.88</ele>
        <time>2021-12-13T09:42:17Z</time>
      </trkpt>
      <trkpt lat="47.72865" lon="5.0105">
        <ele>461.74</ele>
        <time>2021-12-13T09:42:21Z</time>
      </trkpt>
      <trkpt lat="47.72868" lon="5.01048">
        <ele>461.7</ele>
        <time>2021-12-13T09:42:25Z</time>
      </trkpt>
      <trkpt lat="47.72871" lon="5.01046">
        <ele>461.67</ele>
        <time>2021-12-13T09:42:29Z</time>
      </trkpt>
      <trkpt lat="47.72873" lon="5.01043">
        <ele>461.52</ele>
        <time>2021-12-13T09:42:32Z</time>
      </trkpt>
      <trkpt lat="47.72876" lon="5.01039">
        <ele>461.34</ele>
        <time>2021-12-13T09:42:35Z</time>
      </trkpt>
      <trkpt lat="47.72878" lon="5.01036">
        <ele>461.2</ele>
        <time>2021-12-13T09:42:38Z</time>
      </trkpt>
      <trkpt lat="47.72881" lon="5.01034">
        <ele>461.16</ele>
        <time>2021-12-13T09:42:41Z</time>
      </trkpt>
      <trkpt lat="47.72884" lon="5.01031">
        <ele>461.06</ele>
        <time>2021-12-13T09:42:44Z</time>
      </trkpt>
      <trkpt lat="47.72887" lon="5.01029">
        <ele>461.02</ele>
        <time>2021-12-13T09:42:47Z</time>
      </trkpt>
      <trkpt lat="47.72889" lon="5.01027">
        <ele>460.98</ele>
        <time>2021-12-13T09:42:50Z</time>
      </trkpt>
      <trkpt lat="47.72892" lon="5.01023">
        <ele>461.18</ele>
        <time>2021-12-13T09:42:54Z</time>
      </trkpt>
      <trkpt lat="47.72894" lon="5.01019">
        <ele>461.29</ele>
        <time>2021-12-13T09:42:58Z</time>
      </trkpt>
      <trkpt lat="47.72896" lon="5.01016">
        <ele>461.45</ele>
        <time>2021-12-13T09:43:02Z</time>
      </trkpt>
      <trkpt lat="47.72899" lon="5.01014">
        <ele>461.78</ele>
        <time>2021-12-13T09:43:05Z</time>
      </trkpt>
      <trkpt lat="47.72902" lon="5.01012">
        <ele>462.12</ele>
        <time>2021-12-13T09:43:08Z</time>
      </trkpt>
      <trkpt lat="47.72905" lon="5.01011">
        <ele>462.49</ele>
        <time>2021-12-13T09:43:11Z</time>
      </trkpt>
      <trkpt lat="47.72908" lon="5.0101">
        <ele>462.86</ele>
        <time>2021-12-13T09:43:14Z</time>
      </trkpt>
      <trkpt lat="47.72912" lon="5.01007">
        <ele>463.37</ele>
        <time>2021-12-13T09:43:17Z</time>
      </trkpt>
      <trkpt lat="47.72915" lon="5.01003">
        <ele>463.77</ele>
        <time>2021-12-13T09:43:20Z</time>
      </trkpt>
      <trkpt lat="47.72917" lon="5.01">
        <ele>464.01</ele>
        <time>2021-12-13T09:43:23Z</time>
      </trkpt>
      <trkpt lat="47.72919" lon="5.00997">
        <ele>463.97</ele>
        <time>2021-12-13T09:43:28Z</time>
      </trkpt>
      <trkpt lat="47.72923" lon="5.00995">
        <ele>464.01</ele>
        <time>2021-12-13T09:43:31Z</time>
      </trkpt>
      <trkpt lat="47.72925" lon="5.00993">
        <ele>463.97</ele>
        <time>2021-12-13T09:43:33Z</time>
      </trkpt>
      <trkpt lat="47.72929" lon="5.00992">
        <ele>464.03</ele>
        <time>2021-12-13T09:43:36Z</time>
      </trkpt>
      <trkpt lat="47.72932" lon="5.00991">
        <ele>464.05</ele>
        <time>2021-12-13T09:43:39Z</time>
      </trkpt>
      <trkpt lat="47.72935" lon="5.00989">
        <ele>464</ele>
        <time>2021-12-13T09:43:42Z</time>
      </trkpt>
      <trkpt lat="47.72937" lon="5.00987">
        <ele>463.92</ele>
        <time>2021-12-13T09:43:45Z</time>
      </trkpt>
      <trkpt lat="47.72939" lon="5.00982">
        <ele>463.64</ele>
        <time>2021-12-13T09:43:48Z</time>
      </trkpt>
      <trkpt lat="47.72941" lon="5.00978">
        <ele>463.39</ele>
        <time>2021-12-13T09:43:52Z</time>
      </trkpt>
      <trkpt lat="47.72943" lon="5.00974">
        <ele>463.12</ele>
        <time>2021-12-13T09:43:55Z</time>
      </trkpt>
      <trkpt lat="47.72945" lon="5.0097">
        <ele>463.12</ele>
        <time>2021-12-13T09:43:58Z</time>
      </trkpt>
      <trkpt lat="47.72947" lon="5.00968">
        <ele>463.29</ele>
        <time>2021-12-13T09:44:01Z</time>
      </trkpt>
      <trkpt lat="47.7295" lon="5.00967">
        <ele>463.48</ele>
        <time>2021-12-13T09:44:04Z</time>
      </trkpt>
      <trkpt lat="47.72953" lon="5.00966">
        <ele>463.63</ele>
        <time>2021-12-13T09:44:08Z</time>
      </trkpt>
      <trkpt lat="47.72956" lon="5.00964">
        <ele>463.76</ele>
        <time>2021-12-13T09:44:11Z</time>
      </trkpt>
      <trkpt lat="47.72959" lon="5.00963">
        <ele>463.86</ele>
        <time>2021-12-13T09:44:14Z</time>
      </trkpt>
      <trkpt lat="47.72962" lon="5.0096">
        <ele>463.87</ele>
        <time>2021-12-13T09:44:18Z</time>
      </trkpt>
      <trkpt lat="47.72964" lon="5.00956">
        <ele>463.76</ele>
        <time>2021-12-13T09:44:21Z</time>
      </trkpt>
      <trkpt lat="47.72966" lon="5.00953">
        <ele>463.63</ele>
        <time>2021-12-13T09:44:25Z</time>
      </trkpt>
      <trkpt lat="47.72969" lon="5.00951">
        <ele>463.51</ele>
        <time>2021-12-13T09:44:29Z</time>
      </trkpt>
      <trkpt lat="47.72972" lon="5.00948">
        <ele>463.26</ele>
        <time>2021-12-13T09:44:33Z</time>
      </trkpt>
      <trkpt lat="47.72975" lon="5.00945">
        <ele>463.54</ele>
        <time>2021-12-13T09:44:37Z</time>
      </trkpt>
      <trkpt lat="47.72978" lon="5.00944">
        <ele>463.96</ele>
        <time>2021-12-13T09:44:40Z</time>
      </trkpt>
      <trkpt lat="47.72981" lon="5.00942">
        <ele>464.11</ele>
        <time>2021-12-13T09:44:43Z</time>
      </trkpt>
      <trkpt lat="47.72984" lon="5.0094">
        <ele>464.25</ele>
        <time>2021-12-13T09:44:45Z</time>
      </trkpt>
      <trkpt lat="47.72987" lon="5.00938">
        <ele>464.38</ele>
        <time>2021-12-13T09:44:47Z</time>
      </trkpt>
      <trkpt lat="47.7299" lon="5.00935">
        <ele>464.28</ele>
        <time>2021-12-13T09:44:50Z</time>
      </trkpt>
      <trkpt lat="47.72993" lon="5.00933">
        <ele>464.37</ele>
        <time>2021-12-13T09:44:53Z</time>
      </trkpt>
      <trkpt lat="47.72995" lon="5.00931">
        <ele>464.28</ele>
        <time>2021-12-13T09:44:56Z</time>
      </trkpt>
      <trkpt lat="47.72998" lon="5.00927">
        <ele>463.92</ele>
        <time>2021-12-13T09:45:00Z</time>
      </trkpt>
      <trkpt lat="47.73001" lon="5.00925">
        <ele>463.93</ele>
        <time>2021-12-13T09:45:03Z</time>
      </trkpt>
      <trkpt lat="47.73003" lon="5.00923">
        <ele>463.78</ele>
        <time>2021-12-13T09:45:05Z</time>
      </trkpt>
      <trkpt lat="47.73007" lon="5.00921">
        <ele>463.9</ele>
        <time>2021-12-13T09:45:08Z</time>
      </trkpt>
      <trkpt lat="47.7301" lon="5.00919">
        <ele>463.91</ele>
        <time>2021-12-13T09:45:11Z</time>
      </trkpt>
      <trkpt lat="47.73013" lon="5.00916">
        <ele>463.75</ele>
        <time>2021-12-13T09:45:14Z</time>
      </trkpt>
      <trkpt lat="47.73015" lon="5.00916">
        <ele>464.04</ele>
        <time>2021-12-13T09:45:21Z</time>
      </trkpt>
      <trkpt lat="47.73018" lon="5.00915">
        <ele>464.29</ele>
        <time>2021-12-13T09:45:26Z</time>
      </trkpt>
      <trkpt lat="47.73022" lon="5.00915">
        <ele>464.87</ele>
        <time>2021-12-13T09:45:29Z</time>
      </trkpt>
      <trkpt lat="47.73025" lon="5.00913">
        <ele>464.94</ele>
        <time>2021-12-13T09:45:32Z</time>
      </trkpt>
      <trkpt lat="47.73027" lon="5.00909">
        <ele>464.51</ele>
        <time>2021-12-13T09:45:35Z</time>
      </trkpt>
      <trkpt lat="47.73029" lon="5.00905">
        <ele>464.02</ele>
        <time>2021-12-13T09:45:39Z</time>
      </trkpt>
      <trkpt lat="47.73031" lon="5.00901">
        <ele>463.45</ele>
        <time>2021-12-13T09:45:47Z</time>
      </trkpt>
      <trkpt lat="47.73034" lon="5.00899">
        <ele>463.29</ele>
        <time>2021-12-13T09:45:50Z</time>
      </trkpt>
      <trkpt lat="47.73036" lon="5.00896">
        <ele>462.8</ele>
        <time>2021-12-13T09:45:53Z</time>
      </trkpt>
      <trkpt lat="47.73039" lon="5.00894">
        <ele>462.55</ele>
        <time>2021-12-13T09:45:56Z</time>
      </trkpt>
      <trkpt lat="47.73041" lon="5.00891">
        <ele>461.96</ele>
        <time>2021-12-13T09:45:59Z</time>
      </trkpt>
      <trkpt lat="47.73044" lon="5.00889">
        <ele>461.61</ele>
        <time>2021-12-13T09:46:02Z</time>
      </trkpt>
      <trkpt lat="47.73047" lon="5.00887">
        <ele>461.38</ele>
        <time>2021-12-13T09:46:06Z</time>
      </trkpt>
      <trkpt lat="47.7305" lon="5.00886">
        <ele>461.34</ele>
        <time>2021-12-13T09:46:11Z</time>
      </trkpt>
      <trkpt lat="47.73052" lon="5.00883">
        <ele>460.97</ele>
        <time>2021-12-13T09:46:15Z</time>
      </trkpt>
      <trkpt lat="47.73056" lon="5.00881">
        <ele>460.89</ele>
        <time>2021-12-13T09:46:19Z</time>
      </trkpt>
      <trkpt lat="47.73058" lon="5.00879">
        <ele>460.73</ele>
        <time>2021-12-13T09:46:22Z</time>
      </trkpt>
      <trkpt lat="47.73062" lon="5.00877">
        <ele>460.72</ele>
        <time>2021-12-13T09:46:25Z</time>
      </trkpt>
      <trkpt lat="47.73065" lon="5.00876">
        <ele>460.8</ele>
        <time>2021-12-13T09:46:27Z</time>
      </trkpt>
      <trkpt lat="47.73067" lon="5.00873">
        <ele>460.6</ele>
        <time>2021-12-13T09:46:30Z</time>
      </trkpt>
      <trkpt lat="47.73069" lon="5.00869">
        <ele>460.31</ele>
        <time>2021-12-13T09:46:33Z</time>
      </trkpt>
      <trkpt lat="47.73071" lon="5.00865">
        <ele>460.07</ele>
        <time>2021-12-13T09:46:36Z</time>
      </trkpt>
      <trkpt lat="47.73073" lon="5.00862">
        <ele>459.97</ele>
        <time>2021-12-13T09:46:39Z</time>
      </trkpt>
      <trkpt lat="47.73076" lon="5.00859">
        <ele>460.07</ele>
        <time>2021-12-13T09:46:42Z</time>
      </trkpt>
      <trkpt lat="47.73079" lon="5.00856">
        <ele>460.26</ele>
        <time>2021-12-13T09:46:45Z</time>
      </trkpt>
      <trkpt lat="47.73082" lon="5.00855">
        <ele>460.6</ele>
        <time>2021-12-13T09:46:48Z</time>
      </trkpt>
      <trkpt lat="47.73086" lon="5.00853">
        <ele>461.1</ele>
        <time>2021-12-13T09:46:51Z</time>
      </trkpt>
      <trkpt lat="47.73088" lon="5.00851">
        <ele>461.29</ele>
        <time>2021-12-13T09:46:54Z</time>
      </trkpt>
      <trkpt lat="47.73091" lon="5.00849">
        <ele>461.58</ele>
        <time>2021-12-13T09:46:57Z</time>
      </trkpt>
      <trkpt lat="47.73094" lon="5.00846">
        <ele>461.75</ele>
        <time>2021-12-13T09:47:00Z</time>
      </trkpt>
      <trkpt lat="47.73095" lon="5.00842">
        <ele>461.55</ele>
        <time>2021-12-13T09:47:02Z</time>
      </trkpt>
      <trkpt lat="47.73099" lon="5.0084">
        <ele>461.77</ele>
        <time>2021-12-13T09:47:05Z</time>
      </trkpt>
      <trkpt lat="47.73103" lon="5.0084">
        <ele>462.17</ele>
        <time>2021-12-13T09:47:08Z</time>
      </trkpt>
      <trkpt lat="47.73106" lon="5.00839">
        <ele>462.34</ele>
        <time>2021-12-13T09:47:11Z</time>
      </trkpt>
      <trkpt lat="47.73108" lon="5.00836">
        <ele>462.13</ele>
        <time>2021-12-13T09:47:15Z</time>
      </trkpt>
      <trkpt lat="47.7311" lon="5.00833">
        <ele>461.88</ele>
        <time>2021-12-13T09:47:18Z</time>
      </trkpt>
      <trkpt lat="47.73113" lon="5.00829">
        <ele>461.55</ele>
        <time>2021-12-13T09:47:21Z</time>
      </trkpt>
      <trkpt lat="47.73116" lon="5.00828">
        <ele>461.49</ele>
        <time>2021-12-13T09:47:23Z</time>
      </trkpt>
      <trkpt lat="47.73118" lon="5.00827">
        <ele>461.43</ele>
        <time>2021-12-13T09:47:25Z</time>
      </trkpt>
      <trkpt lat="47.73122" lon="5.00825">
        <ele>461.34</ele>
        <time>2021-12-13T09:47:28Z</time>
      </trkpt>
      <trkpt lat="47.73125" lon="5.00823">
        <ele>461.26</ele>
        <time>2021-12-13T09:47:32Z</time>
      </trkpt>
      <trkpt lat="47.73127" lon="5.0082">
        <ele>461.11</ele>
        <time>2021-12-13T09:47:35Z</time>
      </trkpt>
      <trkpt lat="47.7313" lon="5.00818">
        <ele>461.09</ele>
        <time>2021-12-13T09:47:38Z</time>
      </trkpt>
      <trkpt lat="47.73133" lon="5.00815">
        <ele>461.06</ele>
        <time>2021-12-13T09:47:42Z</time>
      </trkpt>
      <trkpt lat="47.73136" lon="5.00811">
        <ele>461.03</ele>
        <time>2021-12-13T09:47:46Z</time>
      </trkpt>
      <trkpt lat="47.73138" lon="5.00808">
        <ele>461.03</ele>
        <time>2021-12-13T09:47:49Z</time>
      </trkpt>
      <trkpt lat="47.73141" lon="5.00806">
        <ele>461.02</ele>
        <time>2021-12-13T09:47:52Z</time>
      </trkpt>
      <trkpt lat="47.73144" lon="5.00805">
        <ele>460.91</ele>
        <time>2021-12-13T09:47:55Z</time>
      </trkpt>
      <trkpt lat="47.73147" lon="5.00802">
        <ele>460.51</ele>
        <time>2021-12-13T09:47:59Z</time>
      </trkpt>
      <trkpt lat="47.73149" lon="5.00798">
        <ele>460.04</ele>
        <time>2021-12-13T09:48:02Z</time>
      </trkpt>
      <trkpt lat="47.73151" lon="5.00795">
        <ele>459.76</ele>
        <time>2021-12-13T09:48:05Z</time>
      </trkpt>
      <trkpt lat="47.73153" lon="5.00793">
        <ele>459.66</ele>
        <time>2021-12-13T09:48:08Z</time>
      </trkpt>
      <trkpt lat="47.73156" lon="5.00791">
        <ele>459.67</ele>
        <time>2021-12-13T09:48:11Z</time>
      </trkpt>
      <trkpt lat="47.73159" lon="5.00789">
        <ele>459.75</ele>
        <time>2021-12-13T09:48:14Z</time>
      </trkpt>
      <trkpt lat="47.73162" lon="5.00788">
        <ele>459.94</ele>
        <time>2021-12-13T09:48:17Z</time>
      </trkpt>
      <trkpt lat="47.73165" lon="5.00786">
        <ele>460.13</ele>
        <time>2021-12-13T09:48:21Z</time>
      </trkpt>
      <trkpt lat="47.73168" lon="5.00781">
        <ele>460.17</ele>
        <time>2021-12-13T09:48:24Z</time>
      </trkpt>
      <trkpt lat="47.7317" lon="5.00778">
        <ele>460.13</ele>
        <time>2021-12-13T09:48:26Z</time>
      </trkpt>
      <trkpt lat="47.73173" lon="5.00776">
        <ele>460.11</ele>
        <time>2021-12-13T09:48:29Z</time>
      </trkpt>
      <trkpt lat="47.73176" lon="5.00773">
        <ele>460.05</ele>
        <time>2021-12-13T09:48:32Z</time>
      </trkpt>
      <trkpt lat="47.73178" lon="5.00769">
        <ele>459.9</ele>
        <time>2021-12-13T09:48:34Z</time>
      </trkpt>
      <trkpt lat="47.7318" lon="5.00766">
        <ele>459.84</ele>
        <time>2021-12-13T09:48:36Z</time>
      </trkpt>
      <trkpt lat="47.73183" lon="5.00763">
        <ele>459.84</ele>
        <time>2021-12-13T09:48:39Z</time>
      </trkpt>
      <trkpt lat="47.73186" lon="5.00761">
        <ele>459.91</ele>
        <time>2021-12-13T09:48:42Z</time>
      </trkpt>
      <trkpt lat="47.7319" lon="5.00761">
        <ele>460.14</ele>
        <time>2021-12-13T09:48:45Z</time>
      </trkpt>
      <trkpt lat="47.73194" lon="5.0076">
        <ele>460.33</ele>
        <time>2021-12-13T09:48:48Z</time>
      </trkpt>
      <trkpt lat="47.73195" lon="5.00757">
        <ele>460.31</ele>
        <time>2021-12-13T09:48:51Z</time>
      </trkpt>
      <trkpt lat="47.73197" lon="5.00753">
        <ele>460.37</ele>
        <time>2021-12-13T09:48:56Z</time>
      </trkpt>
      <trkpt lat="47.73198" lon="5.00749">
        <ele>460.35</ele>
        <time>2021-12-13T09:49:01Z</time>
      </trkpt>
      <trkpt lat="47.732" lon="5.0075">
        <ele>460.6</ele>
        <time>2021-12-13T09:49:05Z</time>
      </trkpt>
      <trkpt lat="47.73203" lon="5.00752">
        <ele>460.97</ele>
        <time>2021-12-13T09:49:14Z</time>
      </trkpt>
      <trkpt lat="47.73204" lon="5.00748">
        <ele>460.96</ele>
        <time>2021-12-13T09:49:39Z</time>
      </trkpt>
      <trkpt lat="47.73206" lon="5.00744">
        <ele>461.03</ele>
        <time>2021-12-13T09:49:43Z</time>
      </trkpt>
      <trkpt lat="47.73208" lon="5.0074">
        <ele>461.1</ele>
        <time>2021-12-13T09:49:46Z</time>
      </trkpt>
      <trkpt lat="47.73209" lon="5.00735">
        <ele>461.03</ele>
        <time>2021-12-13T09:49:49Z</time>
      </trkpt>
      <trkpt lat="47.7321" lon="5.00731">
        <ele>461</ele>
        <time>2021-12-13T09:49:52Z</time>
      </trkpt>
      <trkpt lat="47.73211" lon="5.00726">
        <ele>460.92</ele>
        <time>2021-12-13T09:49:55Z</time>
      </trkpt>
      <trkpt lat="47.73213" lon="5.00722">
        <ele>460.99</ele>
        <time>2021-12-13T09:49:57Z</time>
      </trkpt>
      <trkpt lat="47.73214" lon="5.00718">
        <ele>460.76</ele>
        <time>2021-12-13T09:49:59Z</time>
      </trkpt>
      <trkpt lat="47.73216" lon="5.00713">
        <ele>460.59</ele>
        <time>2021-12-13T09:50:01Z</time>
      </trkpt>
      <trkpt lat="47.73217" lon="5.0071">
        <ele>460.47</ele>
        <time>2021-12-13T09:50:03Z</time>
      </trkpt>
      <trkpt lat="47.73219" lon="5.00706">
        <ele>460.42</ele>
        <time>2021-12-13T09:50:06Z</time>
      </trkpt>
      <trkpt lat="47.73221" lon="5.00702">
        <ele>460.38</ele>
        <time>2021-12-13T09:50:09Z</time>
      </trkpt>
      <trkpt lat="47.73222" lon="5.00698">
        <ele>460.23</ele>
        <time>2021-12-13T09:50:12Z</time>
      </trkpt>
      <trkpt lat="47.73224" lon="5.00694">
        <ele>460.35</ele>
        <time>2021-12-13T09:50:16Z</time>
      </trkpt>
      <trkpt lat="47.73226" lon="5.0069">
        <ele>460.47</ele>
        <time>2021-12-13T09:50:19Z</time>
      </trkpt>
      <trkpt lat="47.73227" lon="5.00684">
        <ele>460.22</ele>
        <time>2021-12-13T09:50:22Z</time>
      </trkpt>
      <trkpt lat="47.73228" lon="5.00679">
        <ele>460.02</ele>
        <time>2021-12-13T09:50:24Z</time>
      </trkpt>
      <trkpt lat="47.73229" lon="5.00674">
        <ele>459.81</ele>
        <time>2021-12-13T09:50:27Z</time>
      </trkpt>
      <trkpt lat="47.73232" lon="5.0067">
        <ele>460.04</ele>
        <time>2021-12-13T09:50:31Z</time>
      </trkpt>
      <trkpt lat="47.73233" lon="5.00666">
        <ele>459.87</ele>
        <time>2021-12-13T09:50:34Z</time>
      </trkpt>
      <trkpt lat="47.73235" lon="5.00662">
        <ele>459.8</ele>
        <time>2021-12-13T09:50:37Z</time>
      </trkpt>
      <trkpt lat="47.73237" lon="5.00657">
        <ele>459.62</ele>
        <time>2021-12-13T09:50:40Z</time>
      </trkpt>
      <trkpt lat="47.73238" lon="5.00653">
        <ele>459.36</ele>
        <time>2021-12-13T09:50:43Z</time>
      </trkpt>
      <trkpt lat="47.7324" lon="5.00649">
        <ele>459.29</ele>
        <time>2021-12-13T09:50:45Z</time>
      </trkpt>
      <trkpt lat="47.73241" lon="5.00645">
        <ele>459.04</ele>
        <time>2021-12-13T09:50:47Z</time>
      </trkpt>
      <trkpt lat="47.73243" lon="5.00642">
        <ele>459.08</ele>
        <time>2021-12-13T09:50:49Z</time>
      </trkpt>
      <trkpt lat="47.73245" lon="5.00639">
        <ele>459.11</ele>
        <time>2021-12-13T09:50:52Z</time>
      </trkpt>
      <trkpt lat="47.73248" lon="5.00635">
        <ele>459.36</ele>
        <time>2021-12-13T09:50:56Z</time>
      </trkpt>
      <trkpt lat="47.7325" lon="5.0063">
        <ele>459.36</ele>
        <time>2021-12-13T09:50:58Z</time>
      </trkpt>
      <trkpt lat="47.73252" lon="5.00625">
        <ele>459.32</ele>
        <time>2021-12-13T09:51:00Z</time>
      </trkpt>
      <trkpt lat="47.73253" lon="5.00621">
        <ele>459.21</ele>
        <time>2021-12-13T09:51:02Z</time>
      </trkpt>
      <trkpt lat="47.73256" lon="5.00618">
        <ele>459.52</ele>
        <time>2021-12-13T09:51:05Z</time>
      </trkpt>
      <trkpt lat="47.73258" lon="5.00614">
        <ele>459.62</ele>
        <time>2021-12-13T09:51:08Z</time>
      </trkpt>
      <trkpt lat="47.7326" lon="5.00609">
        <ele>459.6</ele>
        <time>2021-12-13T09:51:11Z</time>
      </trkpt>
      <trkpt lat="47.73262" lon="5.00604">
        <ele>459.5</ele>
        <time>2021-12-13T09:51:14Z</time>
      </trkpt>
      <trkpt lat="47.73264" lon="5.006">
        <ele>459.52</ele>
        <time>2021-12-13T09:51:17Z</time>
      </trkpt>
      <trkpt lat="47.73265" lon="5.00596">
        <ele>459.36</ele>
        <time>2021-12-13T09:51:20Z</time>
      </trkpt>
      <trkpt lat="47.73267" lon="5.00592">
        <ele>459.42</ele>
        <time>2021-12-13T09:51:23Z</time>
      </trkpt>
      <trkpt lat="47.73268" lon="5.00588">
        <ele>459.28</ele>
        <time>2021-12-13T09:51:26Z</time>
      </trkpt>
      <trkpt lat="47.73269" lon="5.00583">
        <ele>459.09</ele>
        <time>2021-12-13T09:51:29Z</time>
      </trkpt>
      <trkpt lat="47.73271" lon="5.0058">
        <ele>459.45</ele>
        <time>2021-12-13T09:51:32Z</time>
      </trkpt>
      <trkpt lat="47.73273" lon="5.00576">
        <ele>459.83</ele>
        <time>2021-12-13T09:51:36Z</time>
      </trkpt>
      <trkpt lat="47.73275" lon="5.00573">
        <ele>460.29</ele>
        <time>2021-12-13T09:51:39Z</time>
      </trkpt>
      <trkpt lat="47.73277" lon="5.00569">
        <ele>460.79</ele>
        <time>2021-12-13T09:51:43Z</time>
      </trkpt>
      <trkpt lat="47.7328" lon="5.00564">
        <ele>461.45</ele>
        <time>2021-12-13T09:51:46Z</time>
      </trkpt>
      <trkpt lat="47.73283" lon="5.0056">
        <ele>462</ele>
        <time>2021-12-13T09:51:48Z</time>
      </trkpt>
      <trkpt lat="47.73284" lon="5.00556">
        <ele>462.13</ele>
        <time>2021-12-13T09:51:49Z</time>
      </trkpt>
      <trkpt lat="47.73286" lon="5.0055">
        <ele>462.08</ele>
        <time>2021-12-13T09:51:51Z</time>
      </trkpt>
      <trkpt lat="47.73287" lon="5.00546">
        <ele>461.97</ele>
        <time>2021-12-13T09:51:53Z</time>
      </trkpt>
      <trkpt lat="47.73287" lon="5.00541">
        <ele>461.61</ele>
        <time>2021-12-13T09:51:56Z</time>
      </trkpt>
      <trkpt lat="47.73287" lon="5.00537">
        <ele>461.32</ele>
        <time>2021-12-13T09:52:00Z</time>
      </trkpt>
      <trkpt lat="47.73288" lon="5.00533">
        <ele>461.22</ele>
        <time>2021-12-13T09:52:03Z</time>
      </trkpt>
      <trkpt lat="47.73289" lon="5.00529">
        <ele>461.11</ele>
        <time>2021-12-13T09:52:06Z</time>
      </trkpt>
      <trkpt lat="47.7329" lon="5.00524">
        <ele>460.73</ele>
        <time>2021-12-13T09:52:09Z</time>
      </trkpt>
      <trkpt lat="47.7329" lon="5.00519">
        <ele>460.11</ele>
        <time>2021-12-13T09:52:11Z</time>
      </trkpt>
      <trkpt lat="47.73291" lon="5.00515">
        <ele>459.78</ele>
        <time>2021-12-13T09:52:13Z</time>
      </trkpt>
      <trkpt lat="47.73294" lon="5.00512">
        <ele>459.88</ele>
        <time>2021-12-13T09:52:17Z</time>
      </trkpt>
      <trkpt lat="47.73296" lon="5.00508">
        <ele>459.68</ele>
        <time>2021-12-13T09:52:21Z</time>
      </trkpt>
      <trkpt lat="47.73297" lon="5.00503">
        <ele>459.17</ele>
        <time>2021-12-13T09:52:24Z</time>
      </trkpt>
      <trkpt lat="47.73299" lon="5.00499">
        <ele>458.98</ele>
        <time>2021-12-13T09:52:28Z</time>
      </trkpt>
      <trkpt lat="47.73301" lon="5.00496">
        <ele>459.03</ele>
        <time>2021-12-13T09:52:31Z</time>
      </trkpt>
      <trkpt lat="47.73303" lon="5.00491">
        <ele>458.95</ele>
        <time>2021-12-13T09:52:33Z</time>
      </trkpt>
      <trkpt lat="47.73303" lon="5.00487">
        <ele>458.65</ele>
        <time>2021-12-13T09:52:34Z</time>
      </trkpt>
      <trkpt lat="47.73304" lon="5.0048">
        <ele>458.3</ele>
        <time>2021-12-13T09:52:36Z</time>
      </trkpt>
      <trkpt lat="47.73305" lon="5.00475">
        <ele>458.1</ele>
        <time>2021-12-13T09:52:38Z</time>
      </trkpt>
      <trkpt lat="47.73306" lon="5.0047">
        <ele>457.94</ele>
        <time>2021-12-13T09:52:41Z</time>
      </trkpt>
      <trkpt lat="47.73308" lon="5.00466">
        <ele>457.9</ele>
        <time>2021-12-13T09:52:44Z</time>
      </trkpt>
      <trkpt lat="47.7331" lon="5.00462">
        <ele>457.91</ele>
        <time>2021-12-13T09:52:47Z</time>
      </trkpt>
      <trkpt lat="47.73311" lon="5.00457">
        <ele>457.86</ele>
        <time>2021-12-13T09:52:50Z</time>
      </trkpt>
      <trkpt lat="47.73311" lon="5.00452">
        <ele>457.75</ele>
        <time>2021-12-13T09:52:53Z</time>
      </trkpt>
      <trkpt lat="47.73312" lon="5.00448">
        <ele>457.76</ele>
        <time>2021-12-13T09:52:57Z</time>
      </trkpt>
      <trkpt lat="47.73315" lon="5.00445">
        <ele>458.03</ele>
        <time>2021-12-13T09:53:00Z</time>
      </trkpt>
      <trkpt lat="47.73317" lon="5.00442">
        <ele>458.11</ele>
        <time>2021-12-13T09:53:02Z</time>
      </trkpt>
      <trkpt lat="47.73319" lon="5.00438">
        <ele>458.11</ele>
        <time>2021-12-13T09:53:04Z</time>
      </trkpt>
      <trkpt lat="47.7332" lon="5.00433">
        <ele>457.93</ele>
        <time>2021-12-13T09:53:06Z</time>
      </trkpt>
      <trkpt lat="47.73321" lon="5.00429">
        <ele>457.8</ele>
        <time>2021-12-13T09:53:08Z</time>
      </trkpt>
      <trkpt lat="47.73322" lon="5.00425">
        <ele>457.66</ele>
        <time>2021-12-13T09:53:10Z</time>
      </trkpt>
      <trkpt lat="47.73322" lon="5.00419">
        <ele>457.32</ele>
        <time>2021-12-13T09:53:13Z</time>
      </trkpt>
      <trkpt lat="47.73323" lon="5.00415">
        <ele>457.23</ele>
        <time>2021-12-13T09:53:17Z</time>
      </trkpt>
      <trkpt lat="47.73324" lon="5.00411">
        <ele>457.26</ele>
        <time>2021-12-13T09:53:21Z</time>
      </trkpt>
      <trkpt lat="47.73325" lon="5.00407">
        <ele>457.3</ele>
        <time>2021-12-13T09:53:25Z</time>
      </trkpt>
      <trkpt lat="47.73325" lon="5.00402">
        <ele>457.24</ele>
        <time>2021-12-13T09:53:28Z</time>
      </trkpt>
      <trkpt lat="47.73325" lon="5.00397">
        <ele>457.19</ele>
        <time>2021-12-13T09:53:30Z</time>
      </trkpt>
      <trkpt lat="47.73325" lon="5.00393">
        <ele>457.14</ele>
        <time>2021-12-13T09:53:33Z</time>
      </trkpt>
      <trkpt lat="47.73325" lon="5.00387">
        <ele>457</ele>
        <time>2021-12-13T09:53:36Z</time>
      </trkpt>
      <trkpt lat="47.73325" lon="5.00382">
        <ele>456.75</ele>
        <time>2021-12-13T09:53:39Z</time>
      </trkpt>
      <trkpt lat="47.73326" lon="5.00377">
        <ele>456.58</ele>
        <time>2021-12-13T09:53:42Z</time>
      </trkpt>
      <trkpt lat="47.73328" lon="5.00372">
        <ele>456.44</ele>
        <time>2021-12-13T09:53:45Z</time>
      </trkpt>
      <trkpt lat="47.73329" lon="5.00369">
        <ele>456.32</ele>
        <time>2021-12-13T09:53:47Z</time>
      </trkpt>
      <trkpt lat="47.73331" lon="5.00366">
        <ele>456.24</ele>
        <time>2021-12-13T09:53:49Z</time>
      </trkpt>
      <trkpt lat="47.73333" lon="5.00361">
        <ele>455.99</ele>
        <time>2021-12-13T09:53:52Z</time>
      </trkpt>
      <trkpt lat="47.73334" lon="5.00356">
        <ele>456.2</ele>
        <time>2021-12-13T09:53:54Z</time>
      </trkpt>
      <trkpt lat="47.73334" lon="5.00352">
        <ele>456.34</ele>
        <time>2021-12-13T09:53:57Z</time>
      </trkpt>
      <trkpt lat="47.73335" lon="5.00347">
        <ele>456.51</ele>
        <time>2021-12-13T09:54:01Z</time>
      </trkpt>
      <trkpt lat="47.73336" lon="5.00343">
        <ele>456.62</ele>
        <time>2021-12-13T09:54:04Z</time>
      </trkpt>
      <trkpt lat="47.73337" lon="5.00338">
        <ele>456.74</ele>
        <time>2021-12-13T09:54:09Z</time>
      </trkpt>
      <trkpt lat="47.73339" lon="5.00335">
        <ele>456.76</ele>
        <time>2021-12-13T09:54:12Z</time>
      </trkpt>
      <trkpt lat="47.7334" lon="5.0033">
        <ele>456.82</ele>
        <time>2021-12-13T09:54:15Z</time>
      </trkpt>
      <trkpt lat="47.73341" lon="5.00326">
        <ele>456.84</ele>
        <time>2021-12-13T09:54:18Z</time>
      </trkpt>
      <trkpt lat="47.73341" lon="5.00321">
        <ele>456.92</ele>
        <time>2021-12-13T09:54:21Z</time>
      </trkpt>
      <trkpt lat="47.73342" lon="5.00315">
        <ele>456.94</ele>
        <time>2021-12-13T09:54:24Z</time>
      </trkpt>
      <trkpt lat="47.73342" lon="5.0031">
        <ele>457</ele>
        <time>2021-12-13T09:54:27Z</time>
      </trkpt>
      <trkpt lat="47.73342" lon="5.00305">
        <ele>457.04</ele>
        <time>2021-12-13T09:54:30Z</time>
      </trkpt>
      <trkpt lat="47.73342" lon="5.003">
        <ele>456.79</ele>
        <time>2021-12-13T09:54:34Z</time>
      </trkpt>
      <trkpt lat="47.73343" lon="5.00295">
        <ele>456.46</ele>
        <time>2021-12-13T09:54:38Z</time>
      </trkpt>
      <trkpt lat="47.73344" lon="5.0029">
        <ele>456.16</ele>
        <time>2021-12-13T09:54:41Z</time>
      </trkpt>
      <trkpt lat="47.73343" lon="5.00284">
        <ele>455.94</ele>
        <time>2021-12-13T09:54:43Z</time>
      </trkpt>
      <trkpt lat="47.73343" lon="5.00276">
        <ele>455.59</ele>
        <time>2021-12-13T09:54:45Z</time>
      </trkpt>
      <trkpt lat="47.73342" lon="5.0027">
        <ele>455.41</ele>
        <time>2021-12-13T09:54:47Z</time>
      </trkpt>
      <trkpt lat="47.73342" lon="5.00264">
        <ele>455.19</ele>
        <time>2021-12-13T09:54:49Z</time>
      </trkpt>
      <trkpt lat="47.73341" lon="5.0026">
        <ele>455.08</ele>
        <time>2021-12-13T09:54:51Z</time>
      </trkpt>
      <trkpt lat="47.73341" lon="5.00255">
        <ele>454.9</ele>
        <time>2021-12-13T09:54:54Z</time>
      </trkpt>
      <trkpt lat="47.73341" lon="5.0025">
        <ele>454.72</ele>
        <time>2021-12-13T09:54:57Z</time>
      </trkpt>
      <trkpt lat="47.73342" lon="5.00246">
        <ele>454.63</ele>
        <time>2021-12-13T09:55:00Z</time>
      </trkpt>
      <trkpt lat="47.73342" lon="5.00242">
        <ele>454.58</ele>
        <time>2021-12-13T09:55:04Z</time>
      </trkpt>
      <trkpt lat="47.73344" lon="5.00237">
        <ele>454.51</ele>
        <time>2021-12-13T09:55:09Z</time>
      </trkpt>
      <trkpt lat="47.73346" lon="5.00233">
        <ele>454.49</ele>
        <time>2021-12-13T09:55:13Z</time>
      </trkpt>
      <trkpt lat="47.73347" lon="5.00229">
        <ele>454.5</ele>
        <time>2021-12-13T09:55:15Z</time>
      </trkpt>
      <trkpt lat="47.73348" lon="5.00224">
        <ele>454.52</ele>
        <time>2021-12-13T09:55:18Z</time>
      </trkpt>
      <trkpt lat="47.73348" lon="5.00219">
        <ele>454.59</ele>
        <time>2021-12-13T09:55:20Z</time>
      </trkpt>
      <trkpt lat="47.73349" lon="5.00215">
        <ele>454.71</ele>
        <time>2021-12-13T09:55:23Z</time>
      </trkpt>
      <trkpt lat="47.7335" lon="5.0021">
        <ele>454.86</ele>
        <time>2021-12-13T09:55:26Z</time>
      </trkpt>
      <trkpt lat="47.73351" lon="5.00204">
        <ele>455.05</ele>
        <time>2021-12-13T09:55:29Z</time>
      </trkpt>
      <trkpt lat="47.73351" lon="5.00199">
        <ele>455.17</ele>
        <time>2021-12-13T09:55:31Z</time>
      </trkpt>
      <trkpt lat="47.73352" lon="5.00194">
        <ele>455.33</ele>
        <time>2021-12-13T09:55:34Z</time>
      </trkpt>
      <trkpt lat="47.73353" lon="5.00189">
        <ele>455.28</ele>
        <time>2021-12-13T09:55:37Z</time>
      </trkpt>
      <trkpt lat="47.73355" lon="5.00185">
        <ele>455.29</ele>
        <time>2021-12-13T09:55:40Z</time>
      </trkpt>
      <trkpt lat="47.73357" lon="5.00181">
        <ele>455.29</ele>
        <time>2021-12-13T09:55:44Z</time>
      </trkpt>
      <trkpt lat="47.73358" lon="5.00176">
        <ele>455.19</ele>
        <time>2021-12-13T09:55:47Z</time>
      </trkpt>
      <trkpt lat="47.7336" lon="5.00172">
        <ele>455.14</ele>
        <time>2021-12-13T09:55:49Z</time>
      </trkpt>
      <trkpt lat="47.73361" lon="5.00169">
        <ele>455.08</ele>
        <time>2021-12-13T09:55:51Z</time>
      </trkpt>
      <trkpt lat="47.73364" lon="5.00165">
        <ele>454.52</ele>
        <time>2021-12-13T09:55:54Z</time>
      </trkpt>
      <trkpt lat="47.73366" lon="5.00162">
        <ele>454.03</ele>
        <time>2021-12-13T09:55:57Z</time>
      </trkpt>
      <trkpt lat="47.73369" lon="5.00159">
        <ele>453.48</ele>
        <time>2021-12-13T09:56:00Z</time>
      </trkpt>
      <trkpt lat="47.73371" lon="5.00154">
        <ele>452.89</ele>
        <time>2021-12-13T09:56:03Z</time>
      </trkpt>
      <trkpt lat="47.73373" lon="5.00151">
        <ele>452.51</ele>
        <time>2021-12-13T09:56:06Z</time>
      </trkpt>
      <trkpt lat="47.73374" lon="5.00147">
        <ele>452.14</ele>
        <time>2021-12-13T09:56:10Z</time>
      </trkpt>
      <trkpt lat="47.73375" lon="5.00142">
        <ele>451.72</ele>
        <time>2021-12-13T09:56:14Z</time>
      </trkpt>
      <trkpt lat="47.73377" lon="5.00138">
        <ele>451.4</ele>
        <time>2021-12-13T09:56:17Z</time>
      </trkpt>
      <trkpt lat="47.73378" lon="5.00134">
        <ele>451.22</ele>
        <time>2021-12-13T09:56:20Z</time>
      </trkpt>
      <trkpt lat="47.73381" lon="5.00131">
        <ele>451</ele>
        <time>2021-12-13T09:56:24Z</time>
      </trkpt>
      <trkpt lat="47.73381" lon="5.00126">
        <ele>450.82</ele>
        <time>2021-12-13T09:56:27Z</time>
      </trkpt>
      <trkpt lat="47.73382" lon="5.00122">
        <ele>450.64</ele>
        <time>2021-12-13T09:56:30Z</time>
      </trkpt>
      <trkpt lat="47.73381" lon="5.00117">
        <ele>450.5</ele>
        <time>2021-12-13T09:56:33Z</time>
      </trkpt>
      <trkpt lat="47.73381" lon="5.00113">
        <ele>450.35</ele>
        <time>2021-12-13T09:56:37Z</time>
      </trkpt>
      <trkpt lat="47.73381" lon="5.00108">
        <ele>450.28</ele>
        <time>2021-12-13T09:56:40Z</time>
      </trkpt>
      <trkpt lat="47.73382" lon="5.00104">
        <ele>450.25</ele>
        <time>2021-12-13T09:56:43Z</time>
      </trkpt>
      <trkpt lat="47.73383" lon="5.00099">
        <ele>450.21</ele>
        <time>2021-12-13T09:56:46Z</time>
      </trkpt>
      <trkpt lat="47.73384" lon="5.00095">
        <ele>450.18</ele>
        <time>2021-12-13T09:56:49Z</time>
      </trkpt>
      <trkpt lat="47.73384" lon="5.00089">
        <ele>450.18</ele>
        <time>2021-12-13T09:56:52Z</time>
      </trkpt>
      <trkpt lat="47.73383" lon="5.00085">
        <ele>450.21</ele>
        <time>2021-12-13T09:56:54Z</time>
      </trkpt>
      <trkpt lat="47.73383" lon="5.00081">
        <ele>450.19</ele>
        <time>2021-12-13T09:56:57Z</time>
      </trkpt>
      <trkpt lat="47.73383" lon="5.00076">
        <ele>450.16</ele>
        <time>2021-12-13T09:57:01Z</time>
      </trkpt>
      <trkpt lat="47.73383" lon="5.00071">
        <ele>450.12</ele>
        <time>2021-12-13T09:57:04Z</time>
      </trkpt>
      <trkpt lat="47.73383" lon="5.00067">
        <ele>450.09</ele>
        <time>2021-12-13T09:57:07Z</time>
      </trkpt>
      <trkpt lat="47.73383" lon="5.00062">
        <ele>450.05</ele>
        <time>2021-12-13T09:57:10Z</time>
      </trkpt>
      <trkpt lat="47.73382" lon="5.00057">
        <ele>450.01</ele>
        <time>2021-12-13T09:57:13Z</time>
      </trkpt>
      <trkpt lat="47.73382" lon="5.00053">
        <ele>450.11</ele>
        <time>2021-12-13T09:57:16Z</time>
      </trkpt>
      <trkpt lat="47.73382" lon="5.00049">
        <ele>450.29</ele>
        <time>2021-12-13T09:57:20Z</time>
      </trkpt>
      <trkpt lat="47.73382" lon="5.00045">
        <ele>450.47</ele>
        <time>2021-12-13T09:57:23Z</time>
      </trkpt>
      <trkpt lat="47.73382" lon="5.0004">
        <ele>450.7</ele>
        <time>2021-12-13T09:57:28Z</time>
      </trkpt>
      <trkpt lat="47.73381" lon="5.00035">
        <ele>450.95</ele>
        <time>2021-12-13T09:57:31Z</time>
      </trkpt>
      <trkpt lat="47.73379" lon="5.00031">
        <ele>451.2</ele>
        <time>2021-12-13T09:57:33Z</time>
      </trkpt>
      <trkpt lat="47.73378" lon="5.00026">
        <ele>451.3</ele>
        <time>2021-12-13T09:57:35Z</time>
      </trkpt>
      <trkpt lat="47.73377" lon="5.00021">
        <ele>451.08</ele>
        <time>2021-12-13T09:57:38Z</time>
      </trkpt>
      <trkpt lat="47.73376" lon="5.00016">
        <ele>450.84</ele>
        <time>2021-12-13T09:57:41Z</time>
      </trkpt>
      <trkpt lat="47.73376" lon="5.00011">
        <ele>450.58</ele>
        <time>2021-12-13T09:57:45Z</time>
      </trkpt>
      <trkpt lat="47.73376" lon="5.00005">
        <ele>450.26</ele>
        <time>2021-12-13T09:57:48Z</time>
      </trkpt>
      <trkpt lat="47.73375" lon="5.00001">
        <ele>450.05</ele>
        <time>2021-12-13T09:57:50Z</time>
      </trkpt>
      <trkpt lat="47.73375" lon="4.99996">
        <ele>450</ele>
        <time>2021-12-13T09:57:53Z</time>
      </trkpt>
      <trkpt lat="47.73375" lon="4.99991">
        <ele>450</ele>
        <time>2021-12-13T09:57:56Z</time>
      </trkpt>
      <trkpt lat="47.73375" lon="4.99987">
        <ele>450</ele>
        <time>2021-12-13T09:57:59Z</time>
      </trkpt>
      <trkpt lat="47.73374" lon="4.99982">
        <ele>449.95</ele>
        <time>2021-12-13T09:58:02Z</time>
      </trkpt>
      <trkpt lat="47.73373" lon="4.99977">
        <ele>449.88</ele>
        <time>2021-12-13T09:58:05Z</time>
      </trkpt>
      <trkpt lat="47.73371" lon="4.99972">
        <ele>449.73</ele>
        <time>2021-12-13T09:58:08Z</time>
      </trkpt>
      <trkpt lat="47.7337" lon="4.99967">
        <ele>450.14</ele>
        <time>2021-12-13T09:58:11Z</time>
      </trkpt>
      <trkpt lat="47.73369" lon="4.99962">
        <ele>450.57</ele>
        <time>2021-12-13T09:58:14Z</time>
      </trkpt>
      <trkpt lat="47.73368" lon="4.99957">
        <ele>451</ele>
        <time>2021-12-13T09:58:18Z</time>
      </trkpt>
      <trkpt lat="47.73368" lon="4.99952">
        <ele>451.5</ele>
        <time>2021-12-13T09:58:21Z</time>
      </trkpt>
      <trkpt lat="47.73368" lon="4.99947">
        <ele>451.99</ele>
        <time>2021-12-13T09:58:23Z</time>
      </trkpt>
      <trkpt lat="47.73368" lon="4.99942">
        <ele>452.42</ele>
        <time>2021-12-13T09:58:26Z</time>
      </trkpt>
      <trkpt lat="47.73368" lon="4.99937">
        <ele>452.78</ele>
        <time>2021-12-13T09:58:29Z</time>
      </trkpt>
      <trkpt lat="47.73368" lon="4.99932">
        <ele>453.14</ele>
        <time>2021-12-13T09:58:33Z</time>
      </trkpt>
      <trkpt lat="47.73367" lon="4.99928">
        <ele>453.4</ele>
        <time>2021-12-13T09:58:38Z</time>
      </trkpt>
      <trkpt lat="47.73367" lon="4.99923">
        <ele>453.76</ele>
        <time>2021-12-13T09:58:41Z</time>
      </trkpt>
      <trkpt lat="47.73366" lon="4.99918">
        <ele>454.08</ele>
        <time>2021-12-13T09:58:44Z</time>
      </trkpt>
      <trkpt lat="47.73365" lon="4.99914">
        <ele>454.32</ele>
        <time>2021-12-13T09:58:47Z</time>
      </trkpt>
      <trkpt lat="47.73364" lon="4.99909">
        <ele>454.63</ele>
        <time>2021-12-13T09:58:51Z</time>
      </trkpt>
      <trkpt lat="47.73363" lon="4.99905">
        <ele>454.88</ele>
        <time>2021-12-13T09:58:55Z</time>
      </trkpt>
      <trkpt lat="47.73363" lon="4.999">
        <ele>455.23</ele>
        <time>2021-12-13T09:58:57Z</time>
      </trkpt>
      <trkpt lat="47.73362" lon="4.99893">
        <ele>455.71</ele>
        <time>2021-12-13T09:58:59Z</time>
      </trkpt>
      <trkpt lat="47.7336" lon="4.99887">
        <ele>455.73</ele>
        <time>2021-12-13T09:59:01Z</time>
      </trkpt>
      <trkpt lat="47.73359" lon="4.9988">
        <ele>455.25</ele>
        <time>2021-12-13T09:59:03Z</time>
      </trkpt>
      <trkpt lat="47.73359" lon="4.99875">
        <ele>455.04</ele>
        <time>2021-12-13T09:59:05Z</time>
      </trkpt>
      <trkpt lat="47.73358" lon="4.99869">
        <ele>454.56</ele>
        <time>2021-12-13T09:59:07Z</time>
      </trkpt>
      <trkpt lat="47.73358" lon="4.99864">
        <ele>454.34</ele>
        <time>2021-12-13T09:59:09Z</time>
      </trkpt>
      <trkpt lat="47.73357" lon="4.9986">
        <ele>453.87</ele>
        <time>2021-12-13T09:59:11Z</time>
      </trkpt>
      <trkpt lat="47.73357" lon="4.99854">
        <ele>453.38</ele>
        <time>2021-12-13T09:59:14Z</time>
      </trkpt>
      <trkpt lat="47.73357" lon="4.9985">
        <ele>453.05</ele>
        <time>2021-12-13T09:59:16Z</time>
      </trkpt>
      <trkpt lat="47.73356" lon="4.99845">
        <ele>452.34</ele>
        <time>2021-12-13T09:59:19Z</time>
      </trkpt>
      <trkpt lat="47.73355" lon="4.99841">
        <ele>451.69</ele>
        <time>2021-12-13T09:59:23Z</time>
      </trkpt>
      <trkpt lat="47.73353" lon="4.99836">
        <ele>450.62</ele>
        <time>2021-12-13T09:59:26Z</time>
      </trkpt>
      <trkpt lat="47.73352" lon="4.99833">
        <ele>450.02</ele>
        <time>2021-12-13T09:59:28Z</time>
      </trkpt>
      <trkpt lat="47.7335" lon="4.99827">
        <ele>448.85</ele>
        <time>2021-12-13T09:59:31Z</time>
      </trkpt>
      <trkpt lat="47.73349" lon="4.99822">
        <ele>448.16</ele>
        <time>2021-12-13T09:59:34Z</time>
      </trkpt>
      <trkpt lat="47.73347" lon="4.99818">
        <ele>447.34</ele>
        <time>2021-12-13T09:59:37Z</time>
      </trkpt>
      <trkpt lat="47.73346" lon="4.99813">
        <ele>446.77</ele>
        <time>2021-12-13T09:59:41Z</time>
      </trkpt>
      <trkpt lat="47.73345" lon="4.99809">
        <ele>446.31</ele>
        <time>2021-12-13T09:59:44Z</time>
      </trkpt>
      <trkpt lat="47.73344" lon="4.99804">
        <ele>445.82</ele>
        <time>2021-12-13T09:59:47Z</time>
      </trkpt>
      <trkpt lat="47.73343" lon="4.99799">
        <ele>445.34</ele>
        <time>2021-12-13T09:59:50Z</time>
      </trkpt>
      <trkpt lat="47.73342" lon="4.99795">
        <ele>444.94</ele>
        <time>2021-12-13T09:59:53Z</time>
      </trkpt>
      <trkpt lat="47.73341" lon="4.9979">
        <ele>444.51</ele>
        <time>2021-12-13T09:59:56Z</time>
      </trkpt>
      <trkpt lat="47.7334" lon="4.99786">
        <ele>444.16</ele>
        <time>2021-12-13T10:00:00Z</time>
      </trkpt>
      <trkpt lat="47.7334" lon="4.99782">
        <ele>443.94</ele>
        <time>2021-12-13T10:00:03Z</time>
      </trkpt>
      <trkpt lat="47.73341" lon="4.99777">
        <ele>443.73</ele>
        <time>2021-12-13T10:00:06Z</time>
      </trkpt>
      <trkpt lat="47.73341" lon="4.99772">
        <ele>443.09</ele>
        <time>2021-12-13T10:00:09Z</time>
      </trkpt>
      <trkpt lat="47.73341" lon="4.99766">
        <ele>442.32</ele>
        <time>2021-12-13T10:00:12Z</time>
      </trkpt>
      <trkpt lat="47.7334" lon="4.99762">
        <ele>441.74</ele>
        <time>2021-12-13T10:00:14Z</time>
      </trkpt>
      <trkpt lat="47.73339" lon="4.99757">
        <ele>441.06</ele>
        <time>2021-12-13T10:00:17Z</time>
      </trkpt>
      <trkpt lat="47.73338" lon="4.99752">
        <ele>440.41</ele>
        <time>2021-12-13T10:00:20Z</time>
      </trkpt>
      <trkpt lat="47.73337" lon="4.99747">
        <ele>439.68</ele>
        <time>2021-12-13T10:00:22Z</time>
      </trkpt>
      <trkpt lat="47.73336" lon="4.99742">
        <ele>438.82</ele>
        <time>2021-12-13T10:00:25Z</time>
      </trkpt>
      <trkpt lat="47.73336" lon="4.99738">
        <ele>438.18</ele>
        <time>2021-12-13T10:00:28Z</time>
      </trkpt>
      <trkpt lat="47.73337" lon="4.99733">
        <ele>437.56</ele>
        <time>2021-12-13T10:00:32Z</time>
      </trkpt>
      <trkpt lat="47.73338" lon="4.99728">
        <ele>437.01</ele>
        <time>2021-12-13T10:00:35Z</time>
      </trkpt>
      <trkpt lat="47.73338" lon="4.99723">
        <ele>436.29</ele>
        <time>2021-12-13T10:00:38Z</time>
      </trkpt>
      <trkpt lat="47.73339" lon="4.99718">
        <ele>435.91</ele>
        <time>2021-12-13T10:00:42Z</time>
      </trkpt>
      <trkpt lat="47.7334" lon="4.99713">
        <ele>435.52</ele>
        <time>2021-12-13T10:00:46Z</time>
      </trkpt>
      <trkpt lat="47.73341" lon="4.99709">
        <ele>435.24</ele>
        <time>2021-12-13T10:00:50Z</time>
      </trkpt>
      <trkpt lat="47.73342" lon="4.99705">
        <ele>434.94</ele>
        <time>2021-12-13T10:00:54Z</time>
      </trkpt>
      <trkpt lat="47.73342" lon="4.997">
        <ele>434.28</ele>
        <time>2021-12-13T10:00:57Z</time>
      </trkpt>
      <trkpt lat="47.73342" lon="4.99695">
        <ele>433.63</ele>
        <time>2021-12-13T10:01:00Z</time>
      </trkpt>
      <trkpt lat="47.73343" lon="4.99691">
        <ele>433.08</ele>
        <time>2021-12-13T10:01:04Z</time>
      </trkpt>
      <trkpt lat="47.73344" lon="4.99686">
        <ele>432.28</ele>
        <time>2021-12-13T10:01:08Z</time>
      </trkpt>
      <trkpt lat="47.73345" lon="4.99681">
        <ele>431.48</ele>
        <time>2021-12-13T10:01:11Z</time>
      </trkpt>
      <trkpt lat="47.73346" lon="4.99678">
        <ele>431.05</ele>
        <time>2021-12-13T10:01:14Z</time>
      </trkpt>
      <trkpt lat="47.73348" lon="4.99672">
        <ele>430.17</ele>
        <time>2021-12-13T10:01:17Z</time>
      </trkpt>
      <trkpt lat="47.7335" lon="4.99667">
        <ele>429.47</ele>
        <time>2021-12-13T10:01:20Z</time>
      </trkpt>
      <trkpt lat="47.73351" lon="4.99663">
        <ele>428.88</ele>
        <time>2021-12-13T10:01:24Z</time>
      </trkpt>
      <trkpt lat="47.73353" lon="4.99658">
        <ele>428.27</ele>
        <time>2021-12-13T10:01:28Z</time>
      </trkpt>
      <trkpt lat="47.73354" lon="4.99654">
        <ele>427.7</ele>
        <time>2021-12-13T10:01:31Z</time>
      </trkpt>
      <trkpt lat="47.73356" lon="4.9965">
        <ele>427.26</ele>
        <time>2021-12-13T10:01:34Z</time>
      </trkpt>
      <trkpt lat="47.7336" lon="4.99647">
        <ele>427.3</ele>
        <time>2021-12-13T10:01:37Z</time>
      </trkpt>
      <trkpt lat="47.73362" lon="4.99645">
        <ele>427.16</ele>
        <time>2021-12-13T10:01:39Z</time>
      </trkpt>
      <trkpt lat="47.73365" lon="4.99644">
        <ele>427.17</ele>
        <time>2021-12-13T10:01:41Z</time>
      </trkpt>
      <trkpt lat="47.73368" lon="4.99643">
        <ele>427.2</ele>
        <time>2021-12-13T10:01:44Z</time>
      </trkpt>
      <trkpt lat="47.73371" lon="4.99642">
        <ele>427.23</ele>
        <time>2021-12-13T10:01:47Z</time>
      </trkpt>
      <trkpt lat="47.73375" lon="4.99641">
        <ele>427.34</ele>
        <time>2021-12-13T10:01:50Z</time>
      </trkpt>
      <trkpt lat="47.73378" lon="4.9964">
        <ele>427.39</ele>
        <time>2021-12-13T10:01:53Z</time>
      </trkpt>
      <trkpt lat="47.73381" lon="4.99638">
        <ele>427.21</ele>
        <time>2021-12-13T10:01:55Z</time>
      </trkpt>
      <trkpt lat="47.73384" lon="4.99637">
        <ele>427.2</ele>
        <time>2021-12-13T10:01:57Z</time>
      </trkpt>
      <trkpt lat="47.73386" lon="4.99636">
        <ele>427.14</ele>
        <time>2021-12-13T10:01:59Z</time>
      </trkpt>
      <trkpt lat="47.7339" lon="4.99635">
        <ele>427.14</ele>
        <time>2021-12-13T10:02:02Z</time>
      </trkpt>
      <trkpt lat="47.73394" lon="4.99634">
        <ele>426.86</ele>
        <time>2021-12-13T10:02:05Z</time>
      </trkpt>
      <trkpt lat="47.73398" lon="4.99634">
        <ele>426.79</ele>
        <time>2021-12-13T10:02:07Z</time>
      </trkpt>
      <trkpt lat="47.73401" lon="4.99633">
        <ele>426.57</ele>
        <time>2021-12-13T10:02:09Z</time>
      </trkpt>
      <trkpt lat="47.73404" lon="4.99632">
        <ele>426.37</ele>
        <time>2021-12-13T10:02:11Z</time>
      </trkpt>
      <trkpt lat="47.73406" lon="4.99631">
        <ele>426.2</ele>
        <time>2021-12-13T10:02:13Z</time>
      </trkpt>
      <trkpt lat="47.7341" lon="4.9963">
        <ele>426.05</ele>
        <time>2021-12-13T10:02:16Z</time>
      </trkpt>
      <trkpt lat="47.73414" lon="4.99629">
        <ele>425.93</ele>
        <time>2021-12-13T10:02:19Z</time>
      </trkpt>
      <trkpt lat="47.73417" lon="4.99629">
        <ele>425.92</ele>
        <time>2021-12-13T10:02:22Z</time>
      </trkpt>
      <trkpt lat="47.7342" lon="4.99628">
        <ele>425.69</ele>
        <time>2021-12-13T10:02:25Z</time>
      </trkpt>
      <trkpt lat="47.73423" lon="4.99626">
        <ele>425.22</ele>
        <time>2021-12-13T10:02:28Z</time>
      </trkpt>
      <trkpt lat="47.73427" lon="4.99624">
        <ele>424.54</ele>
        <time>2021-12-13T10:02:31Z</time>
      </trkpt>
      <trkpt lat="47.7343" lon="4.99623">
        <ele>424.05</ele>
        <time>2021-12-13T10:02:34Z</time>
      </trkpt>
      <trkpt lat="47.73433" lon="4.99622">
        <ele>423.49</ele>
        <time>2021-12-13T10:02:37Z</time>
      </trkpt>
      <trkpt lat="47.73437" lon="4.99622">
        <ele>423.08</ele>
        <time>2021-12-13T10:02:40Z</time>
      </trkpt>
      <trkpt lat="47.7344" lon="4.99622">
        <ele>422.77</ele>
        <time>2021-12-13T10:02:43Z</time>
      </trkpt>
      <trkpt lat="47.73444" lon="4.99623">
        <ele>422.75</ele>
        <time>2021-12-13T10:02:46Z</time>
      </trkpt>
      <trkpt lat="47.73447" lon="4.99622">
        <ele>422.11</ele>
        <time>2021-12-13T10:02:48Z</time>
      </trkpt>
      <trkpt lat="47.73451" lon="4.99621">
        <ele>421.43</ele>
        <time>2021-12-13T10:02:51Z</time>
      </trkpt>
      <trkpt lat="47.73454" lon="4.99621">
        <ele>421.2</ele>
        <time>2021-12-13T10:02:54Z</time>
      </trkpt>
      <trkpt lat="47.73457" lon="4.9962">
        <ele>420.63</ele>
        <time>2021-12-13T10:02:57Z</time>
      </trkpt>
      <trkpt lat="47.73461" lon="4.9962">
        <ele>420.35</ele>
        <time>2021-12-13T10:03:00Z</time>
      </trkpt>
      <trkpt lat="47.73464" lon="4.99621">
        <ele>420.46</ele>
        <time>2021-12-13T10:03:03Z</time>
      </trkpt>
      <trkpt lat="47.73468" lon="4.99622">
        <ele>420.47</ele>
        <time>2021-12-13T10:03:06Z</time>
      </trkpt>
      <trkpt lat="47.7347" lon="4.99623">
        <ele>420.61</ele>
        <time>2021-12-13T10:03:09Z</time>
      </trkpt>
      <trkpt lat="47.73473" lon="4.99624">
        <ele>420.82</ele>
        <time>2021-12-13T10:03:12Z</time>
      </trkpt>
      <trkpt lat="47.73477" lon="4.99626">
        <ele>421.99</ele>
        <time>2021-12-13T10:03:15Z</time>
      </trkpt>
      <trkpt lat="47.7348" lon="4.99627">
        <ele>422.74</ele>
        <time>2021-12-13T10:03:18Z</time>
      </trkpt>
      <trkpt lat="47.73484" lon="4.99629">
        <ele>423.97</ele>
        <time>2021-12-13T10:03:21Z</time>
      </trkpt>
      <trkpt lat="47.73487" lon="4.9963">
        <ele>424.76</ele>
        <time>2021-12-13T10:03:23Z</time>
      </trkpt>
      <trkpt lat="47.7349" lon="4.99631">
        <ele>425.56</ele>
        <time>2021-12-13T10:03:25Z</time>
      </trkpt>
      <trkpt lat="47.73493" lon="4.99633">
        <ele>426.73</ele>
        <time>2021-12-13T10:03:27Z</time>
      </trkpt>
      <trkpt lat="47.73496" lon="4.99634">
        <ele>427.57</ele>
        <time>2021-12-13T10:03:29Z</time>
      </trkpt>
      <trkpt lat="47.73499" lon="4.99636">
        <ele>428.79</ele>
        <time>2021-12-13T10:03:31Z</time>
      </trkpt>
      <trkpt lat="47.73501" lon="4.99638">
        <ele>429.61</ele>
        <time>2021-12-13T10:03:33Z</time>
      </trkpt>
      <trkpt lat="47.73504" lon="4.99641">
        <ele>429.89</ele>
        <time>2021-12-13T10:03:35Z</time>
      </trkpt>
      <trkpt lat="47.73506" lon="4.99643">
        <ele>429.85</ele>
        <time>2021-12-13T10:03:37Z</time>
      </trkpt>
      <trkpt lat="47.73509" lon="4.99645">
        <ele>429.66</ele>
        <time>2021-12-13T10:03:40Z</time>
      </trkpt>
      <trkpt lat="47.73512" lon="4.99648">
        <ele>429.41</ele>
        <time>2021-12-13T10:03:43Z</time>
      </trkpt>
      <trkpt lat="47.73515" lon="4.99651">
        <ele>429.05</ele>
        <time>2021-12-13T10:03:46Z</time>
      </trkpt>
      <trkpt lat="47.73518" lon="4.99653">
        <ele>428.58</ele>
        <time>2021-12-13T10:03:49Z</time>
      </trkpt>
      <trkpt lat="47.7352" lon="4.99655">
        <ele>428.21</ele>
        <time>2021-12-13T10:03:51Z</time>
      </trkpt>
      <trkpt lat="47.73523" lon="4.99657">
        <ele>427.6</ele>
        <time>2021-12-13T10:03:53Z</time>
      </trkpt>
      <trkpt lat="47.73525" lon="4.99659">
        <ele>427.11</ele>
        <time>2021-12-13T10:03:55Z</time>
      </trkpt>
      <trkpt lat="47.73528" lon="4.99661">
        <ele>426.38</ele>
        <time>2021-12-13T10:03:57Z</time>
      </trkpt>
      <trkpt lat="47.73531" lon="4.99663">
        <ele>425.99</ele>
        <time>2021-12-13T10:03:59Z</time>
      </trkpt>
      <trkpt lat="47.73534" lon="4.99665">
        <ele>425.76</ele>
        <time>2021-12-13T10:04:02Z</time>
      </trkpt>
      <trkpt lat="47.73536" lon="4.99669">
        <ele>426.09</ele>
        <time>2021-12-13T10:04:05Z</time>
      </trkpt>
      <trkpt lat="47.73538" lon="4.99672">
        <ele>426.54</ele>
        <time>2021-12-13T10:04:07Z</time>
      </trkpt>
      <trkpt lat="47.7354" lon="4.99675">
        <ele>427.02</ele>
        <time>2021-12-13T10:04:09Z</time>
      </trkpt>
      <trkpt lat="47.73544" lon="4.99678">
        <ele>427.52</ele>
        <time>2021-12-13T10:04:12Z</time>
      </trkpt>
      <trkpt lat="47.73546" lon="4.9968">
        <ele>427.89</ele>
        <time>2021-12-13T10:04:15Z</time>
      </trkpt>
      <trkpt lat="47.73549" lon="4.99683">
        <ele>428.49</ele>
        <time>2021-12-13T10:04:18Z</time>
      </trkpt>
      <trkpt lat="47.73552" lon="4.99686">
        <ele>429.13</ele>
        <time>2021-12-13T10:04:21Z</time>
      </trkpt>
      <trkpt lat="47.73554" lon="4.9969">
        <ele>430</ele>
        <time>2021-12-13T10:04:24Z</time>
      </trkpt>
      <trkpt lat="47.73556" lon="4.99693">
        <ele>430.61</ele>
        <time>2021-12-13T10:04:27Z</time>
      </trkpt>
      <trkpt lat="47.73558" lon="4.99696">
        <ele>430.24</ele>
        <time>2021-12-13T10:04:30Z</time>
      </trkpt>
      <trkpt lat="47.7356" lon="4.997">
        <ele>429.13</ele>
        <time>2021-12-13T10:04:33Z</time>
      </trkpt>
      <trkpt lat="47.73562" lon="4.99704">
        <ele>428.1</ele>
        <time>2021-12-13T10:04:36Z</time>
      </trkpt>
      <trkpt lat="47.73566" lon="4.99706">
        <ele>427.25</ele>
        <time>2021-12-13T10:04:39Z</time>
      </trkpt>
      <trkpt lat="47.73569" lon="4.99708">
        <ele>426.6</ele>
        <time>2021-12-13T10:04:42Z</time>
      </trkpt>
      <trkpt lat="47.73572" lon="4.99709">
        <ele>426.14</ele>
        <time>2021-12-13T10:04:44Z</time>
      </trkpt>
      <trkpt lat="47.73575" lon="4.99711">
        <ele>425.59</ele>
        <time>2021-12-13T10:04:46Z</time>
      </trkpt>
      <trkpt lat="47.73577" lon="4.99712">
        <ele>425.3</ele>
        <time>2021-12-13T10:04:48Z</time>
      </trkpt>
      <trkpt lat="47.7358" lon="4.99713">
        <ele>424.94</ele>
        <time>2021-12-13T10:04:51Z</time>
      </trkpt>
      <trkpt lat="47.73582" lon="4.9971">
        <ele>425.01</ele>
        <time>2021-12-13T10:04:56Z</time>
      </trkpt>
      <trkpt lat="47.73584" lon="4.99706">
        <ele>425.08</ele>
        <time>2021-12-13T10:05:00Z</time>
      </trkpt>
      <trkpt lat="47.73585" lon="4.99701">
        <ele>425.27</ele>
        <time>2021-12-13T10:05:04Z</time>
      </trkpt>
      <trkpt lat="47.73585" lon="4.99696">
        <ele>425.6</ele>
        <time>2021-12-13T10:05:08Z</time>
      </trkpt>
      <trkpt lat="47.73586" lon="4.99692">
        <ele>425.25</ele>
        <time>2021-12-13T10:05:12Z</time>
      </trkpt>
      <trkpt lat="47.73587" lon="4.99688">
        <ele>424.61</ele>
        <time>2021-12-13T10:05:15Z</time>
      </trkpt>
      <trkpt lat="47.73588" lon="4.99683">
        <ele>423.85</ele>
        <time>2021-12-13T10:05:18Z</time>
      </trkpt>
      <trkpt lat="47.73589" lon="4.99678">
        <ele>423.08</ele>
        <time>2021-12-13T10:05:21Z</time>
      </trkpt>
      <trkpt lat="47.7359" lon="4.99674">
        <ele>422.42</ele>
        <time>2021-12-13T10:05:24Z</time>
      </trkpt>
      <trkpt lat="47.7359" lon="4.99669">
        <ele>421.83</ele>
        <time>2021-12-13T10:05:27Z</time>
      </trkpt>
      <trkpt lat="47.73591" lon="4.99665">
        <ele>420.96</ele>
        <time>2021-12-13T10:05:29Z</time>
      </trkpt>
      <trkpt lat="47.73591" lon="4.9966">
        <ele>419.8</ele>
        <time>2021-12-13T10:05:31Z</time>
      </trkpt>
      <trkpt lat="47.73591" lon="4.99656">
        <ele>418.87</ele>
        <time>2021-12-13T10:05:33Z</time>
      </trkpt>
      <trkpt lat="47.73592" lon="4.99651">
        <ele>417.53</ele>
        <time>2021-12-13T10:05:36Z</time>
      </trkpt>
      <trkpt lat="47.73593" lon="4.99646">
        <ele>416.22</ele>
        <time>2021-12-13T10:05:40Z</time>
      </trkpt>
      <trkpt lat="47.73594" lon="4.99641">
        <ele>414.94</ele>
        <time>2021-12-13T10:05:43Z</time>
      </trkpt>
      <trkpt lat="47.73595" lon="4.99636">
        <ele>413.93</ele>
        <time>2021-12-13T10:05:46Z</time>
      </trkpt>
      <trkpt lat="47.73596" lon="4.99631">
        <ele>413.14</ele>
        <time>2021-12-13T10:05:49Z</time>
      </trkpt>
      <trkpt lat="47.73597" lon="4.99627">
        <ele>412.52</ele>
        <time>2021-12-13T10:05:51Z</time>
      </trkpt>
      <trkpt lat="47.73598" lon="4.99623">
        <ele>411.93</ele>
        <time>2021-12-13T10:05:53Z</time>
      </trkpt>
      <trkpt lat="47.73599" lon="4.99618">
        <ele>411.26</ele>
        <time>2021-12-13T10:05:56Z</time>
      </trkpt>
      <trkpt lat="47.73599" lon="4.99613">
        <ele>410.66</ele>
        <time>2021-12-13T10:05:59Z</time>
      </trkpt>
      <trkpt lat="47.73599" lon="4.99608">
        <ele>410.21</ele>
        <time>2021-12-13T10:06:02Z</time>
      </trkpt>
      <trkpt lat="47.736" lon="4.99603">
        <ele>409.82</ele>
        <time>2021-12-13T10:06:04Z</time>
      </trkpt>
      <trkpt lat="47.73601" lon="4.99598">
        <ele>409.42</ele>
        <time>2021-12-13T10:06:07Z</time>
      </trkpt>
      <trkpt lat="47.73601" lon="4.99594">
        <ele>409.13</ele>
        <time>2021-12-13T10:06:10Z</time>
      </trkpt>
      <trkpt lat="47.73602" lon="4.99589">
        <ele>408.74</ele>
        <time>2021-12-13T10:06:14Z</time>
      </trkpt>
      <trkpt lat="47.73603" lon="4.99585">
        <ele>408.41</ele>
        <time>2021-12-13T10:06:17Z</time>
      </trkpt>
      <trkpt lat="47.73603" lon="4.9958">
        <ele>407.71</ele>
        <time>2021-12-13T10:06:20Z</time>
      </trkpt>
      <trkpt lat="47.73604" lon="4.99576">
        <ele>407</ele>
        <time>2021-12-13T10:06:23Z</time>
      </trkpt>
      <trkpt lat="47.73605" lon="4.99571">
        <ele>406.15</ele>
        <time>2021-12-13T10:06:26Z</time>
      </trkpt>
      <trkpt lat="47.73607" lon="4.99566">
        <ele>405.37</ele>
        <time>2021-12-13T10:06:29Z</time>
      </trkpt>
      <trkpt lat="47.73608" lon="4.99562">
        <ele>404.78</ele>
        <time>2021-12-13T10:06:32Z</time>
      </trkpt>
      <trkpt lat="47.73609" lon="4.99558">
        <ele>404.22</ele>
        <time>2021-12-13T10:06:35Z</time>
      </trkpt>
      <trkpt lat="47.7361" lon="4.99554">
        <ele>403.64</ele>
        <time>2021-12-13T10:06:38Z</time>
      </trkpt>
      <trkpt lat="47.7361" lon="4.99549">
        <ele>402.74</ele>
        <time>2021-12-13T10:06:41Z</time>
      </trkpt>
      <trkpt lat="47.7361" lon="4.99544">
        <ele>401.84</ele>
        <time>2021-12-13T10:06:44Z</time>
      </trkpt>
      <trkpt lat="47.73611" lon="4.99538">
        <ele>400.83</ele>
        <time>2021-12-13T10:06:47Z</time>
      </trkpt>
      <trkpt lat="47.73612" lon="4.99535">
        <ele>400.32</ele>
        <time>2021-12-13T10:06:49Z</time>
      </trkpt>
      <trkpt lat="47.73613" lon="4.99529">
        <ele>399.28</ele>
        <time>2021-12-13T10:06:52Z</time>
      </trkpt>
      <trkpt lat="47.73614" lon="4.99523">
        <ele>398.53</ele>
        <time>2021-12-13T10:06:55Z</time>
      </trkpt>
      <trkpt lat="47.73616" lon="4.99518">
        <ele>397.93</ele>
        <time>2021-12-13T10:06:58Z</time>
      </trkpt>
      <trkpt lat="47.73617" lon="4.99513">
        <ele>397.28</ele>
        <time>2021-12-13T10:07:01Z</time>
      </trkpt>
      <trkpt lat="47.73618" lon="4.99509">
        <ele>396.72</ele>
        <time>2021-12-13T10:07:04Z</time>
      </trkpt>
      <trkpt lat="47.73618" lon="4.99504">
        <ele>396.04</ele>
        <time>2021-12-13T10:07:07Z</time>
      </trkpt>
      <trkpt lat="47.73619" lon="4.995">
        <ele>395.43</ele>
        <time>2021-12-13T10:07:10Z</time>
      </trkpt>
      <trkpt lat="47.73621" lon="4.99495">
        <ele>394.53</ele>
        <time>2021-12-13T10:07:13Z</time>
      </trkpt>
      <trkpt lat="47.73622" lon="4.9949">
        <ele>393.76</ele>
        <time>2021-12-13T10:07:16Z</time>
      </trkpt>
      <trkpt lat="47.73623" lon="4.99485">
        <ele>393.06</ele>
        <time>2021-12-13T10:07:19Z</time>
      </trkpt>
      <trkpt lat="47.73624" lon="4.99481">
        <ele>392.55</ele>
        <time>2021-12-13T10:07:22Z</time>
      </trkpt>
      <trkpt lat="47.73625" lon="4.99476">
        <ele>391.98</ele>
        <time>2021-12-13T10:07:25Z</time>
      </trkpt>
      <trkpt lat="47.73626" lon="4.99471">
        <ele>391.5</ele>
        <time>2021-12-13T10:07:28Z</time>
      </trkpt>
      <trkpt lat="47.73627" lon="4.99465">
        <ele>391.05</ele>
        <time>2021-12-13T10:07:31Z</time>
      </trkpt>
      <trkpt lat="47.73628" lon="4.99461">
        <ele>390.77</ele>
        <time>2021-12-13T10:07:33Z</time>
      </trkpt>
      <trkpt lat="47.7363" lon="4.99457">
        <ele>390.57</ele>
        <time>2021-12-13T10:07:36Z</time>
      </trkpt>
      <trkpt lat="47.73633" lon="4.99455">
        <ele>390.64</ele>
        <time>2021-12-13T10:07:39Z</time>
      </trkpt>
      <trkpt lat="47.73635" lon="4.99453">
        <ele>390.6</ele>
        <time>2021-12-13T10:07:42Z</time>
      </trkpt>
      <trkpt lat="47.73638" lon="4.99451">
        <ele>390.64</ele>
        <time>2021-12-13T10:07:45Z</time>
      </trkpt>
      <trkpt lat="47.73641" lon="4.9945">
        <ele>390.46</ele>
        <time>2021-12-13T10:07:48Z</time>
      </trkpt>
      <trkpt lat="47.73643" lon="4.99448">
        <ele>390.11</ele>
        <time>2021-12-13T10:07:51Z</time>
      </trkpt>
      <trkpt lat="47.73645" lon="4.99445">
        <ele>389.62</ele>
        <time>2021-12-13T10:07:54Z</time>
      </trkpt>
      <trkpt lat="47.73648" lon="4.99443">
        <ele>388.96</ele>
        <time>2021-12-13T10:07:57Z</time>
      </trkpt>
      <trkpt lat="47.73652" lon="4.99441">
        <ele>388.13</ele>
        <time>2021-12-13T10:08:00Z</time>
      </trkpt>
      <trkpt lat="47.73654" lon="4.9944">
        <ele>387.7</ele>
        <time>2021-12-13T10:08:02Z</time>
      </trkpt>
      <trkpt lat="47.73658" lon="4.99439">
        <ele>387.12</ele>
        <time>2021-12-13T10:08:04Z</time>
      </trkpt>
      <trkpt lat="47.73661" lon="4.99437">
        <ele>386.32</ele>
        <time>2021-12-13T10:08:06Z</time>
      </trkpt>
      <trkpt lat="47.73663" lon="4.99436">
        <ele>385.87</ele>
        <time>2021-12-13T10:08:08Z</time>
      </trkpt>
      <trkpt lat="47.73667" lon="4.99434">
        <ele>384.98</ele>
        <time>2021-12-13T10:08:11Z</time>
      </trkpt>
      <trkpt lat="47.73669" lon="4.99432">
        <ele>384.35</ele>
        <time>2021-12-13T10:08:14Z</time>
      </trkpt>
      <trkpt lat="47.73672" lon="4.99431">
        <ele>384.02</ele>
        <time>2021-12-13T10:08:17Z</time>
      </trkpt>
      <trkpt lat="47.73676" lon="4.99429">
        <ele>383.48</ele>
        <time>2021-12-13T10:08:20Z</time>
      </trkpt>
      <trkpt lat="47.73679" lon="4.99427">
        <ele>383.04</ele>
        <time>2021-12-13T10:08:23Z</time>
      </trkpt>
      <trkpt lat="47.73682" lon="4.99425">
        <ele>382.68</ele>
        <time>2021-12-13T10:08:26Z</time>
      </trkpt>
      <trkpt lat="47.73685" lon="4.99423">
        <ele>382.39</ele>
        <time>2021-12-13T10:08:29Z</time>
      </trkpt>
      <trkpt lat="47.73689" lon="4.99421">
        <ele>382.23</ele>
        <time>2021-12-13T10:08:32Z</time>
      </trkpt>
      <trkpt lat="47.73692" lon="4.99419">
        <ele>382.11</ele>
        <time>2021-12-13T10:08:35Z</time>
      </trkpt>
      <trkpt lat="47.73695" lon="4.99418">
        <ele>382.07</ele>
        <time>2021-12-13T10:08:37Z</time>
      </trkpt>
      <trkpt lat="47.73697" lon="4.99416">
        <ele>381.56</ele>
        <time>2021-12-13T10:08:39Z</time>
      </trkpt>
      <trkpt lat="47.73701" lon="4.99414">
        <ele>380.77</ele>
        <time>2021-12-13T10:08:42Z</time>
      </trkpt>
      <trkpt lat="47.73704" lon="4.99412">
        <ele>380.12</ele>
        <time>2021-12-13T10:08:45Z</time>
      </trkpt>
      <trkpt lat="47.73708" lon="4.99411">
        <ele>379.44</ele>
        <time>2021-12-13T10:08:48Z</time>
      </trkpt>
      <trkpt lat="47.73711" lon="4.99409">
        <ele>378.79</ele>
        <time>2021-12-13T10:08:51Z</time>
      </trkpt>
      <trkpt lat="47.73714" lon="4.99407">
        <ele>378.14</ele>
        <time>2021-12-13T10:08:54Z</time>
      </trkpt>
      <trkpt lat="47.73717" lon="4.99406">
        <ele>377.6</ele>
        <time>2021-12-13T10:08:57Z</time>
      </trkpt>
      <trkpt lat="47.73719" lon="4.99404">
        <ele>377.1</ele>
        <time>2021-12-13T10:09:00Z</time>
      </trkpt>
      <trkpt lat="47.73723" lon="4.99402">
        <ele>376.39</ele>
        <time>2021-12-13T10:09:03Z</time>
      </trkpt>
      <trkpt lat="47.73726" lon="4.99401">
        <ele>376.17</ele>
        <time>2021-12-13T10:09:06Z</time>
      </trkpt>
      <trkpt lat="47.7373" lon="4.99399">
        <ele>375.81</ele>
        <time>2021-12-13T10:09:09Z</time>
      </trkpt>
      <trkpt lat="47.73733" lon="4.99398">
        <ele>375.6</ele>
        <time>2021-12-13T10:09:11Z</time>
      </trkpt>
      <trkpt lat="47.73735" lon="4.99395">
        <ele>375.2</ele>
        <time>2021-12-13T10:09:13Z</time>
      </trkpt>
      <trkpt lat="47.73737" lon="4.99393">
        <ele>374.91</ele>
        <time>2021-12-13T10:09:15Z</time>
      </trkpt>
      <trkpt lat="47.7374" lon="4.99391">
        <ele>374.59</ele>
        <time>2021-12-13T10:09:17Z</time>
      </trkpt>
      <trkpt lat="47.73743" lon="4.99388">
        <ele>374.18</ele>
        <time>2021-12-13T10:09:20Z</time>
      </trkpt>
      <trkpt lat="47.73746" lon="4.99386">
        <ele>373.92</ele>
        <time>2021-12-13T10:09:23Z</time>
      </trkpt>
      <trkpt lat="47.73749" lon="4.99385">
        <ele>373.75</ele>
        <time>2021-12-13T10:09:26Z</time>
      </trkpt>
      <trkpt lat="47.73752" lon="4.99384">
        <ele>373.59</ele>
        <time>2021-12-13T10:09:29Z</time>
      </trkpt>
      <trkpt lat="47.73755" lon="4.99384">
        <ele>373.5</ele>
        <time>2021-12-13T10:09:32Z</time>
      </trkpt>
      <trkpt lat="47.73759" lon="4.99384">
        <ele>373.38</ele>
        <time>2021-12-13T10:09:35Z</time>
      </trkpt>
      <trkpt lat="47.73763" lon="4.99384">
        <ele>373.26</ele>
        <time>2021-12-13T10:09:38Z</time>
      </trkpt>
      <trkpt lat="47.73766" lon="4.99385">
        <ele>373.22</ele>
        <time>2021-12-13T10:09:41Z</time>
      </trkpt>
      <trkpt lat="47.73769" lon="4.99384">
        <ele>373.08</ele>
        <time>2021-12-13T10:09:44Z</time>
      </trkpt>
      <trkpt lat="47.73772" lon="4.99384">
        <ele>373</ele>
        <time>2021-12-13T10:09:47Z</time>
      </trkpt>
      <trkpt lat="47.73775" lon="4.99383">
        <ele>372.87</ele>
        <time>2021-12-13T10:09:50Z</time>
      </trkpt>
      <trkpt lat="47.73778" lon="4.99382">
        <ele>372.75</ele>
        <time>2021-12-13T10:09:53Z</time>
      </trkpt>
      <trkpt lat="47.73781" lon="4.99382">
        <ele>372.75</ele>
        <time>2021-12-13T10:09:56Z</time>
      </trkpt>
      <trkpt lat="47.73785" lon="4.9938">
        <ele>372.61</ele>
        <time>2021-12-13T10:09:59Z</time>
      </trkpt>
      <trkpt lat="47.73788" lon="4.99377">
        <ele>372.31</ele>
        <time>2021-12-13T10:10:02Z</time>
      </trkpt>
      <trkpt lat="47.73791" lon="4.99375">
        <ele>372.02</ele>
        <time>2021-12-13T10:10:05Z</time>
      </trkpt>
      <trkpt lat="47.73794" lon="4.99373">
        <ele>371.68</ele>
        <time>2021-12-13T10:10:09Z</time>
      </trkpt>
      <trkpt lat="47.73797" lon="4.99371">
        <ele>371.27</ele>
        <time>2021-12-13T10:10:13Z</time>
      </trkpt>
      <trkpt lat="47.738" lon="4.99369">
        <ele>370.79</ele>
        <time>2021-12-13T10:10:16Z</time>
      </trkpt>
      <trkpt lat="47.73803" lon="4.99368">
        <ele>370.42</ele>
        <time>2021-12-13T10:10:19Z</time>
      </trkpt>
      <trkpt lat="47.73807" lon="4.99367">
        <ele>370.05</ele>
        <time>2021-12-13T10:10:22Z</time>
      </trkpt>
      <trkpt lat="47.7381" lon="4.99365">
        <ele>369.68</ele>
        <time>2021-12-13T10:10:25Z</time>
      </trkpt>
      <trkpt lat="47.73813" lon="4.99364">
        <ele>369.49</ele>
        <time>2021-12-13T10:10:28Z</time>
      </trkpt>
      <trkpt lat="47.73815" lon="4.99362">
        <ele>369.15</ele>
        <time>2021-12-13T10:10:31Z</time>
      </trkpt>
      <trkpt lat="47.73818" lon="4.9936">
        <ele>368.98</ele>
        <time>2021-12-13T10:10:34Z</time>
      </trkpt>
      <trkpt lat="47.73822" lon="4.99358">
        <ele>368.93</ele>
        <time>2021-12-13T10:10:37Z</time>
      </trkpt>
      <trkpt lat="47.73825" lon="4.99356">
        <ele>368.87</ele>
        <time>2021-12-13T10:10:40Z</time>
      </trkpt>
      <trkpt lat="47.73828" lon="4.99355">
        <ele>368.82</ele>
        <time>2021-12-13T10:10:44Z</time>
      </trkpt>
      <trkpt lat="47.73831" lon="4.99354">
        <ele>368.77</ele>
        <time>2021-12-13T10:10:47Z</time>
      </trkpt>
      <trkpt lat="47.73835" lon="4.99352">
        <ele>368.75</ele>
        <time>2021-12-13T10:10:50Z</time>
      </trkpt>
      <trkpt lat="47.73838" lon="4.99351">
        <ele>368.87</ele>
        <time>2021-12-13T10:10:52Z</time>
      </trkpt>
      <trkpt lat="47.73841" lon="4.9935">
        <ele>368.99</ele>
        <time>2021-12-13T10:10:54Z</time>
      </trkpt>
      <trkpt lat="47.73844" lon="4.99348">
        <ele>369.09</ele>
        <time>2021-12-13T10:10:56Z</time>
      </trkpt>
      <trkpt lat="47.73846" lon="4.99347">
        <ele>369.18</ele>
        <time>2021-12-13T10:10:58Z</time>
      </trkpt>
      <trkpt lat="47.73849" lon="4.99346">
        <ele>369.33</ele>
        <time>2021-12-13T10:11:01Z</time>
      </trkpt>
      <trkpt lat="47.73853" lon="4.99345">
        <ele>369.54</ele>
        <time>2021-12-13T10:11:04Z</time>
      </trkpt>
      <trkpt lat="47.73856" lon="4.99344">
        <ele>369.7</ele>
        <time>2021-12-13T10:11:07Z</time>
      </trkpt>
      <trkpt lat="47.7386" lon="4.99343">
        <ele>369.93</ele>
        <time>2021-12-13T10:11:10Z</time>
      </trkpt>
      <trkpt lat="47.73863" lon="4.99342">
        <ele>369.8</ele>
        <time>2021-12-13T10:11:13Z</time>
      </trkpt>
      <trkpt lat="47.73866" lon="4.99341">
        <ele>369.47</ele>
        <time>2021-12-13T10:11:17Z</time>
      </trkpt>
      <trkpt lat="47.73869" lon="4.99341">
        <ele>369.15</ele>
        <time>2021-12-13T10:11:20Z</time>
      </trkpt>
      <trkpt lat="47.73872" lon="4.99341">
        <ele>368.82</ele>
        <time>2021-12-13T10:11:23Z</time>
      </trkpt>
      <trkpt lat="47.73876" lon="4.9934">
        <ele>368.39</ele>
        <time>2021-12-13T10:11:26Z</time>
      </trkpt>
      <trkpt lat="47.73878" lon="4.9934">
        <ele>368.18</ele>
        <time>2021-12-13T10:11:28Z</time>
      </trkpt>
      <trkpt lat="47.73882" lon="4.9934">
        <ele>367.74</ele>
        <time>2021-12-13T10:11:31Z</time>
      </trkpt>
      <trkpt lat="47.73886" lon="4.99341">
        <ele>367.31</ele>
        <time>2021-12-13T10:11:35Z</time>
      </trkpt>
      <trkpt lat="47.73889" lon="4.9934">
        <ele>367</ele>
        <time>2021-12-13T10:11:38Z</time>
      </trkpt>
      <trkpt lat="47.73892" lon="4.99339">
        <ele>366.98</ele>
        <time>2021-12-13T10:11:41Z</time>
      </trkpt>
      <trkpt lat="47.73894" lon="4.99336">
        <ele>366.98</ele>
        <time>2021-12-13T10:11:44Z</time>
      </trkpt>
      <trkpt lat="47.73895" lon="4.99332">
        <ele>367.04</ele>
        <time>2021-12-13T10:11:47Z</time>
      </trkpt>
      <trkpt lat="47.73895" lon="4.99327">
        <ele>367.18</ele>
        <time>2021-12-13T10:11:50Z</time>
      </trkpt>
      <trkpt lat="47.73894" lon="4.99322">
        <ele>367.33</ele>
        <time>2021-12-13T10:11:53Z</time>
      </trkpt>
      <trkpt lat="47.73892" lon="4.99317">
        <ele>367.52</ele>
        <time>2021-12-13T10:11:56Z</time>
      </trkpt>
      <trkpt lat="47.7389" lon="4.99313">
        <ele>367.7</ele>
        <time>2021-12-13T10:11:59Z</time>
      </trkpt>
      <trkpt lat="47.73888" lon="4.99307">
        <ele>368.01</ele>
        <time>2021-12-13T10:12:02Z</time>
      </trkpt>
      <trkpt lat="47.73886" lon="4.99303">
        <ele>368.21</ele>
        <time>2021-12-13T10:12:04Z</time>
      </trkpt>
      <trkpt lat="47.73885" lon="4.99298">
        <ele>368.28</ele>
        <time>2021-12-13T10:12:07Z</time>
      </trkpt>
      <trkpt lat="47.73884" lon="4.99292">
        <ele>368.35</ele>
        <time>2021-12-13T10:12:10Z</time>
      </trkpt>
      <trkpt lat="47.73883" lon="4.99289">
        <ele>368.42</ele>
        <time>2021-12-13T10:12:12Z</time>
      </trkpt>
      <trkpt lat="47.73881" lon="4.99284">
        <ele>368.57</ele>
        <time>2021-12-13T10:12:15Z</time>
      </trkpt>
      <trkpt lat="47.7388" lon="4.99279">
        <ele>368.64</ele>
        <time>2021-12-13T10:12:18Z</time>
      </trkpt>
      <trkpt lat="47.73879" lon="4.99275">
        <ele>368.61</ele>
        <time>2021-12-13T10:12:21Z</time>
      </trkpt>
      <trkpt lat="47.73877" lon="4.9927">
        <ele>368.58</ele>
        <time>2021-12-13T10:12:25Z</time>
      </trkpt>
      <trkpt lat="47.73876" lon="4.99266">
        <ele>368.5</ele>
        <time>2021-12-13T10:12:29Z</time>
      </trkpt>
      <trkpt lat="47.73873" lon="4.99261">
        <ele>368.54</ele>
        <time>2021-12-13T10:12:32Z</time>
      </trkpt>
      <trkpt lat="47.73872" lon="4.99257">
        <ele>368.47</ele>
        <time>2021-12-13T10:12:34Z</time>
      </trkpt>
      <trkpt lat="47.73871" lon="4.99253">
        <ele>368.4</ele>
        <time>2021-12-13T10:12:36Z</time>
      </trkpt>
      <trkpt lat="47.73869" lon="4.9925">
        <ele>368.43</ele>
        <time>2021-12-13T10:12:38Z</time>
      </trkpt>
      <trkpt lat="47.73867" lon="4.99245">
        <ele>368.83</ele>
        <time>2021-12-13T10:12:41Z</time>
      </trkpt>
      <trkpt lat="47.73866" lon="4.99241">
        <ele>369.09</ele>
        <time>2021-12-13T10:12:44Z</time>
      </trkpt>
      <trkpt lat="47.73865" lon="4.99237">
        <ele>369.32</ele>
        <time>2021-12-13T10:12:47Z</time>
      </trkpt>
      <trkpt lat="47.73864" lon="4.99231">
        <ele>369.62</ele>
        <time>2021-12-13T10:12:50Z</time>
      </trkpt>
      <trkpt lat="47.73864" lon="4.99227">
        <ele>369.79</ele>
        <time>2021-12-13T10:12:53Z</time>
      </trkpt>
      <trkpt lat="47.73862" lon="4.99222">
        <ele>370.01</ele>
        <time>2021-12-13T10:12:56Z</time>
      </trkpt>
      <trkpt lat="47.73861" lon="4.99218">
        <ele>370.14</ele>
        <time>2021-12-13T10:12:58Z</time>
      </trkpt>
      <trkpt lat="47.73859" lon="4.99213">
        <ele>370.15</ele>
        <time>2021-12-13T10:13:01Z</time>
      </trkpt>
      <trkpt lat="47.73858" lon="4.9921">
        <ele>370.2</ele>
        <time>2021-12-13T10:13:08Z</time>
      </trkpt>
      <trkpt lat="47.73857" lon="4.99204">
        <ele>370.41</ele>
        <time>2021-12-13T10:13:12Z</time>
      </trkpt>
      <trkpt lat="47.73855" lon="4.99199">
        <ele>370.54</ele>
        <time>2021-12-13T10:13:15Z</time>
      </trkpt>
      <trkpt lat="47.73855" lon="4.99194">
        <ele>370.77</ele>
        <time>2021-12-13T10:13:18Z</time>
      </trkpt>
      <trkpt lat="47.73855" lon="4.9919">
        <ele>370.66</ele>
        <time>2021-12-13T10:13:21Z</time>
      </trkpt>
      <trkpt lat="47.73855" lon="4.99185">
        <ele>370.51</ele>
        <time>2021-12-13T10:13:24Z</time>
      </trkpt>
      <trkpt lat="47.73858" lon="4.99183">
        <ele>370.52</ele>
        <time>2021-12-13T10:13:27Z</time>
      </trkpt>
      <trkpt lat="47.73861" lon="4.99181">
        <ele>370.51</ele>
        <time>2021-12-13T10:13:30Z</time>
      </trkpt>
      <trkpt lat="47.73865" lon="4.99179">
        <ele>370.15</ele>
        <time>2021-12-13T10:13:33Z</time>
      </trkpt>
      <trkpt lat="47.73868" lon="4.99176">
        <ele>369.76</ele>
        <time>2021-12-13T10:13:36Z</time>
      </trkpt>
      <trkpt lat="47.73871" lon="4.99174">
        <ele>369.38</ele>
        <time>2021-12-13T10:13:39Z</time>
      </trkpt>
      <trkpt lat="47.73874" lon="4.99173">
        <ele>369.05</ele>
        <time>2021-12-13T10:13:43Z</time>
      </trkpt>
      <trkpt lat="47.73877" lon="4.99173">
        <ele>368.77</ele>
        <time>2021-12-13T10:13:46Z</time>
      </trkpt>
      <trkpt lat="47.7388" lon="4.99173">
        <ele>368.5</ele>
        <time>2021-12-13T10:13:49Z</time>
      </trkpt>
      <trkpt lat="47.73884" lon="4.99173">
        <ele>368.13</ele>
        <time>2021-12-13T10:13:51Z</time>
      </trkpt>
      <trkpt lat="47.73888" lon="4.99172">
        <ele>367.66</ele>
        <time>2021-12-13T10:13:53Z</time>
      </trkpt>
      <trkpt lat="47.73893" lon="4.99172">
        <ele>366.63</ele>
        <time>2021-12-13T10:13:55Z</time>
      </trkpt>
      <trkpt lat="47.73897" lon="4.99171">
        <ele>365.62</ele>
        <time>2021-12-13T10:13:57Z</time>
      </trkpt>
      <trkpt lat="47.739" lon="4.9917">
        <ele>364.86</ele>
        <time>2021-12-13T10:13:59Z</time>
      </trkpt>
      <trkpt lat="47.73903" lon="4.99169">
        <ele>364.12</ele>
        <time>2021-12-13T10:14:02Z</time>
      </trkpt>
      <trkpt lat="47.73916" lon="4.99165">
        <ele>361.15</ele>
        <time>2021-12-13T10:14:14Z</time>
      </trkpt>
      <trkpt lat="47.73927" lon="4.99161">
        <ele>361.3</ele>
        <time>2021-12-13T10:14:23Z</time>
      </trkpt>
      <trkpt lat="47.7394" lon="4.99156">
        <ele>361.52</ele>
        <time>2021-12-13T10:14:32Z</time>
      </trkpt>
      <trkpt lat="47.73951" lon="4.99158">
        <ele>362.32</ele>
        <time>2021-12-13T10:14:40Z</time>
      </trkpt>
      <trkpt lat="47.73958" lon="4.99172">
        <ele>363.18</ele>
        <time>2021-12-13T10:14:50Z</time>
      </trkpt>
      <trkpt lat="47.73962" lon="4.9919">
        <ele>362.53</ele>
        <time>2021-12-13T10:14:59Z</time>
      </trkpt>
      <trkpt lat="47.73964" lon="4.99207">
        <ele>362.54</ele>
        <time>2021-12-13T10:15:07Z</time>
      </trkpt>
      <trkpt lat="47.73964" lon="4.99225">
        <ele>362.9</ele>
        <time>2021-12-13T10:15:16Z</time>
      </trkpt>
      <trkpt lat="47.73964" lon="4.99243">
        <ele>364.2</ele>
        <time>2021-12-13T10:15:28Z</time>
      </trkpt>
      <trkpt lat="47.73966" lon="4.9924">
        <ele>364.06</ele>
        <time>2021-12-13T10:19:42Z</time>
      </trkpt>
      <trkpt lat="47.73963" lon="4.99241">
        <ele>364.02</ele>
        <time>2021-12-13T10:22:50Z</time>
      </trkpt>
      <trkpt lat="47.73964" lon="4.99237">
        <ele>363.77</ele>
        <time>2021-12-13T10:23:24Z</time>
      </trkpt>
      <trkpt lat="47.73966" lon="4.99242">
        <ele>364.2</ele>
        <time>2021-12-13T10:24:09Z</time>
      </trkpt>
      <trkpt lat="47.73966" lon="4.99246">
        <ele>364.49</ele>
        <time>2021-12-13T10:24:12Z</time>
      </trkpt>
      <trkpt lat="47.73964" lon="4.9925">
        <ele>364.7</ele>
        <time>2021-12-13T10:24:24Z</time>
      </trkpt>
      <trkpt lat="47.73965" lon="4.99254">
        <ele>364.85</ele>
        <time>2021-12-13T10:24:33Z</time>
      </trkpt>
      <trkpt lat="47.73966" lon="4.99257">
        <ele>364.97</ele>
        <time>2021-12-13T10:24:37Z</time>
      </trkpt>
      <trkpt lat="47.73969" lon="4.99259">
        <ele>365.17</ele>
        <time>2021-12-13T10:24:43Z</time>
      </trkpt>
      <trkpt lat="47.7397" lon="4.99255">
        <ele>365.09</ele>
        <time>2021-12-13T10:25:48Z</time>
      </trkpt>
      <trkpt lat="47.73973" lon="4.9925">
        <ele>365.14</ele>
        <time>2021-12-13T10:25:50Z</time>
      </trkpt>
      <trkpt lat="47.73977" lon="4.99245">
        <ele>365.44</ele>
        <time>2021-12-13T10:25:52Z</time>
      </trkpt>
      <trkpt lat="47.7398" lon="4.99239">
        <ele>365.39</ele>
        <time>2021-12-13T10:25:54Z</time>
      </trkpt>
      <trkpt lat="47.7398" lon="4.99233">
        <ele>364.83</ele>
        <time>2021-12-13T10:25:56Z</time>
      </trkpt>
      <trkpt lat="47.73977" lon="4.99229">
        <ele>364.09</ele>
        <time>2021-12-13T10:25:58Z</time>
      </trkpt>
      <trkpt lat="47.73973" lon="4.99227">
        <ele>363.44</ele>
        <time>2021-12-13T10:26:00Z</time>
      </trkpt>
      <trkpt lat="47.7397" lon="4.99225">
        <ele>363.12</ele>
        <time>2021-12-13T10:26:02Z</time>
      </trkpt>
    </trkseg>
  </trk>
</gpx>